Date StartTime U_cm/s V_cm/s W_cm/s Ustd_cm/s Vstd_cm/s Wstd_cm/s Uvar_(cm/s)^2 Vvar_(cm/s)^2 Wvar_(cm/s)^2 KE_(m/s)^2 TurbulentKE_(m/s)^2 HorizWindSpeed_cm/s FrictionSpeec_cm/s DragCoef SpeedOfSound_m/s SonicTemperature_C Pressure_mb 
11/28/2013  00:00:00      -99.703      -35.578       -9.272       10.973       13.444       10.811      120.405      180.735      116.881        0.586        0.021      105.861        6.896        0.004      333.391        2.676      859.685
11/28/2013  00:01:00      -83.258      -44.584      -11.031       21.756       18.357       14.060      473.323      336.972      197.671        0.502        0.050       94.444       11.224        0.014      333.343        2.594      859.692
11/28/2013  00:02:00      -61.101      -41.787       -1.204       24.232       18.657       14.012      587.198      348.068      196.327        0.331        0.057       74.024       13.096        0.031      333.344        2.595      859.703
11/28/2013  00:03:00      -38.547      -32.953        5.963       32.098       20.174       11.839     1030.287      406.983      140.159        0.209        0.079       50.713       15.843        0.098      333.345        2.599      859.720
11/28/2013  00:04:00      -69.588      -40.926       -8.387       15.544       12.189       11.178      241.610      148.583      124.954        0.355        0.026       80.731        8.544        0.011      333.382        2.660      859.743
11/28/2013  00:05:00      -79.539      -49.455       -2.173       24.414       21.728       15.013      596.060      472.104      225.397        0.503        0.065       93.660       14.247        0.023      333.400        2.689      859.749
11/28/2013  00:06:00      -71.869      -49.900        1.450       23.491       17.559       14.365      551.831      308.326      206.355        0.436        0.053       87.494       12.591        0.021      333.348        2.604      859.755
11/28/2013  00:07:00      -39.866      -46.087       -3.491       26.892       21.373       11.290      723.203      456.798      127.463        0.252        0.065       60.937       10.972        0.032      333.401        2.690      859.755
11/28/2013  00:08:00      -41.648      -33.856       -0.953       22.444       16.311       11.377      503.735      266.065      129.429        0.189        0.045       53.673       13.507        0.063      333.395        2.682      859.758
11/28/2013  00:09:00      -48.942      -28.564        3.669       25.007       16.342       10.863      625.359      267.074      118.001        0.212        0.051       56.667       11.284        0.040      333.410        2.706      859.765
11/28/2013  00:10:00      -51.774      -28.455        2.350       15.630       17.980       14.563      244.297      323.287      212.084        0.214        0.039       59.078       10.420        0.031      333.382        2.660      859.761
11/28/2013  00:11:00      -41.678      -25.174       -0.806       25.408       16.970       12.008      645.579      287.980      144.187        0.172        0.054       48.691        8.338        0.029      333.367        2.635      859.754
11/28/2013  00:12:00      -76.357      -27.895       -1.984       25.133       13.944       12.669      631.693      194.434      160.495        0.380        0.049       81.293       10.281        0.016      333.356        2.619      859.740
11/28/2013  00:13:00      -76.223      -30.194        4.596       32.441       15.652       15.329     1052.430      244.978      234.972        0.414        0.077       81.986       16.507        0.041      333.328        2.571      859.733
11/28/2013  00:14:00      -60.320      -34.163        1.346       26.538       20.578       17.161      704.240      423.437      294.487        0.311        0.071       69.323       16.199        0.055      333.320        2.557      859.726
11/28/2013  00:15:00      -62.957      -40.430       -6.142       20.917       16.762       14.110      437.524      280.972      199.101        0.328        0.046       74.821       13.131        0.031      333.378        2.653      859.719
11/28/2013  00:16:00      -70.969      -27.870       -3.910       21.192       22.787       14.207      449.088      519.241      201.851        0.350        0.059       76.246       11.562        0.023      333.343        2.595      859.719
11/28/2013  00:17:00      -79.560      -13.188       -6.422       18.183       14.816       12.151      330.614      219.510      147.640        0.362        0.035       80.646       10.476        0.017      333.340        2.591      859.713
11/28/2013  00:18:00      -61.209      -18.187       -7.436       14.417       11.203        8.071      207.836      125.508       65.135        0.227        0.020       63.854        7.223        0.013      333.329        2.572      859.701
11/28/2013  00:19:00      -38.601      -28.612       -6.825        8.915        7.725        7.755       79.471       59.670       60.145        0.128        0.010       48.049        3.466        0.005      333.373        2.645      859.699
11/28/2013  00:20:00      -39.704      -25.642       -4.372        6.900        6.627        5.495       47.615       43.912       30.194        0.119        0.006       47.265        1.048        0.000      333.407        2.700      859.701
11/28/2013  00:21:00      -44.873      -24.373       -9.698        8.597        9.566        7.985       73.914       91.510       63.756        0.147        0.011       51.065        4.392        0.007      333.422        2.725      859.699
11/28/2013  00:22:00      -70.944      -32.904       -5.102       12.035        9.366        8.737      144.846       87.718       76.332        0.323        0.015       78.203        6.353        0.007      333.400        2.689      859.696
11/28/2013  00:23:00      -72.336      -31.303       -4.366       17.295       12.610        9.723      299.101      159.011       94.535        0.339        0.028       78.819        5.400        0.005      333.331        2.575      859.682
11/28/2013  00:24:00      -57.555      -37.529       -1.497       35.845       20.263       16.886     1284.831      410.602      285.146        0.335        0.099       68.709       13.238        0.037      333.177        2.320      859.666
11/28/2013  00:25:00      -62.683      -35.652        3.960       33.813       22.317       19.236     1143.337      498.038      370.017        0.361        0.101       72.113       19.178        0.071      333.095        2.186      859.664
11/28/2013  00:26:00      -80.504      -58.068        2.178       30.689       20.684       19.393      941.796      427.843      376.092        0.580        0.087       99.261       15.386        0.024      333.151        2.278      859.657
11/28/2013  00:27:00      -81.634      -47.510       -4.096       24.819       18.957       14.288      615.971      359.350      204.152        0.506        0.059       94.453       12.701        0.018      333.302        2.526      859.654
11/28/2013  00:28:00      -94.333      -36.467       -4.136       21.459       16.337       11.695      460.477      266.904      136.773        0.555        0.043      101.136        9.810        0.009      333.215        2.383      859.653
11/28/2013  00:29:00      -98.059      -60.438       -8.644       14.267       12.224       10.213      203.558      149.435      104.305        0.690        0.023      115.188        4.387        0.001      333.253        2.446      859.654
11/28/2013  00:30:00     -100.305      -57.680      -17.980       18.505       11.248       10.430      342.433      126.520      108.782        0.714        0.029      115.706        5.509        0.002      333.180        2.325      859.658
11/28/2013  00:31:00     -132.032      -89.359       -8.600       20.721       27.357       19.162      429.349      748.432      367.177        1.352        0.077      159.429        8.869        0.003      333.184        2.332      859.656
11/28/2013  00:32:00      -87.444      -60.266        5.789       48.178       37.919       25.027     2321.095     1437.845      626.372        0.785        0.219      106.201       23.160        0.048      333.116        2.222      859.662
11/28/2013  00:33:00      -36.240      -35.750       10.986       47.665       34.372       26.622     2271.978     1181.420      708.738        0.344        0.208       50.906       21.505        0.178      333.124        2.235      859.677
11/28/2013  00:34:00     -103.697      -60.586        5.623       59.110       43.982       27.354     3493.993     1934.453      748.267        1.031        0.309      120.099       27.154        0.051      333.187        2.338      859.674
11/28/2013  00:35:00     -135.940      -82.341        0.457       50.249       44.209       33.051     2524.976     1954.409     1092.359        1.541        0.279      158.933       30.818        0.038      333.166        2.302      859.663
11/28/2013  00:36:00     -110.079      -72.340       -3.261       41.639       35.544       23.251     1733.829     1263.404      540.631        1.045        0.177      131.722       17.972        0.019      333.202        2.363      859.652
11/28/2013  00:37:00     -104.626      -59.439        3.270       31.505       28.653       20.254      992.535      820.994      410.216        0.836        0.111      120.331       16.546        0.019      333.169        2.307      859.644
11/28/2013  00:38:00     -113.104      -49.596       -0.267       38.405       28.698       20.416     1474.962      823.591      416.820        0.898        0.136      123.500       19.358        0.025      333.162        2.296      859.635
11/28/2013  00:39:00      -71.270      -40.536        8.699       38.279       28.140       21.548     1465.281      791.866      464.299        0.476        0.136       81.991       17.932        0.048      333.205        2.368      859.630
11/28/2013  00:40:00     -114.027      -45.612        1.075       30.247       20.158       17.042      914.873      406.362      290.428        0.835        0.081      122.811       14.894        0.015      333.218        2.389      859.626
11/28/2013  00:41:00     -115.425      -49.796       -1.667       25.646       26.964       15.843      657.725      727.060      250.996        0.872        0.082      125.708       12.310        0.010      333.267        2.470      859.625
11/28/2013  00:42:00     -123.504      -42.143       -6.231       24.309       17.097       11.131      590.906      292.301      123.897        0.904        0.050      130.496        9.841        0.006      333.249        2.439      859.611
11/28/2013  00:43:00     -106.251      -31.590        4.132       33.545       26.291       16.734     1125.296      691.197      280.040        0.720        0.105      110.848       16.889        0.023      333.202        2.362      859.591
11/28/2013  00:44:00     -108.176      -35.296        7.649       49.009       30.718       20.052     2401.886      943.619      402.078        0.838        0.187      113.788       27.107        0.057      333.276        2.483      859.572
11/28/2013  00:45:00      -92.965      -40.964        7.717       44.639       26.833       20.783     1992.616      720.015      431.930        0.676        0.157      101.590       19.684        0.038      333.305        2.533      859.567
11/28/2013  00:46:00     -110.244      -37.775       -2.054       32.095       23.230       16.436     1030.099      539.653      270.130        0.771        0.092      116.536       15.039        0.017      333.249        2.438      859.568
11/28/2013  00:47:00      -96.912      -30.026       -2.369       40.141       23.237       16.878     1611.293      539.944      284.874        0.637        0.122      101.457       17.556        0.030      333.202        2.362      859.557
11/28/2013  00:48:00     -104.728      -24.027        1.758       30.737       27.220       17.718      944.752      740.944      313.925        0.677        0.100      107.449       15.491        0.021      333.157        2.288      859.541
11/28/2013  00:49:00      -89.071      -23.689        0.822       31.227       25.248       16.425      975.099      637.480      269.765        0.519        0.094       92.167       12.807        0.019      333.100        2.191      859.533
11/28/2013  00:50:00     -118.335      -22.793       -5.288       27.528       18.720       13.847      757.812      350.429      191.733        0.793        0.065      120.510       13.872        0.013      333.063        2.133      859.525
11/28/2013  00:51:00     -131.450      -29.270       -7.318       17.676       16.952       13.191      312.447      287.365      173.993        0.948        0.039      134.670       10.716        0.006      333.021        2.063      859.526
11/28/2013  00:52:00     -108.244      -28.158       -2.816       23.474       22.015       14.946      551.029      484.661      223.396        0.689        0.063      111.846       13.522        0.015      332.979        1.993      859.517
11/28/2013  00:53:00     -114.337      -20.105      -13.103       12.190       16.269       12.896      148.589      264.673      166.306        0.711        0.029      116.091        5.126        0.002      332.984        2.002      859.523
11/28/2013  00:54:00      -67.542      -32.276       -5.202       32.966       21.825       12.170     1086.787      476.336      148.111        0.367        0.086       74.858       15.280        0.042      333.001        2.029      859.537
11/28/2013  00:55:00      -88.140      -13.945       -6.745       28.030       14.486       15.190      785.701      209.830      230.738        0.462        0.061       89.237       13.585        0.023      332.937        1.925      859.539
11/28/2013  00:56:00     -102.041      -14.652       -8.477       15.427       18.840       10.076      237.997      354.952      101.520        0.570        0.035      103.087        5.793        0.003      332.920        1.896      859.544
11/28/2013  00:57:00      -85.333      -26.742       -3.328       18.579       17.105       11.736      345.182      292.569      137.732        0.439        0.039       89.425        7.917        0.008      332.942        1.933      859.545
11/28/2013  00:58:00      -77.746      -17.498       -0.389       28.916       14.247       12.030      836.119      202.970      144.724        0.377        0.059       79.691       14.352        0.032      332.905        1.871      859.547
11/28/2013  00:59:00      -85.162      -39.445       -0.878       19.557       19.199       11.676      382.459      368.591      136.338        0.485        0.044       93.854       12.362        0.017      332.977        1.989      859.559
11/28/2013  01:00:00      -75.984      -41.952       -5.075       21.269       21.943       11.826      452.363      481.486      139.844        0.432        0.054       86.796       10.533        0.015      332.964        1.968      859.567
11/28/2013  01:01:00      -79.474      -39.080       -2.519       15.636       16.830       10.366      244.469      283.263      107.450        0.424        0.032       88.563        8.583        0.009      333.018        2.059      859.560
11/28/2013  01:02:00      -85.852      -33.289       -6.662       12.710       12.515       10.367      161.548      156.625      107.477        0.447        0.021       92.080        7.205        0.006      333.051        2.113      859.562
11/28/2013  01:03:00      -53.834      -27.668       -1.384       32.871       14.151       12.238     1080.500      200.259      149.758        0.255        0.072       60.528       12.988        0.046      333.009        2.043      859.571
11/28/2013  01:04:00      -69.391      -31.041       -7.487       26.324       14.308       13.826      692.929      204.730      191.161        0.346        0.054       76.017       10.427        0.019      333.046        2.105      859.597
11/28/2013  01:05:00      -78.867      -39.617       -3.780       19.778       18.804       12.375      391.159      353.608      153.133        0.435        0.045       88.258        9.050        0.011      333.031        2.080      859.624
11/28/2013  01:06:00      -96.875      -47.765       -6.300       16.502       15.050       11.985      272.332      226.512      143.636        0.617        0.032      108.010        7.900        0.005      333.027        2.073      859.648
11/28/2013  01:07:00      -89.137      -41.233       -3.665       23.424       16.678       11.404      548.668      278.145      130.059        0.531        0.048       98.212       12.277        0.016      333.079        2.158      859.655
11/28/2013  01:08:00      -67.173      -37.214        0.754       37.071       20.992       15.517     1374.242      440.655      240.781        0.398        0.103       76.792       19.093        0.062      333.050        2.111      859.663
11/28/2013  01:09:00      -97.228      -28.150       -0.741       20.535       14.482       10.063      421.677      209.722      101.260        0.549        0.037      101.221        9.570        0.009      333.092        2.179      859.674
11/28/2013  01:10:00      -53.679      -22.517        1.936       20.893       12.236        9.316      436.518      149.714       86.793        0.203        0.034       58.211        7.150        0.015      333.112        2.213      859.690
11/28/2013  01:11:00      -25.207      -23.108       -0.146       29.198       15.081       11.014      852.500      227.450      121.309        0.119        0.060       34.196        9.787        0.082      333.059        2.126      859.705
11/28/2013  01:12:00      -46.648      -30.507       -0.443       21.300       20.243       17.152      453.697      409.777      294.202        0.213        0.058       55.738       13.909        0.062      332.957        1.958      859.711
11/28/2013  01:13:00      -69.032      -33.489        4.840       64.009       31.986       17.547     4097.096     1023.131      307.880        0.567        0.271       76.726       25.643        0.112      332.907        1.875      859.710
11/28/2013  01:14:00     -112.956      -53.143       -4.482       44.546       37.535       20.866     1984.343     1408.868      435.385        0.972        0.191      124.832       18.113        0.021      333.021        2.065      859.697
11/28/2013  01:15:00      -73.164      -40.826        3.337       46.408       33.545       22.616     2153.724     1125.236      511.504        0.541        0.190       83.784       22.004        0.069      332.940        1.929      859.695
11/28/2013  01:16:00      -92.568      -43.657       -8.291       25.588       21.282       17.500      654.746      452.939      306.237        0.598        0.071      102.346       11.197        0.012      332.852        1.787      859.692
11/28/2013  01:17:00      -91.912      -31.384        1.895       19.665       17.112       12.736      386.729      292.806      162.200        0.514        0.042       97.123       12.111        0.016      332.839        1.763      859.698
11/28/2013  01:18:00      -82.232      -29.963        2.889       19.893       18.191       11.990      395.726      330.905      143.767        0.427        0.044       87.521       11.089        0.016      332.867        1.810      859.709
11/28/2013  01:19:00      -94.322      -25.841       -6.078       20.108       14.858       12.313      404.335      220.768      151.600        0.519        0.039       97.797       10.705        0.012      332.857        1.793      859.724
11/28/2013  01:20:00      -72.869      -23.398       -1.487       21.465       16.277       10.707      460.742      264.933      114.643        0.335        0.042       76.534        7.785        0.010      332.816        1.725      859.730
11/28/2013  01:21:00      -84.704      -11.947        1.606       29.531       17.579       13.026      872.105      309.019      169.686        0.434        0.068       85.542       15.267        0.032      332.682        1.505      859.738
11/28/2013  01:22:00     -100.178       -9.504       -2.666       30.310       17.786       16.381      918.717      316.330      268.346        0.582        0.075      100.628       17.285        0.030      332.692        1.521      859.745
11/28/2013  01:23:00     -107.113      -10.103       -3.322       25.476       18.451       15.480      649.019      340.444      239.627        0.641        0.061      107.589       14.799        0.019      332.715        1.559      859.753
11/28/2013  01:24:00      -97.547      -24.484       -6.101       14.180       12.884       10.490      201.062      165.990      110.030        0.531        0.024      100.573        9.234        0.008      332.792        1.687      859.750
11/28/2013  01:25:00      -76.163      -37.000       -0.889       21.918       21.667       12.510      480.404      469.458      156.491        0.414        0.055       84.675        7.948        0.009      332.664        1.472      859.741
11/28/2013  01:26:00      -38.702       -3.225       -5.606       16.857       19.723       13.441      284.161      388.990      180.647        0.120        0.043       38.836        9.707        0.062      332.670        1.484      859.738
11/28/2013  01:27:00      -28.830        3.802       -9.344       27.548       21.017       10.401      758.891      441.734      108.191        0.112        0.065       29.079        3.991        0.019      332.778        1.663      859.747
11/28/2013  01:28:00      -39.562       10.373      -10.326       23.846       19.083       12.059      568.648      364.172      145.412        0.143        0.054       40.899        7.895        0.037      332.804        1.705      859.772
11/28/2013  01:29:00      -65.738        4.974      -10.850       19.818       21.039       16.689      392.759      442.647      278.532        0.279        0.056       65.926       10.240        0.024      332.768        1.644      859.792
11/28/2013  01:30:00      -58.262       -7.883      -14.508       33.729       22.535       14.098     1137.640      507.839      198.766        0.276        0.092       58.793       14.607        0.062      332.778        1.662      859.798
11/28/2013  01:31:00      -66.002      -14.174      -12.662       17.927       15.238        9.797      321.371      232.199       95.982        0.268        0.032       67.506        5.976        0.008      332.727        1.578      859.800
11/28/2013  01:32:00      -62.568      -21.602       -8.376       14.345       12.723       12.600      205.792      161.881      158.769        0.249        0.026       66.192        9.103        0.019      332.690        1.517      859.810
11/28/2013  01:33:00      -55.938      -16.637       -8.522       17.424       11.736        7.952      303.584      137.724       63.230        0.199        0.025       58.360        2.606        0.002      332.629        1.416      859.814
11/28/2013  01:34:00      -24.541      -12.033      -10.581       13.475       13.313        7.831      181.573      177.247       61.317        0.064        0.021       27.333        5.715        0.044      332.679        1.498      859.829
11/28/2013  01:35:00      -23.671      -23.233       -1.768       11.312       12.667       10.952      127.963      160.459      119.942        0.076        0.020       33.167        3.835        0.013      332.834        1.755      859.844
11/28/2013  01:36:00      -29.824      -23.108        3.624       10.076       12.029       10.770      101.535      144.692      115.990        0.090        0.018       37.729        5.399        0.020      332.844        1.773      859.857
11/28/2013  01:37:00      -23.331      -20.922       11.505       12.185       12.684       12.360      148.467      160.873      152.769        0.079        0.023       31.338        7.358        0.055      332.968        1.975      859.861
11/28/2013  01:38:00       -9.557      -18.578        7.873        9.362       14.947       18.258       87.654      223.408      333.361        0.057        0.032       20.892        9.673        0.214      332.966        1.972      859.866
11/28/2013  01:39:00      -43.285      -25.211       -8.255       21.140       12.140        9.406      446.889      147.368       88.472        0.163        0.034       50.092        6.281        0.016      332.780        1.665      859.874
11/28/2013  01:40:00      -60.848      -22.241      -11.792       18.719       10.160        8.365      350.395      103.229       69.970        0.243        0.026       64.786        7.349        0.013      332.770        1.650      859.892
11/28/2013  01:41:00      -95.362      -22.846      -11.935       14.405       11.606        9.472      207.512      134.696       89.724        0.510        0.022       98.060        6.521        0.004      332.463        1.142      859.908
11/28/2013  01:42:00      -75.523      -17.045      -17.030       16.074       12.632       11.478      258.388      159.555      131.754        0.342        0.027       77.423        7.639        0.010      332.378        1.001      859.918
11/28/2013  01:43:00      -81.890      -15.374      -13.649       27.040       20.743       13.117      731.155      430.263      172.048        0.423        0.067       83.320       12.727        0.023      332.308        0.885      859.921
11/28/2013  01:44:00     -101.097      -16.197      -15.509       36.984       12.965       12.136     1367.813      168.088      147.281        0.620        0.084      102.386       16.455        0.026      332.360        0.971      859.916
11/28/2013  01:45:00     -109.671      -18.523      -16.475       22.457       13.109       11.137      504.328      171.846      124.036        0.672        0.040      111.224        6.521        0.003      332.321        0.906      859.914
11/28/2013  01:46:00      -82.821      -22.980       -4.489       37.901       21.178       19.236     1436.470      448.496      370.027        0.483        0.113       85.950       17.589        0.042      332.351        0.957      859.904
11/28/2013  01:47:00      -94.693      -14.782       -7.862       24.695       25.751       15.248      609.844      663.112      232.513        0.538        0.075       95.839       10.231        0.011      332.381        1.006      859.898
11/28/2013  01:48:00      -85.761        1.742       -7.899       25.779       22.242       19.229      664.544      494.706      369.739        0.447        0.076       85.779       14.941        0.030      332.361        0.973      859.885
11/28/2013  01:49:00      -79.241        2.256      -12.587       21.734       22.651       14.316      472.359      513.053      204.940        0.382        0.060       79.273        6.011        0.006      332.358        0.967      859.882
11/28/2013  01:50:00      -67.197       -4.412      -14.080       21.325       20.999       14.621      454.772      440.945      213.767        0.292        0.055       67.342       12.949        0.037      332.342        0.941      859.882
11/28/2013  01:51:00      -90.622      -13.074      -17.391       27.390       27.233       16.774      750.198      741.654      281.354        0.523        0.089       91.560       12.173        0.018      332.345        0.946      859.888
11/28/2013  01:52:00      -85.514      -35.956      -15.343       26.585       21.816       11.836      706.744      475.920      140.085        0.508        0.066       92.766        7.054        0.006      332.326        0.915      859.880
11/28/2013  01:53:00      -81.491      -15.806      -11.701       19.740       14.457       13.657      389.667      209.015      186.516        0.391        0.039       83.010        6.942        0.007      332.274        0.831      859.886
11/28/2013  01:54:00      -68.140      -22.784      -11.668       22.823       22.362       11.971      520.903      500.043      143.297        0.323        0.058       71.848        9.242        0.017      332.379        1.002      859.895
11/28/2013  01:55:00      -77.973      -24.167      -15.680       11.445       11.165        8.301      130.986      124.654       68.898        0.362        0.016       81.632        3.472        0.002      332.373        0.992      859.898
11/28/2013  01:56:00      -68.699      -18.035      -16.593       22.568       21.537       13.463      509.326      463.862      181.252        0.324        0.058       71.027       10.785        0.023      332.392        1.023      859.906
11/28/2013  01:57:00      -71.791      -24.057      -25.397       19.157       17.847       10.857      367.000      318.506      117.885        0.359        0.040       75.714       10.959        0.021      332.431        1.086      859.908
11/28/2013  01:58:00      -71.883      -27.467      -11.260       18.734       19.736       14.982      350.960      389.510      224.461        0.351        0.048       76.952       13.041        0.029      332.445        1.114      859.917
11/28/2013  01:59:00      -91.348      -29.691      -11.314       16.272       16.500       12.164      264.774      272.253      147.958        0.502        0.034       96.053        8.250        0.007      332.444        1.111      859.912
11/28/2013  02:00:00      -70.859      -22.541       -9.517       14.255       10.843        7.079      203.207      117.570       50.107        0.300        0.019       74.358        5.156        0.005      332.445        1.112      859.910
11/28/2013  02:01:00      -96.744       -8.552      -14.412        9.334        9.434        6.981       87.130       89.002       48.734        0.493        0.011       97.122        5.321        0.003      332.462        1.139      859.906
11/28/2013  02:02:00     -100.564      -14.614      -14.040       14.990       17.460       13.769      224.698      304.853      189.583        0.562        0.036      101.620       10.353        0.010      332.511        1.220      859.914
11/28/2013  02:03:00     -117.721      -22.205      -11.092       10.794       12.292       11.963      116.515      151.087      143.108        0.744        0.021      119.797        8.267        0.005      332.517        1.231      859.914
11/28/2013  02:04:00      -93.402      -29.874       -8.964       16.009       12.756        8.431      256.276      162.709       71.083        0.509        0.025       98.063        6.042        0.004      332.624        1.406      859.909
11/28/2013  02:05:00      -87.753      -14.807       -9.299       18.633       13.250        8.288      347.202      175.561       68.687        0.430        0.030       88.993        7.155        0.006      332.602        1.371      859.910
11/28/2013  02:06:00     -109.553       -0.689      -14.463        9.065        9.996        7.518       82.179       99.920       56.528        0.622        0.012      109.555        4.934        0.002      332.685        1.506      859.915
11/28/2013  02:07:00      -74.479        3.000      -15.048       15.181        6.486        6.829      230.476       42.070       46.641        0.305        0.016       74.539        1.728        0.001      332.675        1.492      859.921
11/28/2013  02:08:00      -50.228        8.188      -11.923       14.580       15.568       11.519      212.577      242.351      132.695        0.166        0.029       50.891        6.984        0.019      332.645        1.443      859.923
11/28/2013  02:09:00      -90.489       20.445      -11.148       25.502       13.774       11.416      650.328      189.722      130.316        0.485        0.049       92.770       10.719        0.013      332.671        1.486      859.927
11/28/2013  02:10:00      -92.277        5.554      -14.211       11.391        9.017        8.198      129.762       81.302       67.203        0.451        0.014       92.444        5.309        0.003      332.664        1.474      859.926
11/28/2013  02:11:00      -90.312       -8.015      -14.058       19.665       12.183       11.214      386.694      148.417      125.751        0.454        0.033       90.667       11.758        0.017      332.615        1.393      859.928
11/28/2013  02:12:00      -95.374       -9.787      -15.120       10.887        9.674        7.734      118.518       93.596       59.820        0.485        0.014       95.875        3.317        0.001      332.616        1.396      859.925
11/28/2013  02:13:00      -85.896      -12.929      -12.202       15.304       11.208        7.290      234.198      125.623       53.140        0.405        0.021       86.864        5.343        0.004      332.555        1.293      859.910
11/28/2013  02:14:00      -94.247      -15.601      -11.473        9.301       10.129        9.760       86.501      102.605       95.265        0.477        0.014       95.529        3.505        0.001      332.505        1.211      859.905
11/28/2013  02:15:00      -89.850      -10.098      -10.610       16.018       12.360       12.466      256.590      152.767      155.398        0.443        0.028       90.415       10.448        0.013      332.503        1.206      859.904
11/28/2013  02:16:00      -81.874      -13.455      -12.610       13.759        9.661        9.313      189.304       93.340       86.725        0.371        0.018       82.972        5.801        0.005      332.502        1.206      859.907
11/28/2013  02:17:00      -87.757      -14.246      -11.086       15.976       13.119        8.834      255.235      172.107       78.046        0.427        0.025       88.906        6.713        0.006      332.516        1.229      859.913
11/28/2013  02:18:00      -85.649      -19.038      -11.539       11.063       13.754       10.438      122.392      189.162      108.958        0.413        0.021       87.739        7.254        0.007      332.532        1.256      859.927
11/28/2013  02:19:00      -79.784      -28.879       -4.940       20.232       10.106       10.034      409.337      102.122      100.678        0.392        0.031       84.849       10.535        0.015      332.581        1.336      859.937
11/28/2013  02:20:00      -81.952      -30.377       -5.738       16.637       14.389       11.806      276.773      207.053      139.390        0.415        0.031       87.401        7.668        0.008      332.577        1.330      859.945
11/28/2013  02:21:00      -79.419      -35.793       -3.939       12.222       13.427        8.649      149.366      180.277       74.807        0.400        0.020       87.112        4.081        0.002      332.633        1.423      859.957
11/28/2013  02:22:00      -76.287      -30.253        0.296       16.639       13.697       11.223      276.865      187.609      125.946        0.366        0.030       82.067       10.261        0.016      332.571        1.320      859.964
11/28/2013  02:23:00      -22.934      -14.840        2.255       27.814       21.707       16.412      773.637      471.201      269.350        0.113        0.076       27.317       15.989        0.343      332.562        1.303      859.970
11/28/2013  02:24:00      -13.157      -16.733        2.689       27.045       15.472       14.480      731.440      239.376      209.666        0.082        0.059       21.286       14.014        0.433      332.612        1.387      859.977
11/28/2013  02:25:00      -40.390      -32.138       -2.071       23.142       13.951       12.334      535.573      194.626      152.119        0.178        0.044       51.616        7.769        0.023      332.699        1.530      859.989
11/28/2013  02:26:00      -40.661      -12.102        1.366       11.763       18.905       10.294      138.373      357.390      105.966        0.120        0.030       42.424        8.454        0.040      332.697        1.530      860.006
11/28/2013  02:27:00      -35.071       -0.509       -1.214       18.516       10.314       10.914      342.827      106.376      119.108        0.090        0.028       35.075        7.347        0.044      332.665        1.476      860.013
11/28/2013  02:28:00      -50.986      -10.010       -4.317       19.297       24.769       15.709      372.388      613.499      246.762        0.198        0.062       51.959       12.169        0.055      332.708        1.548      860.010
11/28/2013  02:29:00      -44.299      -13.690       -3.576       13.835       13.078       13.494      191.400      171.039      182.085        0.135        0.027       46.366        5.545        0.014      332.638        1.432      860.001
11/28/2013  02:30:00      -62.269       -4.201       -4.227       22.454       16.495       11.849      504.201      272.097      140.398        0.241        0.046       62.410        7.126        0.013      332.660        1.467      859.996
11/28/2013  02:31:00      -45.266      -16.081       -4.296       22.710       15.697       13.197      515.745      246.397      174.149        0.163        0.047       48.038        9.358        0.038      332.631        1.419      860.002
11/28/2013  02:32:00      -24.847      -23.423       -4.335       15.574       16.624       11.350      242.563      276.371      128.823        0.092        0.032       34.147        8.890        0.068      332.667        1.479      860.018
11/28/2013  02:33:00      -64.361      -31.056        3.832       16.859       14.295       13.695      284.221      204.335      187.563        0.290        0.034       71.462        9.735        0.019      332.582        1.337      860.032
11/28/2013  02:34:00      -65.936      -53.677        4.608       43.450       23.151       21.269     1887.879      535.949      452.351        0.506        0.144       85.023       21.822        0.066      332.618        1.398      860.037
11/28/2013  02:35:00      -66.410      -49.865        7.271       30.872       24.855       18.326      953.110      617.783      335.853        0.443        0.095       83.047       12.649        0.023      332.607        1.380      860.037
11/28/2013  02:36:00      -72.242      -41.615        4.270       45.743       22.427       20.106     2092.388      502.956      404.236        0.498        0.150       83.370       19.816        0.056      332.604        1.374      860.040
11/28/2013  02:37:00      -17.387      -19.724        2.484       24.876       18.886       16.078      618.807      356.699      258.504        0.097        0.062       26.293       12.123        0.213      332.596        1.360      860.051
11/28/2013  02:38:00      -17.388      -20.440        8.878       30.477       20.686       10.806      928.825      427.900      116.778        0.114        0.074       26.835        8.932        0.111      332.584        1.342      860.061
11/28/2013  02:39:00      -41.744      -24.856        3.867       28.400       19.320       13.626      806.534      373.243      185.668        0.187        0.068       48.584       13.006        0.072      332.568        1.315      860.065
11/28/2013  02:40:00      -83.371      -34.615       -1.045       26.545       19.628       13.358      704.650      385.278      178.424        0.471        0.063       90.271       14.506        0.026      332.581        1.336      860.061
11/28/2013  02:41:00      -96.272      -42.286       -5.944       33.564       24.457       12.817     1126.575      598.158      164.272        0.649        0.094      105.149        7.406        0.005      332.545        1.276      860.059
11/28/2013  02:42:00     -102.475      -52.343        3.377       29.964       25.501       20.697      897.819      650.294      428.379        0.761        0.099      115.070       10.955        0.009      332.463        1.140      860.058
11/28/2013  02:43:00      -53.094      -41.551        8.727       42.808       30.058       20.531     1832.517      903.496      421.518        0.389        0.158       67.420       20.800        0.095      332.424        1.078      860.059
11/28/2013  02:44:00      -72.678      -46.280        0.497       40.720       27.074       18.527     1658.110      733.023      343.249        0.508        0.137       86.163       12.959        0.023      332.440        1.103      860.051
11/28/2013  02:45:00      -94.736      -43.191        2.108       39.362       26.830       15.967     1549.337      719.872      254.941        0.668        0.126      104.117       15.342        0.022      332.454        1.127      860.054
11/28/2013  02:46:00     -107.220      -32.096       -9.185       31.797       23.803       15.657     1011.075      566.597      245.150        0.722        0.091      111.921       12.274        0.012      332.385        1.014      860.060
11/28/2013  02:47:00     -101.879      -28.042        1.081       26.699       23.381       17.279      712.853      546.680      298.565        0.636        0.078      105.667       15.174        0.021      332.321        0.908      860.062
11/28/2013  02:48:00      -84.796      -27.268       -0.228       33.141       25.500       17.158     1098.299      650.264      294.398        0.499        0.102       89.072       16.860        0.036      332.326        0.915      860.075
11/28/2013  02:49:00      -80.047      -20.846        1.220       31.098       25.146       15.923      967.074      632.304      253.533        0.435        0.093       82.717       16.388        0.039      332.363        0.975      860.086
11/28/2013  02:50:00      -71.158       -7.854       -0.816       33.487       19.775       19.339     1121.368      391.068      374.013        0.351        0.094       71.590       11.482        0.026      332.326        0.916      860.092
11/28/2013  02:51:00     -110.672      -32.241       -5.745       16.175       22.969       11.006      261.619      527.591      121.127        0.712        0.046      115.272        8.472        0.005      332.347        0.949      860.090
11/28/2013  02:52:00      -97.344      -23.310       -6.552       21.831       24.000       15.242      476.600      575.992      232.319        0.567        0.064      100.096       11.170        0.012      332.307        0.885      860.088
11/28/2013  02:53:00      -72.370      -12.507       -1.711       16.419       15.769       12.738      269.571      248.675      162.265        0.304        0.034       73.442       10.241        0.019      332.287        0.852      860.092
11/28/2013  02:54:00      -83.854      -13.064       -6.302       16.411       15.674        8.133      269.334      245.688       66.139        0.391        0.029       84.866        3.456        0.002      332.311        0.890      860.091
11/28/2013  02:55:00      -90.931       -1.676       -8.571       19.940       14.778        9.654      397.585      218.395       93.200        0.453        0.035       90.946        9.100        0.010      332.376        0.998      860.078
11/28/2013  02:56:00      -78.494      -17.283       -4.188       20.102       19.723        9.936      404.074      389.013       98.716        0.368        0.045       80.375        9.754        0.015      332.378        1.002      860.074
11/28/2013  02:57:00      -82.510      -31.520       -6.557       17.004       15.265       12.288      289.144      233.014      150.983        0.426        0.034       88.326        6.742        0.006      332.357        0.967      860.076
11/28/2013  02:58:00      -58.092      -28.972       -1.545       19.101       19.179       11.600      364.845      367.826      134.566        0.254        0.043       64.916        3.111        0.002      332.322        0.909      860.081
11/28/2013  02:59:00      -68.191      -27.324       -3.335       22.994       17.344       10.829      528.712      300.819      117.264        0.318        0.047       73.461        8.724        0.014      332.309        0.887      860.090
11/28/2013  03:00:00      -76.036      -47.524       -5.775       13.714       22.378       11.361      188.067      500.766      129.079        0.445        0.041       89.666        3.984        0.002      332.235        0.768      860.100
11/28/2013  03:01:00      -97.474      -20.545      -10.024       15.126       15.825       12.591      228.789      250.439      158.545        0.533        0.032       99.616        8.180        0.007      332.225        0.750      860.109
11/28/2013  03:02:00      -86.382      -32.333       -8.306       22.587       17.192       14.003      510.165      295.553      196.077        0.479        0.050       92.235       13.495        0.021      332.164        0.649      860.101
11/28/2013  03:03:00      -53.834      -21.218       -4.874       21.470       18.229       11.314      460.972      332.290      127.998        0.215        0.046       57.864        8.250        0.020      332.177        0.671      860.095
11/28/2013  03:04:00      -34.803      -16.362       -5.595       15.721       14.187       11.618      247.157      201.271      134.968        0.105        0.029       38.457        8.866        0.053      332.186        0.687      860.080
11/28/2013  03:05:00      -32.724      -29.753      -11.979       11.676       14.007        9.390      136.319      196.194       88.166        0.126        0.021       44.228        5.035        0.013      332.349        0.953      860.076
11/28/2013  03:06:00      -49.741      -13.152      -11.311        9.086       12.026        6.639       82.561      144.624       44.082        0.152        0.014       51.450        4.913        0.009      332.307        0.884      860.070
11/28/2013  03:07:00      -65.046      -26.151      -11.727       14.088       18.449       13.394      198.466      340.349      179.399        0.289        0.036       70.106        9.775        0.019      332.246        0.786      860.071
11/28/2013  03:08:00      -69.532      -22.860      -13.562       17.588       19.202       10.286      309.339      368.709      105.800        0.316        0.039       73.193        4.486        0.004      332.263        0.812      860.078
11/28/2013  03:09:00      -81.296      -37.753      -15.933       15.699       14.230       13.298      246.446      202.497      176.827        0.446        0.031       89.634        8.991        0.010      332.188        0.689      860.086
11/28/2013  03:10:00      -88.755      -20.825       -8.341       19.899       16.142       14.778      395.979      260.556      218.403        0.463        0.044       91.166        8.760        0.009      332.167        0.653      860.097
11/28/2013  03:11:00     -111.394      -17.096      -13.533       18.072       15.162       12.036      326.588      229.873      144.875        0.679        0.035      112.698        8.051        0.005      332.094        0.532      860.100
11/28/2013  03:12:00     -112.438       -7.029      -15.856       12.001       13.121       11.698      144.023      172.151      136.852        0.670        0.023      112.657        7.395        0.004      332.105        0.552      860.113
11/28/2013  03:13:00      -82.042      -15.011       -5.355       25.668       19.093       18.631      658.845      364.556      347.127        0.418        0.069       83.404       16.575        0.039      332.146        0.619      860.112
11/28/2013  03:14:00      -66.330       -1.981       -7.446       19.274       16.214       14.119      371.474      262.890      199.347        0.265        0.042       66.359       11.398        0.030      332.128        0.589      860.116
11/28/2013  03:15:00      -74.493        6.641       -6.136       18.130       10.716       13.158      328.711      114.828      173.125        0.312        0.031       74.788       10.709        0.021      332.210        0.725      860.117
11/28/2013  03:16:00      -37.014      -21.045       -2.893       11.451        9.173        8.254      131.122       84.151       68.136        0.105        0.014       42.579        4.170        0.010      332.292        0.859      860.124
11/28/2013  03:17:00       -6.607      -10.388        5.215       14.983        6.239        7.912      224.486       38.923       62.595        0.025        0.016       12.311        8.891        0.522      332.384        1.011      860.124
11/28/2013  03:18:00      -11.052       -5.960       -0.554       10.873        5.750        6.775      118.214       33.060       45.905        0.018        0.010       12.556        2.454        0.038      332.284        0.845      860.123
11/28/2013  03:19:00      -12.705       -1.097       -3.824        8.675        7.547        7.784       75.252       56.962       60.591        0.018        0.010       12.752        5.976        0.220      332.253        0.796      860.124
11/28/2013  03:20:00      -22.336       -8.260       -1.832       14.990        6.682        7.409      224.714       44.656       54.891        0.045        0.016       23.815        1.812        0.006      332.223        0.747      860.123
11/28/2013  03:21:00      -55.113      -12.401       -5.461       10.073       11.079        9.409      101.469      122.734       88.525        0.177        0.016       56.491        7.699        0.019      332.149        0.623      860.123
11/28/2013  03:22:00      -89.800      -28.176      -12.505       13.254       13.154        9.781      175.657      173.018       95.674        0.473        0.022       94.116        4.870        0.003      332.023        0.416      860.122
11/28/2013  03:23:00      -81.293      -22.060      -20.253       17.071       16.962       14.577      291.429      287.702      212.487        0.415        0.040       84.233        9.810        0.014      331.945        0.288      860.125
11/28/2013  03:24:00     -117.477      -27.149      -10.982       27.450       15.505       12.163      753.509      240.404      147.941        0.790        0.057      120.573       11.784        0.010      331.886        0.191      860.127
11/28/2013  03:25:00     -116.648      -35.553      -17.569       16.403       15.569       11.058      269.060      242.388      122.284        0.791        0.032      121.946        6.991        0.003      331.897        0.210      860.126
11/28/2013  03:26:00     -100.439      -27.704      -14.142       14.065       14.325       13.007      197.834      205.217      169.193        0.581        0.029      104.190        7.108        0.005      331.922        0.250      860.110
11/28/2013  03:27:00     -113.972      -20.891      -11.538       17.781       14.108       13.466      316.164      199.031      181.334        0.713        0.035      115.871       10.742        0.009      331.998        0.375      860.095
11/28/2013  03:28:00     -109.779      -20.831      -15.036       18.910       14.554       12.901      357.597      211.827      166.433        0.672        0.037      111.738        8.615        0.006      332.030        0.428      860.086
11/28/2013  03:29:00     -115.289      -17.627      -11.361       26.755       24.353       20.728      715.816      593.060      429.670        0.773        0.087      116.629       15.532        0.018      331.981        0.346      860.080
11/28/2013  03:30:00     -106.256      -42.304       -7.379       16.904       16.928       12.128      285.760      286.555      147.095        0.693        0.036      114.368        9.409        0.007      331.985        0.353      860.077
11/28/2013  03:31:00     -111.471      -22.086      -13.102       21.877       20.773       15.407      478.612      431.519      237.390        0.712        0.057      113.638       13.286        0.014      332.019        0.410      860.076
11/28/2013  03:32:00     -115.572       -4.252      -11.517       16.180       14.327       13.873      261.808      205.262      192.474        0.708        0.033      115.650        9.515        0.007      331.985        0.353      860.082
11/28/2013  03:33:00     -117.085      -15.019      -10.370       15.333       15.662       11.709      235.113      245.296      137.092        0.733        0.031      118.045        9.157        0.006      331.944        0.285      860.090
11/28/2013  03:34:00      -97.252      -20.002       -8.630       18.279       15.366       11.330      334.130      236.115      128.377        0.532        0.035       99.288        7.097        0.005      331.976        0.337      860.095
11/28/2013  03:35:00     -102.486      -10.150      -13.810       14.986       17.335       12.133      224.585      300.510      147.219        0.573        0.034      102.988        7.138        0.005      331.967        0.323      860.101
11/28/2013  03:36:00      -91.328      -25.734       -8.178       26.012       21.535       16.241      676.648      463.746      263.771        0.524        0.070       94.884       14.050        0.022      331.980        0.344      860.100
11/28/2013  03:37:00     -113.102      -48.933       -8.224       18.445       15.396       12.000      340.233      237.026      143.991        0.799        0.036      123.233        9.634        0.006      332.011        0.396      860.098
11/28/2013  03:38:00      -98.584      -39.758       -5.249       14.482       18.210       12.286      209.714      331.618      150.936        0.601        0.035      106.299        8.851        0.007      332.046        0.456      860.110
11/28/2013  03:39:00      -68.856      -29.986       -4.514       16.577       17.147       10.269      274.793      294.029      105.454        0.317        0.034       75.102        6.522        0.008      332.084        0.517      860.121
11/28/2013  03:40:00      -76.605      -23.574       -6.058       14.423       12.618        9.249      208.014      159.214       85.551        0.346        0.023       80.150        8.181        0.010      332.189        0.691      860.135
11/28/2013  03:41:00      -72.305      -28.339       -6.404       15.484       13.750       10.581      239.753      189.063      111.953        0.331        0.027       77.660       10.326        0.018      332.206        0.719      860.156
11/28/2013  03:42:00      -74.472      -23.348        0.382       18.636       13.658       10.920      347.306      186.541      119.255        0.337        0.033       78.046        9.012        0.013      332.259        0.805      860.163
11/28/2013  03:43:00      -85.599      -25.206       -9.679       13.070       10.596        9.311      170.835      112.271       86.699        0.421        0.018       89.233        3.697        0.002      332.246        0.786      860.160
11/28/2013  03:44:00      -84.907      -16.910      -11.904       20.346       14.646        9.031      413.967      214.513       81.550        0.417        0.036       86.575        9.708        0.013      332.233        0.762      860.149
11/28/2013  03:45:00     -102.970      -10.071      -13.082       13.430       10.771       10.485      180.352      116.008      109.945        0.564        0.020      103.461        8.334        0.006      332.195        0.701      860.140
11/28/2013  03:46:00     -108.486       -7.060      -16.579       18.971       15.537       13.669      359.892      241.398      186.835        0.644        0.039      108.716       10.211        0.009      332.146        0.619      860.134
11/28/2013  03:47:00     -109.546      -36.353       -9.712       15.749       15.527       11.163      248.023      241.087      124.606        0.701        0.031      115.421        6.910        0.004      332.053        0.465      860.141
11/28/2013  03:48:00      -91.435      -48.157      -11.696       21.662       18.520       12.544      469.255      342.974      157.361        0.589        0.048      103.342       12.784        0.015      332.043        0.450      860.144
11/28/2013  03:49:00      -83.381      -39.666      -13.400       16.450       12.757       12.820      270.596      162.748      164.355        0.465        0.030       92.335       10.549        0.013      332.029        0.426      860.147
11/28/2013  03:50:00      -81.597      -15.947      -17.930       16.401       17.972       12.018      268.996      322.980      144.441        0.398        0.037       83.140       10.764        0.017      332.005        0.387      860.147
11/28/2013  03:51:00      -78.283      -17.504      -19.532       25.172       21.370       15.544      633.622      456.680      241.606        0.407        0.067       80.216       16.601        0.043      332.054        0.467      860.139
11/28/2013  03:52:00      -96.764      -21.058      -15.431       26.445       16.075       13.296      699.346      258.409      176.773        0.559        0.057       99.029       12.376        0.016      332.053        0.466      860.127
11/28/2013  03:53:00     -106.749      -20.566      -10.542       20.786       13.565       14.130      432.054      184.019      199.656        0.637        0.041      108.712       12.006        0.012      331.985        0.352      860.122
11/28/2013  03:54:00      -91.643      -23.239       -9.727       25.700       17.271       15.329      660.498      298.275      234.992        0.511        0.060       94.543       13.938        0.022      331.982        0.347      860.113
11/28/2013  03:55:00     -105.709      -36.349      -18.192       20.582       16.694       13.792      423.602      278.679      190.223        0.686        0.045      111.783       13.327        0.014      331.928        0.260      860.115
11/28/2013  03:56:00      -96.681      -43.169      -21.143       23.381       17.978       13.224      546.672      323.191      174.870        0.635        0.052      105.881       12.302        0.013      331.903        0.217      860.119
11/28/2013  03:57:00      -71.796      -35.493      -11.182       27.677       24.576       13.008      765.990      603.982      169.205        0.404        0.077       80.091       10.983        0.019      331.946        0.289      860.113
11/28/2013  03:58:00      -62.110      -28.139       -9.075       16.614       17.107       11.329      276.026      292.635      128.342        0.271        0.035       68.187        2.398        0.001      331.957        0.308      860.103
11/28/2013  03:59:00      -81.372      -19.490      -11.721       20.270       23.906       12.494      410.870      571.519      156.112        0.414        0.057       83.674       10.610        0.016      331.980        0.345      860.092
11/28/2013  04:00:00      -96.865       -5.165       -8.864       23.711       20.581       16.489      562.192      423.595      271.896        0.537        0.063       97.002       12.650        0.017      331.973        0.334      860.080
11/28/2013  04:01:00      -94.881      -16.440      -14.351       27.252       15.266       17.578      742.697      233.038      308.991        0.538        0.064       96.295       17.915        0.035      331.954        0.302      860.074
11/28/2013  04:02:00      -88.676      -29.484       -8.615       29.040       23.186       13.441      843.321      537.601      180.672        0.518        0.078       93.449       11.666        0.016      332.057        0.472      860.066
11/28/2013  04:03:00      -98.568      -38.679       -8.836       24.273       21.075       17.196      589.164      444.173      295.688        0.631        0.066      105.886       12.453        0.014      332.010        0.396      860.083
11/28/2013  04:04:00     -110.973      -19.964      -14.998       34.162       22.229       17.906     1167.025      494.120      320.640        0.746        0.099      112.755       13.812        0.015      331.945        0.287      860.090
11/28/2013  04:05:00     -107.311      -21.489       -3.593       31.015       26.471       23.307      961.926      700.717      543.211        0.710        0.110      109.442       19.484        0.032      331.984        0.351      860.083
11/28/2013  04:06:00      -85.107       -9.404        0.837       33.106       25.800       19.322     1096.038      665.652      373.346        0.473        0.107       85.625       17.624        0.042      332.045        0.452      860.070
11/28/2013  04:07:00     -111.197      -38.198       -7.981       26.555       32.100       18.675      705.151     1030.411      348.767        0.799        0.104      117.575       13.850        0.014      332.028        0.423      860.067
11/28/2013  04:08:00      -93.297      -51.271       -2.304       35.542       38.897       16.605     1263.210     1512.953      275.721        0.719        0.153      106.457       12.946        0.015      331.989        0.360      860.054
11/28/2013  04:09:00      -89.606      -12.946       -8.765       29.802       32.760       16.976      888.174     1073.208      288.178        0.526        0.112       90.536       14.199        0.025      331.996        0.371      860.040
11/28/2013  04:10:00      -85.178      -39.151       -7.494       32.741       22.786       15.478     1071.959      519.204      239.561        0.534        0.092       93.745        7.999        0.007      331.985        0.354      860.047
11/28/2013  04:11:00      -75.545      -39.505       -4.192       52.814       32.805       20.033     2789.294     1076.190      401.336        0.578        0.213       85.251       23.114        0.074      332.027        0.422      860.054
11/28/2013  04:12:00      -72.302      -39.850       -3.181       28.755       28.234       16.793      826.838      797.160      281.993        0.437        0.095       82.556       15.667        0.036      332.031        0.428      860.071
11/28/2013  04:13:00      -55.600      -29.138       -5.097       17.842       26.767       14.449      318.334      716.458      208.785        0.260        0.062       62.773        8.579        0.019      331.999        0.376      860.072
11/28/2013  04:14:00      -84.325      -22.500        2.626       19.033       20.457       12.746      362.259      418.472      162.457        0.428        0.047       87.275        9.031        0.011      332.016        0.404      860.067
11/28/2013  04:15:00      -79.006      -21.153      -14.533       19.228       22.425       14.023      369.728      502.866      196.650        0.398        0.053       81.788       10.200        0.016      331.958        0.309      860.060
11/28/2013  04:16:00      -75.529      -11.739      -11.454       20.795       17.198       12.005      432.444      295.783      144.111        0.342        0.044       76.435        7.323        0.009      331.977        0.339      860.066
11/28/2013  04:17:00      -59.648      -18.310       -5.946       19.583       16.640       13.932      383.484      276.903      194.108        0.239        0.043       62.395       13.770        0.049      332.011        0.398      860.058
11/28/2013  04:18:00      -95.834      -15.020       -7.713       23.707       20.464       12.966      562.015      418.787      168.123        0.531        0.057       97.004        9.593        0.010      332.008        0.392      860.064
11/28/2013  04:19:00      -60.783      -13.298       -5.564       18.232       16.424       12.072      332.401      269.760      145.723        0.232        0.037       62.221        8.907        0.020      332.012        0.399      860.078
11/28/2013  04:20:00      -79.158      -12.776      -10.559       17.143       16.451       11.392      293.878      270.628      129.767        0.362        0.035       80.182        9.311        0.013      332.027        0.425      860.099
11/28/2013  04:21:00      -79.127      -24.822       -8.291       21.754       10.612       10.813      473.226      112.614      116.910        0.382        0.035       82.929        7.436        0.008      332.064        0.486      860.116
11/28/2013  04:22:00      -57.244      -21.837       -5.728       15.978       14.558       10.025      255.286      211.948      100.491        0.218        0.028       61.268        5.936        0.009      332.071        0.496      860.123
11/28/2013  04:23:00      -71.229       -8.048       -8.662       11.317        8.942       10.033      128.078       79.965      100.662        0.276        0.015       71.682        5.370        0.006      332.055        0.470      860.130
11/28/2013  04:24:00      -45.478      -18.760       -9.576       11.679        7.297        6.335      136.398       53.244       40.137        0.137        0.011       49.196        6.202        0.016      332.124        0.582      860.132
11/28/2013  04:25:00      -21.821      -22.060       -2.936       11.252       10.182        5.534      126.619      103.669       30.621        0.062        0.013       31.029        3.423        0.012      332.191        0.693      860.134
11/28/2013  04:26:00      -30.990      -10.555       -8.659       10.018       11.628        5.665      100.360      135.208       32.091        0.071        0.013       32.739        3.397        0.011      332.228        0.753      860.146
11/28/2013  04:27:00      -39.204       -1.526       -5.182        7.627        6.010        5.695       58.168       36.121       32.438        0.085        0.006       39.234        4.779        0.015      332.273        0.827      860.165
11/28/2013  04:28:00      -36.320      -12.417       -4.916        8.294        7.397        7.869       68.799       54.720       61.922        0.084        0.009       38.384        3.384        0.008      332.271        0.825      860.189
11/28/2013  04:29:00      -38.558       -9.976       -4.139       13.372        6.861        6.788      178.798       47.079       46.075        0.094        0.014       39.828        5.407        0.018      332.240        0.774      860.203
11/28/2013  04:30:00      -46.774      -15.446       -2.573        7.237        7.657        4.350       52.377       58.634       18.918        0.128        0.006       49.258        2.734        0.003      332.189        0.693      860.213
11/28/2013  04:31:00      -44.667      -19.459        1.272       11.449       10.620        6.359      131.088      112.789       40.437        0.133        0.014       48.722        4.028        0.007      332.151        0.627      860.220
11/28/2013  04:32:00      -63.541      -24.435       -6.141       14.200       14.734       11.422      201.631      217.090      130.454        0.261        0.027       68.078        6.892        0.010      332.135        0.601      860.222
11/28/2013  04:33:00      -98.274      -33.042      -10.584       15.428       20.351       14.545      238.008      414.151      211.550        0.586        0.043      103.680        9.841        0.009      332.168        0.654      860.221
11/28/2013  04:34:00      -71.494      -45.180        2.273       39.132       27.774       16.398     1531.351      771.381      268.900        0.486        0.129       84.574       11.294        0.018      332.117        0.571      860.223
11/28/2013  04:35:00      -61.926      -35.737       -3.358       20.051       20.426       14.972      402.034      417.232      224.170        0.308        0.052       71.499        8.669        0.015      332.060        0.478      860.232
11/28/2013  04:36:00      -70.581       -2.972       -3.176       28.109       18.566       10.329      790.111      344.692      106.685        0.312        0.062       70.643       11.311        0.026      332.038        0.442      860.238
11/28/2013  04:37:00      -78.569       -3.052       -7.350       14.905       10.918        7.147      222.170      119.204       51.085        0.331        0.020       78.628        6.649        0.007      332.040        0.446      860.236
11/28/2013  04:38:00      -87.532       -1.142       -7.768       15.706       17.264       12.687      246.691      298.043      160.956        0.421        0.035       87.540       10.055        0.013      332.049        0.459      860.243
11/28/2013  04:39:00      -94.206      -10.617       -8.364       15.762       11.871        8.320      248.431      140.926       69.230        0.476        0.023       94.802        7.930        0.007      332.082        0.513      860.265
11/28/2013  04:40:00      -67.391      -23.263        3.863       22.552       20.543       13.414      508.582      422.028      179.926        0.310        0.056       71.293       13.552        0.036      331.989        0.362      860.281
11/28/2013  04:41:00      -85.638      -29.055       -1.008       21.004       15.762       12.178      441.164      248.443      148.316        0.451        0.042       90.432       11.056        0.015      332.020        0.410      860.315
11/28/2013  04:42:00      -39.064      -20.242        5.703       27.455       20.577       13.785      753.784      423.419      190.033        0.167        0.068       43.997       14.524        0.109      331.970        0.328      860.347
11/28/2013  04:43:00      -57.212      -21.048        0.253       18.523       14.208       10.679      343.115      201.869      114.048        0.219        0.033       60.961        8.277        0.018      331.934        0.269      860.378
11/28/2013  04:44:00      -53.284      -30.943        7.884       28.124       14.971       16.814      790.964      224.140      282.715        0.258        0.065       61.617       14.596        0.056      331.963        0.317      860.403
11/28/2013  04:45:00      -84.830      -75.292        3.261       55.835       37.800       26.976     3117.515     1428.808      727.705        0.907        0.264      113.424       25.256        0.050      332.055        0.468      860.408
11/28/2013  04:46:00     -119.645     -112.986       -7.806       37.980       41.834       25.896     1442.482     1750.062      670.606        1.550        0.193      164.562       17.889        0.012      332.027        0.424      860.421
11/28/2013  04:47:00     -110.705      -65.234       -2.469       54.578       44.917       28.185     2978.712     2017.529      794.374        1.115        0.290      128.496       23.031        0.032      332.062        0.482      860.421
11/28/2013  04:48:00     -114.019     -126.325       -3.864       59.098       49.887       35.426     3492.598     2488.736     1254.980        1.810        0.362      170.171       35.211        0.043      332.036        0.436      860.431
11/28/2013  04:49:00     -106.057      -94.783       -7.420       34.070       48.681       24.572     1160.751     2369.792      603.801        1.221        0.207      142.239       21.803        0.023      332.026        0.422      860.440
11/28/2013  04:50:00      -86.687     -111.211      -10.903       34.394       41.835       22.407     1182.936     1750.183      502.063        1.172        0.172      141.005       17.358        0.015      332.089        0.525      860.451
11/28/2013  04:51:00     -108.798      -99.318      -10.236       44.294       37.905       23.769     1961.943     1436.757      564.972        1.288        0.198      147.313       24.536        0.028      332.074        0.499      860.451
11/28/2013  04:52:00     -117.188      -83.098      -16.175       28.741       33.750       17.958      826.027     1139.094      322.480        1.159        0.114      143.660       13.880        0.009      332.056        0.470      860.452
11/28/2013  04:53:00     -108.483      -51.042       -9.902       29.755       47.950       12.471      885.353     2299.202      155.535        0.891        0.167      119.891       15.829        0.017      332.030        0.427      860.444
11/28/2013  04:54:00      -86.300       -8.045       -4.607       28.094       17.674       17.869      789.292      312.386      319.297        0.448        0.071       86.674       17.146        0.039      331.952        0.299      860.431
11/28/2013  04:55:00      -74.092       -5.090       -2.933       25.926       21.497       18.902      672.142      462.129      357.288        0.351        0.075       74.266       15.317        0.043      331.908        0.227      860.417
11/28/2013  04:56:00      -78.248        4.230       -4.107       39.774       23.865       19.880     1582.010      569.532      395.203        0.435        0.127       78.362       17.956        0.053      331.848        0.128      860.400
11/28/2013  04:57:00      -90.979        1.891       -8.428       25.671       20.148       15.808      659.010      405.958      249.896        0.483        0.066       90.999       15.861        0.030      331.819        0.081      860.400
11/28/2013  04:58:00      -64.366        9.148       -4.743       27.210       16.630       13.288      740.365      276.557      176.565        0.272        0.060       65.013        6.923        0.011      331.933        0.268      860.392
11/28/2013  04:59:00      -80.280      -11.252      -11.253       16.670       19.494       11.109      277.889      380.023      123.404        0.374        0.039       81.065        8.152        0.010      331.881        0.182      860.380
11/28/2013  05:00:00      -77.258      -40.840       -1.147       17.114       24.393       15.741      292.894      595.022      247.777        0.439        0.057       87.388        7.786        0.008      331.842        0.118      860.363
11/28/2013  05:01:00      -85.808      -41.349       -1.942       16.648       20.972       10.172      277.167      439.818      103.460        0.495        0.041       95.251        5.382        0.003      331.799        0.047      860.353
11/28/2013  05:02:00      -84.998      -37.890       -8.143       14.982       15.297       11.026      224.456      234.008      121.578        0.465        0.029       93.061        9.204        0.010      331.783        0.021      860.348
11/28/2013  05:03:00      -67.839      -34.296       -2.684       20.314       22.864       15.185      412.646      522.776      230.576        0.348        0.058       76.016       11.656        0.024      331.771        0.001      860.356
11/28/2013  05:04:00      -65.284      -15.249       -2.660       23.599       18.789       11.987      556.914      353.031      143.688        0.278        0.053       67.041        8.340        0.015      331.709       -0.099      860.363
11/28/2013  05:05:00      -67.219      -16.972        3.693       36.946       21.640       18.590     1365.008      468.304      345.597        0.350        0.109       69.328       18.374        0.070      331.683       -0.142      860.363
11/28/2013  05:06:00      -89.715        7.346       -4.087       33.240       29.305       19.840     1104.898      858.768      393.612        0.524        0.118       90.015       13.983        0.024      331.662       -0.177      860.352
11/28/2013  05:07:00     -103.958       -6.630       -5.442       38.625       31.485       18.681     1491.913      991.321      348.968        0.686        0.142      104.169       15.605        0.022      331.779        0.013      860.340
11/28/2013  05:08:00     -108.683       13.259      -13.961       37.280       29.521       19.569     1389.836      871.507      382.964        0.741        0.132      109.489       16.057        0.022      331.863        0.152      860.331
11/28/2013  05:09:00     -101.942       16.254       -8.155       43.673       30.401       23.201     1907.317      924.195      538.300        0.705        0.168      103.229       16.898        0.027      331.856        0.140      860.327
11/28/2013  05:10:00     -128.050       13.204      -13.932       39.727       39.110       19.615     1578.261     1529.599      384.749        1.013        0.175      128.729       16.587        0.017      331.857        0.143      860.325
11/28/2013  05:11:00     -103.708       17.513      -11.509       31.879       29.185       16.946     1016.252      851.741      287.171        0.667        0.108      105.176       12.318        0.014      331.890        0.196      860.328
11/28/2013  05:12:00     -122.709        0.293      -10.616       27.190       27.058       17.001      739.277      732.162      289.038        0.846        0.088      122.709        8.459        0.005      331.897        0.208      860.332
11/28/2013  05:13:00      -58.471      -24.064       -1.013       46.438       24.611       23.608     2156.480      605.712      557.340        0.366        0.166       63.230       27.184        0.185      331.900        0.212      860.338
11/28/2013  05:14:00      -27.028      -16.324        1.767       33.555       28.823       18.671     1125.918      830.753      348.609        0.165        0.115       31.576        9.992        0.100      331.876        0.175      860.343
11/28/2013  05:15:00      -34.200       -3.592      -10.604       23.491       18.615       11.464      551.816      346.505      131.432        0.116        0.051       34.388        8.946        0.068      331.918        0.241      860.359
11/28/2013  05:16:00      -22.974       -4.916       -9.718       14.394       11.260       11.433      207.177      126.782      130.704        0.056        0.023       23.494        7.788        0.110      332.002        0.382      860.362
11/28/2013  05:17:00      -50.491      -13.930       -6.593       19.752       14.085       14.606      390.127      198.395      213.341        0.179        0.040       52.378        6.277        0.014      331.981        0.348      860.365
11/28/2013  05:18:00      -62.531      -20.120      -12.669        9.621       13.697       11.883       92.572      187.620      141.200        0.245        0.021       65.689        4.318        0.004      332.078        0.507      860.367
11/28/2013  05:19:00      -56.253      -17.327      -13.391       19.689       18.952        9.835      387.662      359.175       96.719        0.224        0.042       58.862        7.319        0.015      332.106        0.553      860.378
11/28/2013  05:20:00      -63.453      -17.165       -6.844        8.417       13.743        9.956       70.840      188.863       99.126        0.236        0.018       65.733        7.718        0.014      332.014        0.402      860.391
11/28/2013  05:21:00      -60.940      -18.884       -8.761       14.541       15.689       10.441      211.430      246.158      109.012        0.236        0.028       63.798        9.434        0.022      332.051        0.465      860.400
11/28/2013  05:22:00      -48.202      -12.092      -11.692       12.750       16.669       10.960      162.569      277.848      120.129        0.158        0.028       49.696        7.278        0.021      332.107        0.554      860.413
11/28/2013  05:23:00      -49.977      -34.274      -13.856       12.832       13.679       11.204      164.670      187.120      125.538        0.217        0.024       60.601        6.803        0.013      332.037        0.440      860.423
11/28/2013  05:24:00      -60.396      -28.419       -3.518       20.734       12.959       11.113      429.902      167.945      123.509        0.259        0.036       66.748        5.024        0.006      331.972        0.333      860.431
11/28/2013  05:25:00      -68.041      -11.762       -8.896       10.313       11.311        7.337      106.360      127.933       53.835        0.257        0.014       69.051        5.086        0.005      331.903        0.219      860.447
11/28/2013  05:26:00      -60.628      -14.970      -10.035        8.998        9.802        7.844       80.957       96.087       61.521        0.212        0.012       62.449        6.300        0.010      331.908        0.225      860.459
11/28/2013  05:27:00      -34.947      -12.433        5.108       17.765       10.306       10.007      315.579      106.207      100.145        0.096        0.026       37.093        9.075        0.060      331.934        0.270      860.474
11/28/2013  05:28:00      -24.215      -17.036       -2.174        6.418        7.866        9.764       41.196       61.877       95.338        0.054        0.010       29.607        6.112        0.043      332.042        0.449      860.486
11/28/2013  05:29:00      -17.939       -8.062       -0.187        8.107        9.138        5.844       65.721       83.495       34.147        0.029        0.009       19.667        4.364        0.049      332.130        0.593      860.498
11/28/2013  05:30:00      -30.806      -10.967       -2.890        8.453        9.243        4.848       71.459       85.441       23.499        0.063        0.009       32.700        3.595        0.012      332.088        0.524      860.516
11/28/2013  05:31:00       -8.175      -26.943       -1.086       10.279       12.303        6.118      105.648      151.367       37.431        0.054        0.015       28.156        3.932        0.020      332.293        0.862      860.529
11/28/2013  05:32:00       13.241      -57.851       -3.268       18.046       14.568       11.877      325.671      212.230      141.072        0.211        0.034       59.347        8.991        0.023      332.464        1.142      860.545
11/28/2013  05:33:00      -26.569      -37.264       -6.360       20.144       20.444       15.104      405.766      417.945      228.128        0.159        0.053       45.765       16.996        0.138      332.325        0.914      860.561
11/28/2013  05:34:00      -31.438      -17.262       -5.655       11.978        7.603        6.143      143.465       57.803       37.738        0.078        0.012       35.865        4.561        0.016      332.246        0.786      860.575
11/28/2013  05:35:00      -28.259      -11.347        9.510       11.619       19.042       10.016      135.008      362.595      100.321        0.081        0.030       30.452       11.229        0.136      332.345        0.946      860.582
11/28/2013  05:36:00      -33.231      -14.223       -1.170       12.762       11.793       10.372      162.865      139.068      107.574        0.086        0.020       36.147        9.229        0.065      332.351        0.957      860.581
11/28/2013  05:37:00      -28.489        7.610       -3.802       12.641        7.262        7.276      159.790       52.733       52.934        0.057        0.013       29.488        3.482        0.014      332.331        0.923      860.584
11/28/2013  05:38:00      -20.336       -1.268       -7.206        6.642        4.687        5.661       44.121       21.972       32.047        0.028        0.005       20.376        4.083        0.040      332.326        0.915      860.585
11/28/2013  05:39:00       -7.658        8.782       10.082        5.898        6.022        5.926       34.790       36.261       35.123        0.017        0.005       11.652        3.248        0.078      332.394        1.026      860.581
11/28/2013  05:40:00       -5.086       15.451        4.701        9.154        7.791        5.552       83.795       60.697       30.823        0.023        0.009       16.267        3.983        0.060      332.316        0.898      860.568
11/28/2013  05:41:00      -37.464       18.324        1.068       17.069        9.804        9.220      291.336       96.122       85.009        0.111        0.024       41.705        9.190        0.049      332.285        0.848      860.551
11/28/2013  05:42:00      -45.158        9.202       -3.492       13.663       11.385        8.021      186.681      129.607       64.336        0.126        0.019       46.086        5.467        0.014      332.260        0.808      860.545
11/28/2013  05:43:00      -82.085       -2.904       -9.425       12.568       15.830        8.497      157.953      250.586       72.194        0.366        0.024       82.136        6.205        0.006      332.180        0.676      860.546
11/28/2013  05:44:00      -66.060      -13.294       -5.476       17.581       14.542       12.674      309.099      211.463      160.629        0.263        0.034       67.384       12.170        0.033      332.138        0.606      860.550
11/28/2013  05:45:00      -44.228       -8.314       -4.967       14.936       13.863       14.112      223.073      192.197      199.134        0.133        0.031       45.002       12.220        0.074      332.099        0.542      860.563
11/28/2013  05:46:00      -30.276      -20.169       -4.064       16.043       11.770        7.819      257.372      138.542       61.143        0.090        0.023       36.379        2.486        0.005      332.139        0.609      860.573
11/28/2013  05:47:00      -58.076      -13.665       -6.007       12.503       11.232        8.975      156.327      126.147       80.549        0.198        0.018       59.661        7.825        0.017      332.040        0.446      860.589
11/28/2013  05:48:00      -56.612      -11.453       -4.910       12.105        7.555        5.003      146.540       57.083       25.028        0.179        0.011       57.759        2.176        0.001      332.042        0.450      860.611
11/28/2013  05:49:00      -34.095      -10.089       -3.945       10.282        9.132        6.881      105.718       83.401       47.346        0.076        0.012       35.557        5.390        0.023      332.090        0.527      860.633
11/28/2013  05:50:00      -31.509       -4.499       -2.708        5.901        8.996        8.911       34.825       80.930       79.412        0.061        0.010       31.829        4.913        0.024      332.143        0.612      860.647
11/28/2013  05:51:00      -28.800       10.923       10.655        7.262        6.747        7.978       52.731       45.524       63.656        0.061        0.008       30.801        2.971        0.009      332.198        0.707      860.662
11/28/2013  05:52:00      -15.273       12.121        9.373        8.990        6.674        7.912       80.813       44.545       62.602        0.033        0.009       19.498        3.795        0.038      332.250        0.791      860.669
11/28/2013  05:53:00      -11.481       25.820       -4.347       10.579        8.073        8.287      111.906       65.166       68.679        0.053        0.012       28.257        3.829        0.018      332.224        0.748      860.657
11/28/2013  05:54:00       -2.846       16.712        1.487        7.225        7.305        8.555       52.208       53.370       73.186        0.023        0.009       16.953        6.152        0.132      332.232        0.759      860.646
11/28/2013  05:55:00        6.395       38.823       -7.989        7.439        8.749        5.007       55.332       76.538       25.065        0.088        0.008       39.346        4.193        0.011      332.160        0.639      860.640
11/28/2013  05:56:00        2.385       11.945       -0.230        6.988        9.238        5.096       48.830       85.344       25.966        0.015        0.008       12.181        3.702        0.092      332.152        0.627      860.639
11/28/2013  05:57:00       21.830       21.723        1.242       13.204       15.601        5.755      174.358      243.382       33.119        0.070        0.023       30.796        3.454        0.013      332.216        0.735      860.642
11/28/2013  05:58:00       24.883       32.451       -3.501        9.736       10.439        7.172       94.785      108.977       51.442        0.097        0.013       40.893        5.720        0.020      332.249        0.789      860.650
11/28/2013  05:59:00       26.883       44.634       -1.866        8.756       14.313       10.259       76.664      204.862      105.239        0.155        0.019       52.105        8.939        0.029      332.229        0.756      860.660
11/28/2013  06:00:00       36.631       36.902        0.262       13.606       15.452       10.706      185.114      238.761      114.616        0.162        0.027       51.996        9.859        0.036      332.208        0.721      860.658
11/28/2013  06:01:00       40.486       31.694        1.118       15.075       24.899       15.479      227.247      619.974      239.606        0.187        0.054       51.417       12.363        0.058      332.140        0.610      860.670
11/28/2013  06:02:00       36.041       34.370       -4.614       26.349       23.283       10.840      694.279      542.105      117.503        0.193        0.068       49.802       10.953        0.048      332.136        0.600      860.671
11/28/2013  06:03:00       19.359       37.753       -1.955       19.107       17.037       16.108      365.085      290.245      259.479        0.136        0.046       42.427       13.689        0.104      332.146        0.619      860.664
11/28/2013  06:04:00       19.504       33.397        0.344       17.427       18.517       13.732      303.691      342.890      188.559        0.117        0.042       38.675       12.883        0.111      332.198        0.705      860.659
11/28/2013  06:05:00       15.932       28.380       -1.197       10.148       17.572        9.651      102.979      308.761       93.136        0.078        0.025       32.546        7.762        0.057      332.198        0.705      860.662
11/28/2013  06:06:00       21.533       18.180        2.321        7.561        6.686        9.144       57.175       44.707       83.609        0.049        0.009       28.181        3.913        0.019      332.252        0.793      860.667
11/28/2013  06:07:00       12.070        7.412        0.831        8.731        7.934        9.178       76.228       62.946       84.240        0.021        0.011       14.164        7.334        0.268      332.289        0.852      860.666
11/28/2013  06:08:00       20.536        8.984       -2.164        9.823        6.955        5.330       96.490       48.370       28.409        0.034        0.009       22.416        5.190        0.054      332.304        0.877      860.673
11/28/2013  06:09:00        5.840        8.810        3.226        8.027        8.046        5.082       64.430       64.739       25.830        0.014        0.008       10.570        5.288        0.250      332.317        0.900      860.685
11/28/2013  06:10:00       12.287       22.844        1.424        8.488        6.064        6.245       72.051       36.770       39.004        0.041        0.007       25.938        3.965        0.023      332.317        0.902      860.690
11/28/2013  06:11:00      -19.992       -7.256       -2.057       13.463       17.163        5.749      181.239      294.579       33.057        0.048        0.025       21.268        7.015        0.109      332.292        0.858      860.690
11/28/2013  06:12:00      -33.569      -14.101       -2.556        6.390        9.773        7.726       40.833       95.502       59.691        0.076        0.010       36.411        3.479        0.009      332.162        0.645      860.716
11/28/2013  06:13:00      -24.178       -6.100       -1.560        5.371        5.650        4.757       28.846       31.928       22.633        0.035        0.004       24.935        2.395        0.009      332.171        0.661      860.750
11/28/2013  06:14:00      -32.570       -1.189        0.669        7.844        5.171        6.028       61.532       26.737       36.334        0.059        0.006       32.592        1.620        0.002      332.217        0.738      860.760
11/28/2013  06:15:00      -18.962        4.162        0.890       10.352        7.915        6.184      107.165       62.654       38.237        0.029        0.010       19.413        4.002        0.042      332.201        0.713      860.773
11/28/2013  06:16:00      -21.942       -0.223       -0.417        6.628        4.353        4.408       43.932       18.951       19.429        0.028        0.004       21.944        2.251        0.011      332.258        0.805      860.794
11/28/2013  06:17:00      -29.843       -7.288        1.557        6.835        6.665        5.755       46.716       44.427       33.121        0.054        0.006       30.719        2.089        0.005      332.309        0.886      860.815
11/28/2013  06:18:00      -32.598       -5.079        0.169        7.666        5.960        7.419       58.766       35.518       55.043        0.062        0.007       32.991        3.741        0.013      332.291        0.856      860.827
11/28/2013  06:19:00      -34.235       -3.442       -3.719        9.173        6.964        7.054       84.137       48.501       49.757        0.069        0.009       34.407        4.416        0.016      332.279        0.837      860.833
11/28/2013  06:20:00      -34.923        5.282       -2.154       11.741        9.503        5.152      137.858       90.315       26.538        0.075        0.013       35.320        3.674        0.011      332.299        0.869      860.819
11/28/2013  06:21:00      -48.236       13.940       -8.313        7.253        8.699        7.309       52.600       75.677       53.428        0.139        0.009       50.210        5.524        0.012      332.302        0.874      860.825
11/28/2013  06:22:00      -54.418        4.552       -7.941        8.510        6.838        7.042       72.416       46.761       49.584        0.161        0.008       54.609        4.423        0.007      332.323        0.911      860.822
11/28/2013  06:23:00      -69.577       12.658       -8.393       10.001        9.587        9.064      100.013       91.907       82.156        0.267        0.014       70.719        3.341        0.002      332.304        0.878      860.821
11/28/2013  06:24:00      -69.686       -0.943       -7.995       10.561       11.645        7.017      111.542      135.598       49.237        0.261        0.015       69.692        2.215        0.001      332.168        0.655      860.811
11/28/2013  06:25:00      -71.382        1.311      -10.273       11.394       12.148        7.924      129.827      147.564       62.789        0.277        0.017       71.394        4.402        0.004      332.073        0.500      860.820
11/28/2013  06:26:00      -53.770       -7.069       -8.911       16.580       13.054        8.131      274.896      170.416       66.116        0.177        0.026       54.233        6.948        0.016      332.027        0.424      860.827
11/28/2013  06:27:00      -49.097      -13.941      -10.561       13.886       13.505        9.301      192.823      182.381       86.508        0.159        0.023       51.038        8.769        0.030      332.077        0.506      860.839
11/28/2013  06:28:00      -28.812       -5.400      -14.915       15.271       12.192       10.559      233.212      148.644      111.484        0.079        0.025       29.314        7.099        0.059      332.133        0.596      860.831
11/28/2013  06:29:00      -45.365       -2.623      -10.077       18.096       13.391       12.482      327.468      179.317      155.801        0.141        0.033       45.440        6.137        0.018      332.123        0.581      860.827
11/28/2013  06:30:00      -59.725        2.638       -9.409       16.715       16.394       12.388      279.405      268.757      153.468        0.218        0.035       59.784        9.636        0.026      332.086        0.521      860.838
11/28/2013  06:31:00      -47.076      -14.339       -8.645       16.217       17.420        9.554      262.990      303.473       91.269        0.158        0.033       49.211        6.597        0.018      332.054        0.468      860.851
11/28/2013  06:32:00      -50.292      -14.116        1.385       20.757       30.125       15.440      430.869      907.506      238.404        0.215        0.079       52.236        9.926        0.036      332.042        0.448      860.865
11/28/2013  06:33:00      -45.209        7.341       -3.414       34.151       28.316       16.777     1166.272      801.782      281.463        0.218        0.112       45.801       14.273        0.097      332.011        0.398      860.870
11/28/2013  06:34:00      -36.811       -2.074       -7.897       21.405       24.083       18.573      458.189      579.998      344.961        0.140        0.069       36.869       10.477        0.081      332.076        0.506      860.873
11/28/2013  06:35:00      -64.690      -25.776       -6.630       21.216       21.391       12.714      450.115      457.572      161.641        0.298        0.053       69.636       10.248        0.022      332.110        0.559      860.886
11/28/2013  06:36:00      -50.112      -31.453       -6.215       24.645       17.539       11.411      607.392      307.612      130.207        0.229        0.052       59.165        4.824        0.007      332.109        0.558      860.907
11/28/2013  06:37:00      -64.270      -44.074       -0.824       45.425       22.834       16.378     2063.460      521.383      268.247        0.446        0.143       77.930       19.978        0.066      332.073        0.500      860.921
11/28/2013  06:38:00      -86.578      -30.869       -4.253       17.817       25.955       13.779      317.461      673.675      189.857        0.482        0.059       91.917        6.859        0.006      332.023        0.417      860.931
11/28/2013  06:39:00      -73.051      -11.715       -5.944       18.728       15.955       12.023      350.721      254.563      144.564        0.313        0.037       73.985        6.104        0.007      332.040        0.445      860.935
11/28/2013  06:40:00      -75.236      -10.990       -2.838       13.569       11.453       10.921      184.126      131.163      119.273        0.311        0.022       76.034        8.508        0.013      331.983        0.349      860.932
11/28/2013  06:41:00      -85.145       -3.322       -7.631       21.595       11.679       11.878      466.362      136.409      141.078        0.403        0.037       85.210        9.665        0.013      332.033        0.432      860.936
11/28/2013  06:42:00      -79.626      -11.641       -8.808       20.411       17.667       15.483      416.629      312.134      239.709        0.376        0.048       80.472       15.161        0.035      332.069        0.493      860.946
11/28/2013  06:43:00      -86.488       -1.531      -10.732       11.122       10.891        9.217      123.692      118.606       84.952        0.396        0.016       86.502        2.170        0.001      332.077        0.507      860.975
11/28/2013  06:44:00      -65.934      -10.703       -4.521       20.889       19.060       10.644      436.362      363.265      113.285        0.270        0.046       66.797       12.120        0.033      332.080        0.510      860.998
11/28/2013  06:45:00      -63.108       -2.700       -2.394       18.953       15.886       11.823      359.207      252.359      139.794        0.237        0.038       63.165        8.817        0.019      332.111        0.562      861.019
11/28/2013  06:46:00      -51.919       -2.815       -4.080       29.070       14.851       13.015      845.056      220.563      169.399        0.198        0.062       51.995       16.865        0.105      332.105        0.552      861.037
11/28/2013  06:47:00      -71.159       -8.219       -4.536       23.386       12.970       12.152      546.901      168.231      147.669        0.301        0.043       71.632        9.284        0.017      332.147        0.621      861.040
11/28/2013  06:48:00      -74.308       -9.115       -3.413       21.031       14.453       11.572      442.296      208.898      133.914        0.320        0.039       74.865       10.352        0.019      332.204        0.715      861.041
11/28/2013  06:49:00      -66.300      -17.197       -3.146       15.324       12.950        9.241      234.832      167.708       85.388        0.259        0.024       68.494        7.904        0.013      332.195        0.700      861.046
11/28/2013  06:50:00      -70.600       -8.270       -7.124       11.558       12.372        7.352      133.578      153.066       54.058        0.272        0.017       71.083        4.403        0.004      332.166        0.653      861.049
11/28/2013  06:51:00      -59.538       -8.106       -5.230       23.937       14.244        9.164      572.973      202.896       83.983        0.225        0.043       60.087        9.979        0.028      332.152        0.630      861.054
11/28/2013  06:52:00      -67.518       -4.755       -5.909       22.427        9.333       11.476      502.967       87.102      131.707        0.267        0.036       67.686       12.380        0.033      332.127        0.587      861.056
11/28/2013  06:53:00      -59.788       -2.831      -12.635        8.797        9.909        6.073       77.383       98.184       36.878        0.198        0.011       59.855        3.447        0.003      332.178        0.673      861.056
11/28/2013  06:54:00      -32.399      -15.819       -3.525        8.488       10.426        6.106       72.039      108.696       37.277        0.077        0.011       36.054        5.127        0.020      332.259        0.806      861.060
11/28/2013  06:55:00        7.539       -8.618       -5.805        8.685        9.862        7.039       75.437       97.250       49.550        0.019        0.011       11.450        3.054        0.071      332.419        1.070      861.064
11/28/2013  06:56:00       20.427       -6.844        3.125       12.515       12.852       10.255      156.616      165.167      105.155        0.045        0.021       21.543        9.296        0.186      332.458        1.132      861.067
11/28/2013  06:57:00       26.052        3.547        4.192       10.838       15.372       11.308      117.466      236.284      127.868        0.060        0.024       26.293        8.044        0.094      332.509        1.217      861.071
11/28/2013  06:58:00       12.659       -7.096        7.273       11.577       18.231       10.253      134.020      332.359      105.128        0.042        0.029       14.512        6.514        0.201      332.504        1.209      861.073
11/28/2013  06:59:00      -17.334      -14.656       -2.454       17.736       10.948       10.704      314.579      119.853      114.571        0.054        0.027       22.700        4.830        0.045      332.192        0.694      861.076
11/28/2013  07:00:00      -75.193      -24.453       -6.026       20.436       13.814        9.733      417.638      190.840       94.732        0.350        0.035       79.069       10.095        0.016      331.956        0.304      861.084
11/28/2013  07:01:00      -66.204      -35.882      -11.996       13.216       11.953        8.250      174.650      142.862       68.055        0.310        0.019       75.302        3.772        0.003      331.938        0.275      861.101
11/28/2013  07:02:00      -81.159      -25.737      -10.541       23.111       11.783       10.289      534.126      138.849      105.869        0.407        0.039       85.142        8.708        0.010      331.898        0.209      861.115
11/28/2013  07:03:00      -85.244      -27.051      -11.314       18.591       13.056       11.080      345.614      170.457      122.771        0.438        0.032       89.434        7.858        0.008      331.925        0.255      861.131
11/28/2013  07:04:00      -96.434      -18.435       -8.477       18.844       18.059       12.128      355.096      326.118      147.078        0.527        0.041       98.181        9.036        0.008      331.970        0.328      861.140
11/28/2013  07:05:00      -84.687      -24.125       -3.158       21.330       12.524       12.110      454.979      156.853      146.657        0.426        0.038       88.056       11.547        0.017      332.023        0.417      861.145
11/28/2013  07:06:00     -105.994      -35.108       -4.298       23.711       20.832       14.591      562.199      433.972      212.910        0.685        0.060      111.657       14.230        0.016      331.984        0.353      861.153
11/28/2013  07:07:00      -83.105      -39.479      -10.021       13.892       18.016       11.744      192.988      324.574      137.924        0.461        0.033       92.005       10.787        0.014      331.981        0.347      861.160
11/28/2013  07:08:00      -80.962      -15.145       -9.006       18.724       20.779       12.462      350.606      431.785      155.291        0.390        0.047       82.366       10.451        0.016      331.943        0.285      861.179
11/28/2013  07:09:00      -79.576      -20.361       -4.710       14.508       13.449        9.500      210.475      180.868       90.256        0.363        0.024       82.139        6.195        0.006      331.949        0.294      861.190
11/28/2013  07:10:00      -72.174      -20.196       -2.764       16.208       17.225        9.766      262.695      296.712       95.368        0.314        0.033       74.946        6.524        0.008      331.975        0.336      861.206
11/28/2013  07:11:00      -68.881       -4.787       -7.789       10.063        9.139        9.374      101.270       83.529       87.873        0.255        0.014       69.047        4.892        0.005      331.977        0.340      861.218
11/28/2013  07:12:00      -62.002       -6.862       -5.474       10.503       10.873        9.145      110.308      118.227       83.632        0.212        0.016       62.380        5.970        0.009      332.031        0.430      861.239
11/28/2013  07:13:00      -50.158       -0.004       -5.527       12.173       14.702        9.109      148.174      216.156       82.973        0.150        0.022       50.158        5.626        0.013      331.977        0.342      861.250
11/28/2013  07:14:00      -51.386       -7.429       -3.272       11.081        9.208        9.355      122.797       84.796       87.525        0.150        0.015       51.920        7.142        0.019      331.994        0.370      861.263
11/28/2013  07:15:00      -55.158       -8.106       -2.712       15.359       10.218        9.243      235.913      104.406       85.432        0.177        0.021       55.750        9.220        0.027      332.024        0.419      861.267
11/28/2013  07:16:00      -64.060      -19.537       -5.134       10.792       10.671        6.970      116.463      113.875       48.578        0.240        0.014       66.973        5.736        0.007      332.063        0.483      861.259
11/28/2013  07:17:00      -72.888       -4.428      -10.496       17.998       19.966       12.698      323.932      398.655      161.229        0.316        0.044       73.023       10.965        0.023      332.016        0.406      861.243
11/28/2013  07:18:00      -97.096        4.509      -13.609       26.815       29.473       16.966      719.042      868.634      287.839        0.575        0.094       97.201        8.541        0.008      331.922        0.249      861.229
11/28/2013  07:19:00      -84.337       16.195      -16.582       38.655       28.550       20.203     1494.193      815.115      408.149        0.518        0.136       85.878       20.128        0.055      331.825        0.089      861.200
11/28/2013  07:20:00      -84.367       21.964      -14.847       30.414       31.247       20.517      925.018      976.397      420.936        0.507        0.116       87.179        9.381        0.012      331.767       -0.006      861.179
11/28/2013  07:21:00      -66.706       -0.731      -10.909       27.477       29.928       21.559      755.008      895.706      464.799        0.334        0.106       66.710       12.866        0.037      331.810        0.064      861.175
11/28/2013  07:22:00      -76.161      -13.356      -12.732       27.211       22.439       18.038      740.436      503.506      325.382        0.385        0.078       77.324       14.621        0.036      331.779        0.013      861.178
11/28/2013  07:23:00      -64.607      -15.742       -8.989       35.336       20.246       17.540     1248.628      409.900      307.668        0.323        0.098       66.498       13.345        0.040      331.713       -0.096      861.192
11/28/2013  07:24:00      -40.524      -16.809       -7.686       19.016       18.064       13.262      361.619      326.303      175.869        0.142        0.043       43.872        5.697        0.017      331.729       -0.066      861.207
11/28/2013  07:25:00      -75.970      -18.842       -6.057       28.320       16.926       12.416      802.045      286.473      154.152        0.370        0.062       78.271       11.618        0.022      331.696       -0.123      861.223
11/28/2013  07:26:00      -53.247      -19.859       -7.413       20.016       14.839       12.585      400.642      220.186      158.392        0.203        0.039       56.830        5.742        0.010      331.673       -0.157      861.242
11/28/2013  07:27:00      -64.733      -16.617       -7.659       17.633       14.320       10.679      310.920      205.068      114.036        0.258        0.032       66.831        7.279        0.012      331.702       -0.112      861.256
11/28/2013  07:28:00      -82.920      -18.778       -8.298       22.989       23.252       15.454      528.474      540.635      238.834        0.430        0.065       85.019        9.841        0.013      331.676       -0.154      861.266
11/28/2013  07:29:00      -55.021      -28.614       -8.829       22.833       15.497       11.504      521.338      240.151      132.340        0.241        0.045       62.017        9.591        0.024      331.753       -0.028      861.275
11/28/2013  07:30:00      -41.648      -25.404       -2.387       33.063       15.889       14.540     1093.177      252.470      211.408        0.197        0.078       48.784        7.635        0.024      331.858        0.144      861.298
11/28/2013  07:31:00      -43.611      -16.510       -3.938       34.934       22.091       12.560     1220.390      488.003      157.753        0.203        0.093       46.631       14.755        0.100      331.876        0.173      861.321
11/28/2013  07:32:00      -63.859      -19.744       -3.910       23.926       17.506       13.533      572.447      306.475      183.141        0.277        0.053       66.842       12.796        0.037      331.897        0.207      861.337
11/28/2013  07:33:00      -40.857      -21.878       -5.010       15.117       13.376       14.450      228.527      178.906      208.789        0.139        0.031       46.346        8.830        0.036      331.946        0.290      861.346
11/28/2013  07:34:00      -31.840      -12.127        7.243       12.051       14.767       12.423      145.219      218.075      154.319        0.087        0.026       34.071        9.727        0.082      331.952        0.299      861.352
11/28/2013  07:35:00      -29.723       -1.901       -3.383        9.232        7.995        6.404       85.238       63.918       41.007        0.054        0.010       29.784        5.326        0.032      332.035        0.436      861.347
11/28/2013  07:36:00      -54.948       -0.971       -6.977       11.180        8.500        8.825      124.984       72.244       77.873        0.167        0.014       54.956        6.360        0.013      332.049        0.459      861.335
11/28/2013  07:37:00      -76.859        1.478       -8.437       11.325        8.917        7.611      128.249       79.511       57.934        0.312        0.013       76.873        5.318        0.005      332.074        0.501      861.327
11/28/2013  07:38:00      -68.671       -2.418       -7.040       13.467       13.511        8.607      181.361      182.541       74.085        0.260        0.022       68.714        5.546        0.007      332.030        0.428      861.318
11/28/2013  07:39:00      -78.727       -2.201      -10.060       23.985       16.168       11.614      575.296      261.398      134.884        0.364        0.049       78.758       11.075        0.020      332.009        0.393      861.322
11/28/2013  07:40:00      -64.259       -6.485       -6.765       29.203       16.706       11.756      852.796      279.102      138.213        0.274        0.064       64.586        8.837        0.019      331.975        0.338      861.333
11/28/2013  07:41:00      -39.922       -8.472       -6.448       26.951       16.810       11.951      726.356      282.561      142.816        0.143        0.058       40.811       10.518        0.066      331.981        0.346      861.349
11/28/2013  07:42:00      -39.816       -6.424       -3.290       12.420       11.523        9.271      154.246      132.788       85.948        0.101        0.019       40.331        8.061        0.040      331.980        0.346      861.377
11/28/2013  07:43:00      -11.742      -14.584       -3.786       11.440        4.059        4.006      130.879       16.473       16.046        0.026        0.008       18.723        4.226        0.051      332.043        0.450      861.398
11/28/2013  07:44:00       -4.325        4.088       11.293        5.023       14.618        9.356       25.235      213.688       87.543        0.024        0.016        5.952        9.807        2.716      332.153        0.630      861.418
11/28/2013  07:45:00        3.478       17.327       29.221       12.371       14.709        7.578      153.030      216.354       57.430        0.080        0.021       17.673        6.131        0.120      332.291        0.858      861.438
11/28/2013  07:46:00       -4.068       10.696       27.718        5.588       13.756        8.827       31.222      189.220       77.908        0.060        0.015       11.443        9.007        0.620      332.341        0.941      861.447
11/28/2013  07:47:00        9.558       15.628       21.057       16.989       11.435       10.411      288.611      130.755      108.383        0.065        0.026       18.319        9.324        0.259      332.353        0.960      861.452
11/28/2013  07:48:00       11.308        1.786       10.447       19.116        7.941        8.105      365.412       63.055       65.695        0.037        0.025       11.449        8.162        0.508      332.375        0.997      861.451
11/28/2013  07:49:00       -7.011       -7.121        4.890       18.191        8.687        8.107      330.928       75.458       65.727        0.030        0.024        9.993        3.677        0.135      332.279        0.837      861.447
11/28/2013  07:50:00      -36.757       -9.474        2.731       12.792        7.528        5.776      163.635       56.665       33.358        0.085        0.013       37.958        4.814        0.016      332.155        0.634      861.450
11/28/2013  07:51:00      -42.764      -11.073       -9.977        5.491        7.552        4.948       30.153       57.036       24.478        0.108        0.006       44.175        3.521        0.006      332.114        0.566      861.445
11/28/2013  07:52:00      -48.033      -24.320       -1.499       14.529        7.861        8.226      211.104       61.794       67.663        0.162        0.017       53.839        6.577        0.015      332.175        0.668      861.440
11/28/2013  07:53:00      -23.407      -23.138        4.257       25.418       13.394       14.285      646.087      179.394      204.056        0.107        0.051       32.913       15.606        0.225      332.161        0.645      861.438
11/28/2013  07:54:00      -33.047      -15.148        1.652       19.874       10.574       10.182      394.993      111.816      103.682        0.097        0.031       36.353        8.609        0.056      332.097        0.537      861.455
11/28/2013  07:55:00       -0.996      -10.837       -2.058        5.263        7.503        6.428       27.697       56.298       41.319        0.012        0.006       10.883        3.858        0.126      332.237        0.768      861.491
11/28/2013  07:56:00       -0.278       18.607       16.374        8.576       21.258       19.127       73.549      451.894      365.847        0.075        0.045       18.609       18.674        1.007      332.366        0.981      861.522
11/28/2013  07:57:00        6.241       41.682       48.130       10.324       17.566        9.852      106.588      308.577       97.056        0.230        0.026       42.147        8.387        0.040      332.422        1.075      861.555
11/28/2013  07:58:00       24.649       63.047       58.013       18.507       18.772       11.693      342.492      352.404      136.737        0.439        0.042       67.694        9.878        0.021      332.415        1.063      861.576
11/28/2013  07:59:00       10.228       26.226       46.554       19.952       28.246       15.412      398.084      797.855      237.534        0.220        0.072       28.150       16.976        0.364      332.489        1.185      861.583
11/28/2013  08:00:00        8.772        0.811       22.752       17.318       44.555       24.022      299.905     1985.136      577.071        0.173        0.143        8.810       28.628       10.560      332.564        1.309      861.563
11/28/2013  08:01:00       -3.304      -24.777       -4.624       21.724       22.574       12.323      471.950      509.586      151.846        0.089        0.057       24.997        5.952        0.057      332.550        1.286      861.559
11/28/2013  08:02:00      -42.540      -18.609       -6.972       13.670       14.541       11.439      186.859      211.439      130.858        0.137        0.026       46.432        7.216        0.024      332.449        1.119      861.553
11/28/2013  08:03:00      -51.260       -2.792       -5.517       11.861        9.790        9.036      140.694       95.845       81.648        0.149        0.016       51.336        5.290        0.011      332.371        0.988      861.542
11/28/2013  08:04:00      -66.229       -5.124       -9.862       16.863       15.904       11.544      284.368      252.944      133.262        0.259        0.034       66.427        7.840        0.014      332.338        0.937      861.554
11/28/2013  08:05:00      -25.467       -4.803       -5.821       16.106        9.838        5.407      259.389       96.789       29.236        0.055        0.019       25.916        7.178        0.077      332.453        1.127      861.566
11/28/2013  08:06:00        5.945       -1.836       16.142        9.718        5.540        7.008       94.441       30.691       49.108        0.024        0.009        6.222        4.346        0.488      332.845        1.774      861.585
11/28/2013  08:07:00       19.902       13.166       17.446       11.118        9.386        6.555      123.600       88.090       42.965        0.056        0.013       23.863        4.913        0.042      332.672        1.486      861.618
11/28/2013  08:08:00        8.400       29.279        2.031       10.486       17.391       13.337      109.953      302.452      177.880        0.076        0.030       30.460        8.533        0.078      332.757        1.627      861.644
11/28/2013  08:09:00       11.485       19.956        5.072       11.014       18.528       15.796      121.305      343.301      249.498        0.063        0.036       23.025       13.752        0.357      332.832        1.751      861.664
11/28/2013  08:10:00       24.290       12.683       14.391       10.856        8.388       12.788      117.859       70.361      163.523        0.065        0.018       27.402        6.572        0.058      332.865        1.807      861.675
11/28/2013  08:11:00       30.017       28.001        2.716       19.282        8.103       16.143      371.784       65.657      260.590        0.120        0.035       41.050        8.246        0.040      332.803        1.706      861.676
11/28/2013  08:12:00       30.860       17.165        9.211       24.059       19.627       22.040      578.818      385.228      485.782        0.139        0.072       35.313        9.771        0.077      332.851        1.781      861.684
11/28/2013  08:13:00       48.776       38.738        6.926       37.711       22.065       19.796     1422.121      486.870      391.876        0.311        0.115       62.287       14.059        0.051      332.788        1.680      861.688
11/28/2013  08:14:00       63.450       54.920       29.556       28.293       27.671       27.777      800.469      765.695      771.574        0.513        0.117       83.917       14.808        0.031      332.709        1.547      861.710
11/28/2013  08:15:00       52.162       44.159       25.441       33.208       23.655       16.175     1102.746      559.547      261.626        0.362        0.096       68.344       10.399        0.023      332.702        1.537      861.727
11/28/2013  08:16:00       66.237       30.965       13.213       27.596       28.226       24.223      761.530      796.728      586.775        0.383        0.107       73.118       15.697        0.046      332.669        1.482      861.745
11/28/2013  08:17:00       64.411       59.792       37.972       28.813       30.234       26.049      830.213      914.065      678.526        0.579        0.121       87.885       11.191        0.016      332.676        1.494      861.781
11/28/2013  08:18:00       87.081       58.854       31.973       36.966       32.983       30.184     1366.462     1087.850      911.096        0.772        0.168      105.105       20.552        0.038      332.634        1.423      861.819
11/28/2013  08:19:00       46.001       67.576       55.488       32.844       35.304       28.126     1078.727     1246.341      791.079        0.644        0.156       81.747       15.638        0.037      332.638        1.431      861.843
11/28/2013  08:20:00       82.984       67.632       50.954       48.688       31.857       34.995     2370.501     1014.866     1224.674        0.933        0.231      107.053       30.345        0.080      332.554        1.291      861.857
11/28/2013  08:21:00      111.887       71.681       37.658       34.054       28.953       29.449     1159.700      838.259      867.251        1.097        0.143      132.879       16.908        0.016      332.486        1.179      861.875
11/28/2013  08:22:00      111.252       77.432       34.804       24.606       23.389       30.367      605.467      547.046      922.178        1.083        0.104      135.546       18.267        0.018      332.512        1.221      861.869
11/28/2013  08:23:00       64.883       50.785       34.098       36.553       23.958       23.076     1336.095      573.987      532.521        0.520        0.122       82.395       18.915        0.053      332.457        1.133      861.870
11/28/2013  08:24:00       95.520       62.801        4.565       24.505       19.100       18.584      600.482      364.794      345.351        0.720        0.066      114.316        9.618        0.007      332.449        1.119      861.869
11/28/2013  08:25:00       56.411       39.799       27.449       29.017       25.571       27.864      841.964      653.895      776.421        0.390        0.114       69.037       13.578        0.039      332.472        1.155      861.868
11/28/2013  08:26:00       75.678       63.550        6.061       16.394       23.010       16.453      268.761      529.458      270.717        0.544        0.053       98.822        7.254        0.005      332.383        1.011      861.877
11/28/2013  08:27:00       71.346       60.329        4.755       17.632       26.854       18.234      310.879      721.151      332.463        0.506        0.068       93.434        9.619        0.011      332.381        1.007      861.884
11/28/2013  08:28:00       86.940       53.977        4.646       18.133       15.964       15.529      328.797      254.844      241.148        0.566        0.041      102.333       10.835        0.011      332.375        0.997      861.891
11/28/2013  08:29:00       62.739       64.386        4.100       19.229       17.283       14.205      369.758      298.710      201.793        0.448        0.044       89.898        9.146        0.010      332.384        1.011      861.902
11/28/2013  08:30:00       52.951       45.166       14.205       22.706       23.297       19.440      515.556      542.744      377.922        0.324        0.072       69.597        8.314        0.014      332.405        1.046      861.899
11/28/2013  08:31:00       39.364       33.937        2.013       29.781       21.907       18.616      886.902      479.911      346.571        0.221        0.086       51.973        7.176        0.019      332.470        1.153      861.894
11/28/2013  08:32:00       26.895       59.210       -5.210       16.990       28.100       15.294      288.676      789.629      233.905        0.278        0.066       65.032       17.841        0.075      332.414        1.061      861.885
11/28/2013  08:33:00       25.824       72.524       -9.972       18.521       19.372       11.486      343.022      375.269      131.932        0.344        0.043       76.984        9.823        0.016      332.393        1.026      861.885
11/28/2013  08:34:00        9.516       48.958       -6.797       20.710       17.191       13.198      428.888      295.527      174.178        0.172        0.045       49.874        9.223        0.034      332.429        1.087      861.891
11/28/2013  08:35:00       29.703       35.488       -0.381       14.619       13.799       12.912      213.722      190.404      166.726        0.136        0.029       46.278        9.051        0.038      332.450        1.118      861.894
11/28/2013  08:36:00       38.818       32.385       -2.006       16.333       12.842       10.179      266.768      164.926      103.615        0.155        0.027       50.553        8.413        0.028      332.462        1.141      861.905
11/28/2013  08:37:00       59.479       38.081       -8.794       16.787       10.021       13.995      281.795      100.418      195.857        0.282        0.029       70.625        5.682        0.006      332.435        1.096      861.926
11/28/2013  08:38:00       53.847       33.243        0.972       17.075       17.159       16.772      291.543      294.437      281.308        0.244        0.043       63.282       10.860        0.029      332.471        1.154      861.939
11/28/2013  08:39:00       53.093       34.138       -3.312       25.210       12.970       20.269      635.562      168.224      410.833        0.260        0.061       63.122       12.108        0.037      332.455        1.129      861.937
11/28/2013  08:40:00       54.339       53.808       13.357       22.515       16.113       22.235      506.938      259.638      494.406        0.364        0.063       76.472       13.787        0.033      332.522        1.240      861.948
11/28/2013  08:41:00       49.420       38.004       16.321       25.521       19.948       25.559      651.331      397.942      653.261        0.293        0.085       62.343       15.367        0.061      332.535        1.260      861.961
11/28/2013  08:42:00       64.501       28.208        1.037       26.023       18.793       18.152      677.185      353.180      329.498        0.316        0.068       70.400       13.150        0.035      332.484        1.176      861.971
11/28/2013  08:43:00       57.617       40.450       13.410       21.735       20.386       18.578      472.430      415.577      345.127        0.318        0.062       70.398       16.665        0.056      332.435        1.095      861.959
11/28/2013  08:44:00       57.086       40.221       -0.862       16.378       21.004       15.553      268.247      441.157      241.903        0.291        0.048       69.832       12.015        0.030      332.432        1.089      861.959
11/28/2013  08:45:00       60.643       39.588        2.572       18.811       16.460       14.190      353.854      270.917      201.358        0.304        0.041       72.421        8.313        0.013      332.483        1.175      861.963
11/28/2013  08:46:00       50.047       46.214        4.845       18.333       21.500       18.071      336.103      462.234      326.579        0.289        0.056       68.120       16.497        0.059      332.465        1.144      861.964
11/28/2013  08:47:00       45.738       37.835        1.438       13.767       13.748       14.520      189.542      189.019      210.822        0.206        0.029       59.359        9.555        0.026      332.455        1.128      861.951
11/28/2013  08:48:00       18.539       12.198        0.759       20.364       13.318       11.596      414.695      177.379      134.477        0.061        0.036       22.192       12.401        0.312      332.530        1.253      861.935
11/28/2013  08:49:00        9.284       27.261       -1.280       12.288       15.627       10.023      150.998      244.212      100.468        0.066        0.025       28.799        7.050        0.060      332.540        1.269      861.931
11/28/2013  08:50:00       15.143       31.491        1.545       13.742       14.970       11.613      188.831      224.107      134.865        0.089        0.027       34.942        9.972        0.081      332.572        1.322      861.933
11/28/2013  08:51:00       20.343       50.293       -4.195       11.924       15.082       13.856      142.181      227.463      191.988        0.176        0.028       54.252       11.191        0.043      332.572        1.322      861.936
11/28/2013  08:52:00       16.641       45.812       -5.959       11.234       11.365        8.373      126.209      129.172       70.111        0.137        0.016       48.740        2.698        0.003      332.581        1.336      861.938
11/28/2013  08:53:00       13.966       30.066       -8.787        6.763       10.052        7.669       45.738      101.042       58.820        0.069        0.010       33.152        4.583        0.019      332.595        1.359      861.923
11/28/2013  08:54:00       14.839       34.289       -8.790        9.562        9.546        7.533       91.423       91.135       56.746        0.086        0.012       37.362        2.695        0.005      332.585        1.343      861.913
11/28/2013  08:55:00        9.478       28.633        7.457       12.243       11.475        8.042      149.881      131.678       64.674        0.066        0.017       30.161        7.692        0.065      332.652        1.453      861.904
11/28/2013  08:56:00        6.188       39.463       -7.363        9.185        6.924        6.773       84.356       47.939       45.877        0.091        0.009       39.945        3.870        0.009      332.605        1.374      861.914
11/28/2013  08:57:00       -1.028       17.702       -3.856        8.736        8.422        5.907       76.326       70.924       34.899        0.026        0.009       17.732        4.566        0.066      332.608        1.381      861.907
11/28/2013  08:58:00      -23.389        9.983       -6.110       12.175        6.719        3.839      148.231       45.150       14.735        0.045        0.010       25.430        3.235        0.016      332.618        1.395      861.892
11/28/2013  08:59:00      -32.385       13.900       -1.343       11.087        8.460        6.282      122.921       71.572       39.461        0.074        0.012       35.242        5.165        0.021      332.661        1.470      861.894
11/28/2013  09:00:00        0.650        2.473        7.966       10.372        6.106        9.176      107.583       37.280       84.197        0.015        0.011        2.557        8.568       11.225      332.813        1.721      861.913
11/28/2013  09:01:00        5.032        8.727       13.929        5.089        8.360        2.993       25.899       69.886        8.960        0.020        0.005       10.073        1.835        0.033      332.852        1.785      861.931
11/28/2013  09:02:00       14.883       19.368       15.923       10.379        8.241        9.032      107.723       67.911       81.579        0.055        0.013       24.426        3.750        0.024      332.789        1.680      861.960
11/28/2013  09:03:00       40.389       36.030       22.151       14.743        9.998       12.702      217.362       99.962      161.343        0.195        0.024       54.124        6.424        0.014      332.770        1.650      861.977
11/28/2013  09:04:00       31.391       37.949       11.471       17.522       22.595       20.639      307.009      510.522      425.948        0.190        0.062       49.250       12.815        0.068      332.803        1.703      861.988
11/28/2013  09:05:00        8.120       32.299       11.902       16.095       17.538       17.522      259.041      307.573      307.038        0.106        0.044       33.304       11.055        0.110      332.844        1.772      861.977
11/28/2013  09:06:00       39.801       27.017        4.402       15.670       16.150       12.383      245.565      260.836      153.335        0.150        0.033       48.104        5.616        0.014      332.755        1.626      861.974
11/28/2013  09:07:00       19.558       21.793       -0.111       11.946        7.769        9.456      142.708       60.350       89.410        0.057        0.015       29.283        4.911        0.028      332.739        1.600      861.976
11/28/2013  09:08:00        3.748       24.533        0.769        5.335        8.044       11.467       28.457       64.711      131.502        0.042        0.011       24.817        3.044        0.015      332.748        1.612      861.968
11/28/2013  09:09:00       25.710       34.454        8.225        9.678        8.382        7.148       93.661       70.255       51.096        0.107        0.011       42.989        3.606        0.007      332.740        1.598      861.959
11/28/2013  09:10:00       24.337       28.199        7.883       10.108        9.503       10.140      102.172       90.306      102.815        0.087        0.015       37.249        6.736        0.033      332.805        1.708      861.961
11/28/2013  09:11:00       18.202       38.042       -4.813        9.823       13.363        8.671       96.494      178.580       75.187        0.108        0.018       42.172        8.630        0.042      332.787        1.678      861.960
11/28/2013  09:12:00       36.555       34.707       -4.128       12.318       13.537        9.033      151.730      183.259       81.590        0.149        0.021       50.407        6.624        0.017      332.748        1.614      861.950
11/28/2013  09:13:00       51.150       36.003       -4.460       12.964       11.939       12.377      168.068      142.541      153.200        0.220        0.023       62.550        5.609        0.008      332.766        1.643      861.945
11/28/2013  09:14:00       67.053       44.227       -0.886       12.601       11.242       14.947      158.783      126.377      223.416        0.348        0.025       80.326        7.995        0.010      332.784        1.673      861.945
11/28/2013  09:15:00       40.945       37.530       -5.350       25.525       20.180       21.117      651.516      407.240      445.911        0.231        0.075       55.543       17.732        0.102      332.791        1.684      861.940
11/28/2013  09:16:00       34.803       30.383        0.760       21.839       18.603       16.002      476.920      346.057      256.071        0.161        0.054       46.199       10.810        0.055      332.769        1.646      861.936
11/28/2013  09:17:00       34.439       27.844       -0.577       20.481       11.032       13.632      419.467      121.714      185.821        0.134        0.036       44.287        8.783        0.039      332.770        1.648      861.932
11/28/2013  09:18:00       39.407       31.126       -2.063       18.235       13.127       13.045      332.508      172.311      170.159        0.160        0.034       50.217        8.313        0.027      332.766        1.643      861.940
11/28/2013  09:19:00       20.916       50.090      -17.410       15.976       22.605       10.867      255.229      511.008      118.092        0.207        0.044       54.281        6.385        0.014      332.763        1.639      861.956
11/28/2013  09:20:00       24.341       33.955       -2.704       19.687       22.844       12.133      387.594      521.859      147.221        0.140        0.053       41.778        6.777        0.026      332.783        1.670      861.947
11/28/2013  09:21:00       16.732       35.880      -10.709        7.742       13.545        6.979       59.943      183.460       48.700        0.099        0.015       39.589        7.061        0.032      332.752        1.620      861.922
11/28/2013  09:22:00       -4.167       24.197       -3.355       10.466        7.723        8.307      109.535       59.638       69.001        0.043        0.012       24.553        5.186        0.045      332.816        1.724      861.916
11/28/2013  09:23:00       -7.440       14.561       -5.889       11.739        7.710        7.662      137.808       59.444       58.711        0.028        0.013       16.352        7.480        0.209      332.817        1.729      861.925
11/28/2013  09:24:00        3.761       18.261        3.198       17.014        7.366        9.016      289.489       54.263       81.293        0.039        0.021       18.644        6.734        0.130      332.862        1.803      861.937
11/28/2013  09:25:00       29.223       29.469       11.739       10.644        7.263       10.128      113.305       52.747      102.568        0.106        0.013       41.502        5.007        0.015      332.852        1.786      861.945
11/28/2013  09:26:00       32.652       35.268        8.522        9.330        7.686       11.410       87.050       59.074      130.199        0.133        0.014       48.062        3.794        0.006      332.867        1.810      861.962
11/28/2013  09:27:00       24.160       35.241        5.259       17.615       16.590       10.688      310.277      275.223      114.236        0.128        0.035       42.728        4.064        0.009      332.981        1.997      861.975
11/28/2013  09:28:00       55.812       37.469       11.739       28.864       20.953       24.405      833.144      439.018      595.584        0.326        0.093       67.223       17.911        0.071      332.992        2.014      861.979
11/28/2013  09:29:00       75.410       35.873        5.428       18.760       14.070       22.562      351.952      197.955      509.031        0.403        0.053       83.507       12.115        0.021      332.953        1.952      861.978
11/28/2013  09:30:00       66.395       38.246        3.117       18.170       15.831       22.294      330.147      250.611      497.003        0.348        0.054       76.623        7.533        0.010      332.971        1.982      861.984
11/28/2013  09:31:00       70.249       37.602        2.222       22.764       15.716       12.864      518.200      246.995      165.491        0.364        0.047       79.679        7.846        0.010      332.930        1.913      861.991
11/28/2013  09:32:00       56.926       40.523        0.933       21.194       23.166       16.142      449.178      536.675      260.575        0.306        0.062       69.876        8.901        0.016      332.975        1.988      861.985
11/28/2013  09:33:00       55.571       40.245       20.607       19.444       12.292       18.568      378.070      151.106      344.754        0.300        0.044       68.614        8.393        0.015      332.937        1.925      861.981
11/28/2013  09:34:00       41.240       35.218        2.580       16.524       14.775       19.219      273.028      218.300      369.363        0.190        0.043       54.231       12.873        0.056      332.961        1.964      861.971
11/28/2013  09:35:00       26.288       26.113       -3.023       12.340       16.284       14.190      152.276      265.159      201.349        0.100        0.031       37.054       11.417        0.095      332.961        1.963      861.951
11/28/2013  09:36:00       20.020       13.235       17.090       11.882        7.522       13.171      141.182       56.577      173.462        0.062        0.019       24.000        8.456        0.124      333.061        2.129      861.935
11/28/2013  09:37:00       -3.860       19.632       -2.546       15.844       12.013        6.102      251.045      144.300       37.229        0.042        0.022       20.008        3.920        0.038      333.006        2.039      861.933
11/28/2013  09:38:00      -35.427       31.100       -8.501       15.758       14.226        6.566      248.303      202.374       43.118        0.139        0.025       47.141        5.147        0.012      333.001        2.030      861.934
11/28/2013  09:39:00      -28.145       16.719       -0.844       14.784       12.172       10.864      218.557      148.162      118.020        0.078        0.024       32.737        7.947        0.059      333.112        2.215      861.925
11/28/2013  09:40:00      -21.408        5.730       -0.815       22.285       11.512       10.757      496.631      132.520      115.720        0.062        0.037       22.162       12.689        0.328      333.265        2.466      861.933
11/28/2013  09:41:00      -14.602       20.831       -1.207       26.146       22.995       15.981      683.605      528.767      255.387        0.106        0.073       25.439       16.698        0.431      333.196        2.353      861.950
11/28/2013  09:42:00       -9.284       58.238        1.940       14.090       17.830       14.287      198.540      317.904      204.114        0.210        0.036       58.973       10.713        0.033      333.167        2.305      861.956
11/28/2013  09:43:00        8.278       35.118       -0.137       15.941       24.551       14.263      254.103      602.750      203.425        0.118        0.053       36.081       12.094        0.112      333.186        2.335      861.971
11/28/2013  09:44:00        0.822       16.372       -6.166       12.382       18.076        6.209      153.321      326.757       38.548        0.041        0.026       16.392        5.925        0.131      333.185        2.333      861.983
11/28/2013  09:45:00      -45.831        3.714       -6.819       36.016       38.726       10.809     1297.123     1499.713      116.835        0.254        0.146       45.981       12.761        0.077      333.217        2.387      861.987
11/28/2013  09:46:00      -48.647        9.905        3.784       14.958       22.708       11.235      223.737      515.658      126.222        0.167        0.043       49.646        9.017        0.033      333.223        2.397      861.975
11/28/2013  09:47:00      -47.237       34.593       -1.600       13.830       19.868       12.106      191.257      394.730      146.545        0.208        0.037       58.550        7.539        0.017      333.242        2.428      861.974
11/28/2013  09:48:00      -22.625       24.505        7.615       18.187       18.297       16.543      330.770      334.765      273.673        0.105        0.047       33.352       17.192        0.266      333.445        2.764      861.956
11/28/2013  09:49:00      -84.882       -2.759      -10.364       17.928       22.347       12.200      321.414      499.409      148.848        0.414        0.048       84.927        7.916        0.009      333.265        2.465      861.941
11/28/2013  09:50:00      -18.156       -9.686        6.973       30.061       18.631       25.945      903.693      347.109      673.145        0.120        0.096       20.578       26.527        1.662      333.508        2.868      861.946
11/28/2013  09:51:00      -35.696      -25.293       14.108       45.941       28.622       21.238     2110.593      819.212      451.032        0.275        0.169       43.748       26.908        0.378      333.436        2.749      861.945
11/28/2013  09:52:00      -67.926       -2.610      -10.953       18.996       16.026       12.486      360.864      256.839      155.893        0.276        0.039       67.976        5.720        0.007      333.328        2.571      861.961
11/28/2013  09:53:00      -51.028      -50.180       -4.850       24.766       15.597       13.016      613.356      243.256      169.418        0.309        0.051       71.567       12.591        0.031      333.342        2.594      861.965
11/28/2013  09:54:00      -55.690      -27.270      -15.060       18.210       12.413       12.027      331.602      154.071      144.652        0.235        0.032       62.008        7.164        0.013      333.351        2.608      861.969
11/28/2013  09:55:00      -45.325      -19.984       -7.114        8.522       10.504        6.149       72.627      110.335       37.815        0.136        0.011       49.535        4.040        0.007      333.366        2.635      861.980
11/28/2013  09:56:00      -56.222       -3.481       -6.195       14.249       12.485       10.974      203.036      155.870      120.425        0.185        0.024       56.329        8.364        0.022      333.374        2.648      861.970
11/28/2013  09:57:00      -55.172      -32.917       -9.560       24.169       17.726       13.649      584.120      314.198      186.294        0.265        0.054       64.245       12.799        0.040      333.488        2.835      861.963
11/28/2013  09:58:00      -38.733      -27.227       -7.762       28.684       10.763       10.426      822.747      115.846      108.707        0.167        0.052       47.345        7.777        0.027      333.512        2.873      861.955
11/28/2013  09:59:00     -101.811      -39.130      -11.381       12.366       17.904       10.549      152.930      320.536      111.290        0.631        0.029      109.071        6.993        0.004      333.448        2.769      861.951
11/28/2013  10:00:00      -76.211      -19.272       -7.349       14.107       12.608       10.622      199.012      158.974      112.835        0.335        0.024       78.610        7.091        0.008      333.427        2.730      861.959
11/28/2013  10:01:00      -52.325       -3.977       -0.740       17.438        9.489       11.507      304.077       90.044      132.422        0.164        0.026       52.476        6.302        0.014      333.495        2.847      861.958
11/28/2013  10:02:00      -23.844      -11.484       -0.875        9.116       11.958        6.868       83.103      142.983       47.168        0.049        0.014       26.466        4.294        0.026      333.568        2.968      861.959
11/28/2013  10:03:00      -41.595      -25.264       -3.596       14.744       18.665       13.492      217.393      348.388      182.036        0.156        0.037       48.667        9.466        0.038      333.662        3.124      861.943
11/28/2013  10:04:00      -31.922       -1.882        4.757       16.899       16.643        8.653      285.574      276.978       74.879        0.084        0.032       31.977        3.622        0.013      333.734        3.244      861.941
11/28/2013  10:05:00      -28.139        7.217       14.398       19.808       12.506       13.912      392.373      156.404      193.546        0.090        0.037       29.050       15.525        0.286      333.823        3.390      861.945
11/28/2013  10:06:00       -2.539       28.591       10.357       17.226       27.396       15.862      296.737      750.537      251.589        0.111        0.065       28.703       16.206        0.319      333.808        3.366      861.958
11/28/2013  10:07:00       -1.677       23.084        4.775       12.383       29.538       12.065      153.340      872.478      145.559        0.086        0.059       23.145        7.360        0.101      333.824        3.393      861.948
11/28/2013  10:08:00        0.199       16.668        5.341       17.031       14.810       11.856      290.055      219.327      140.574        0.048        0.032       16.670        9.050        0.295      333.912        3.539      861.928
11/28/2013  10:09:00       -8.736       14.754        9.916       12.705       13.010       11.682      161.422      169.252      136.461        0.043        0.023       17.146        4.287        0.063      333.933        3.575      861.909
11/28/2013  10:10:00      -30.043       18.758       -3.740       22.209       13.684       14.494      493.260      187.261      210.077        0.108        0.045       35.418       14.682        0.172      333.881        3.488      861.879
11/28/2013  10:11:00      -48.659       12.367        1.554       42.962       21.105       19.218     1845.702      445.437      369.351        0.259        0.133       50.206       20.341        0.164      333.961        3.621      861.858
11/28/2013  10:12:00      -89.855        6.685       -8.692       21.080       15.758       11.147      444.376      248.313      124.250        0.451        0.041       90.104        7.635        0.007      333.741        3.254      861.854
11/28/2013  10:13:00      -76.818      -33.689        1.316       19.392       17.025       16.323      376.046      289.853      266.445        0.398        0.047       83.880       11.820        0.020      333.764        3.294      861.838
11/28/2013  10:14:00      -98.958      -15.278       -8.381       31.594       26.991       20.176      998.175      728.492      407.072        0.611        0.107      100.130       17.740        0.031      333.814        3.375      861.825
11/28/2013  10:15:00      -95.281      -12.167      -12.118       23.064       18.144       16.758      531.949      329.200      280.816        0.526        0.057       96.055       14.506        0.023      333.725        3.229      861.801
11/28/2013  10:16:00     -117.090       15.574      -15.782       25.098       25.094       15.118      629.913      629.707      228.559        0.784        0.074      118.121        9.955        0.007      333.728        3.232      861.784
11/28/2013  10:17:00     -124.859       18.480      -13.929       23.502       18.816       15.661      552.330      354.058      245.254        0.864        0.058      126.220       10.415        0.007      333.713        3.209      861.785
11/28/2013  10:18:00      -76.348       27.616      -12.334       27.825       18.614       15.432      774.234      346.491      238.138        0.405        0.068       81.189       12.202        0.023      333.804        3.360      861.795
11/28/2013  10:19:00      -93.854       12.081       -8.902       25.644       19.425       14.968      657.600      377.314      224.036        0.515        0.063       94.628       14.590        0.024      333.843        3.422      861.804
11/28/2013  10:20:00      -84.925       -0.750       -9.005       19.368       10.384       14.255      375.138      107.828      203.194        0.399        0.034       84.928        5.510        0.004      333.878        3.482      861.820
11/28/2013  10:21:00      -36.589      -12.323      -10.442       16.720       13.185        9.399      279.550      173.841       88.339        0.107        0.027       38.608       11.162        0.084      333.932        3.572      861.816
11/28/2013  10:22:00      -46.684      -15.111       -3.701       17.086       15.456       12.451      291.935      238.874      155.022        0.155        0.034       49.069        8.439        0.030      333.976        3.645      861.805
11/28/2013  10:23:00      -26.245       -2.755        5.066       13.527        7.292       13.170      182.992       53.174      173.437        0.057        0.020       26.389        5.328        0.041      334.098        3.847      861.791
11/28/2013  10:24:00       18.067       -4.914       27.674       25.721       11.603       14.358      661.545      134.624      206.139        0.106        0.050       18.723       15.263        0.665      334.352        4.268      861.800
11/28/2013  10:25:00       35.163        9.733        8.392       20.156       32.489       21.750      406.281     1055.520      473.081        0.167        0.097       36.485       12.735        0.122      334.162        3.952      861.794
11/28/2013  10:26:00       33.940       46.735        1.587       32.168       23.804       17.110     1034.752      566.614      292.748        0.262        0.095       57.759       15.353        0.071      334.247        4.093      861.812
11/28/2013  10:27:00       22.825       27.961       -4.799       20.414       22.224       16.759      416.752      493.925      280.865        0.126        0.060       36.094        7.808        0.047      334.211        4.033      861.829
11/28/2013  10:28:00       83.277       74.520        3.357       31.804       21.425       26.408     1011.511      459.019      697.399        0.733        0.108      111.751        7.394        0.004      334.272        4.137      861.840
11/28/2013  10:29:00       14.118       39.621       37.169       29.655       34.405       25.326      879.414     1183.691      641.382        0.293        0.135       42.061       17.760        0.178      334.608        4.695      861.858
11/28/2013  10:30:00       47.232       19.114       28.033       31.099       41.571       27.445      967.152     1728.156      753.230        0.341        0.172       50.953       20.538        0.162      334.508        4.527      861.856
11/28/2013  10:31:00       28.792       50.176        3.137       31.093       28.661       27.434      966.747      821.443      752.644        0.295        0.127       57.850       20.201        0.122      334.476        4.473      861.850
11/28/2013  10:32:00       64.397       53.737        7.748       44.052       36.889       24.253     1940.583     1360.787      588.202        0.549        0.194       83.873       18.074        0.046      334.348        4.261      861.836
11/28/2013  10:33:00       55.237       55.923       34.528       53.959       40.173       34.491     2911.586     1613.901     1189.618        0.654        0.286       78.604       30.822        0.154      334.549        4.596      861.831
11/28/2013  10:34:00      104.296       51.453        3.905       49.610       33.202       34.615     2461.104     1102.358     1198.191        0.915        0.238      116.297       14.065        0.015      334.276        4.142      861.831
11/28/2013  10:35:00      124.200       95.258       14.469       28.483       29.195       25.637      811.278      852.346      657.253        1.351        0.116      156.524       15.137        0.009      334.126        3.891      861.827
11/28/2013  10:36:00       80.398       63.768        5.396       40.320       25.886       24.896     1625.735      670.078      619.819        0.674        0.146      102.617       10.837        0.011      334.199        4.013      861.832
11/28/2013  10:37:00       86.801       58.348        0.166       32.358       27.763       25.133     1047.069      770.796      631.651        0.669        0.122      104.589       15.745        0.023      334.253        4.103      861.823
11/28/2013  10:38:00       29.595       21.045        2.272       21.192       15.120       19.228      449.118      228.629      369.723        0.119        0.052       36.314       10.529        0.084      334.472        4.469      861.807
11/28/2013  10:39:00       39.032       26.892       36.643       26.748       20.105       32.864      715.481      404.217     1080.051        0.289        0.110       47.399       18.105        0.146      334.595        4.671      861.797
11/28/2013  10:40:00       40.842       -3.572       16.707       31.820       24.374       27.477     1012.506      594.099      754.976        0.216        0.118       40.998       21.011        0.263      334.372        4.301      861.789
11/28/2013  10:41:00        4.460       38.331       58.277       17.612       31.730       21.259      310.171     1006.796      451.959        0.333        0.088       38.590       19.754        0.262      334.680        4.813      861.772
11/28/2013  10:42:00       40.460       48.581       37.718       45.410       34.161       41.246     2062.069     1167.007     1701.218        0.517        0.247       63.223       38.813        0.377      334.566        4.624      861.762
11/28/2013  10:43:00       28.331       39.539       39.781       37.544       39.932       32.267     1409.525     1594.531     1041.158        0.400        0.202       48.641       27.866        0.328      334.664        4.786      861.748
11/28/2013  10:44:00        1.163       45.568       67.192       22.647       32.210       16.233      512.881     1037.458      263.517        0.420        0.091       45.583       15.587        0.117      334.757        4.941      861.727
11/28/2013  10:45:00       18.227       34.878       59.410       23.524       26.615       13.106      553.398      708.338      171.777        0.326        0.072       39.353       14.223        0.131      334.565        4.621      861.720
11/28/2013  10:46:00       25.820       47.648       46.167       53.926       30.167       41.808     2908.040      910.063     1747.918        0.532        0.278       54.194       38.039        0.493      334.685        4.820      861.709
11/28/2013  10:47:00       90.581       79.227       39.764       37.116       31.091       37.273     1377.582      966.670     1389.293        0.990        0.187      120.340       16.575        0.019      334.674        4.802      861.702
11/28/2013  10:48:00       57.422       67.583       44.718       51.384       40.197       31.283     2640.296     1615.806      978.643        0.755        0.262       88.683       12.468        0.020      334.894        5.167      861.697
11/28/2013  10:49:00       31.395       74.034       81.357       33.113       50.056       29.874     1096.489     2505.575      892.444        0.879        0.225       80.415       28.238        0.123      334.691        4.831      861.684
11/28/2013  10:50:00       91.054       81.084       42.662       44.290       28.521       36.876     1961.582      813.467     1359.837        1.041        0.207      121.924       32.618        0.072      334.445        4.423      861.669
11/28/2013  10:51:00       79.037       51.354       10.375       37.522       35.602       28.362     1407.913     1267.503      804.431        0.624        0.174       94.256       13.312        0.020      334.533        4.568      861.658
11/28/2013  10:52:00       63.840       52.010        6.172       27.796       22.624       27.693      772.629      511.843      766.913        0.443        0.103       82.345       20.858        0.064      334.460        4.447      861.645
11/28/2013  10:53:00       30.599        7.718       -8.465       23.295       22.974       12.623      542.667      527.821      159.330        0.115        0.061       31.558       12.000        0.145      334.447        4.427      861.638
11/28/2013  10:54:00       -4.820       27.357       43.800       18.166       46.481       42.106      330.006     2160.487     1772.902        0.348        0.213       27.778       40.819        2.159      334.853        5.100      861.630
11/28/2013  10:55:00       71.733      102.391       70.568       46.808       31.275       38.409     2190.972      978.119     1475.228        1.263        0.232      125.018       38.749        0.096      334.420        4.381      861.640
11/28/2013  10:56:00      108.787       73.550       39.429       27.797       22.041       27.427      772.683      485.802      752.231        1.040        0.101      131.318       18.417        0.020      334.432        4.400      861.643
11/28/2013  10:57:00       69.809       67.399       48.296       47.529       31.880       33.269     2258.968     1016.317     1106.846        0.806        0.219       97.035       22.392        0.053      334.551        4.599      861.650
11/28/2013  10:58:00       78.967       67.351       55.232       31.319       20.702       29.171      980.877      428.579      850.954        0.804        0.113      103.789       14.652        0.020      334.532        4.567      861.645
11/28/2013  10:59:00       30.979      -77.264        2.676       28.229       58.457       32.380      796.870     3417.236     1048.481        0.610        0.263       83.243       39.674        0.227      334.676        4.805      861.620
11/28/2013  11:00:00        8.193      -50.350       11.185       16.875       29.306       24.717      284.765      858.827      610.908        0.224        0.088       51.012       19.826        0.151      334.835        5.070      861.598
11/28/2013  11:01:00       11.986      -44.112       12.377       28.590       57.796       27.586      817.360     3340.399      760.986        0.358        0.246       45.711       31.835        0.485      334.868        5.124      861.570
11/28/2013  11:02:00       18.186      -55.583      -10.326       31.113       42.281       24.767      968.002     1787.698      613.415        0.345        0.168       58.482       22.828        0.152      334.691        4.829      861.554
11/28/2013  11:03:00        3.486      -12.210       12.475       23.437       29.374       21.951      549.302      862.841      481.834        0.111        0.095       12.698       12.794        1.015      335.026        5.388      861.552
11/28/2013  11:04:00       15.481      -26.777       23.620       26.633       42.222       33.703      709.339     1782.674     1135.916        0.257        0.181       30.930       27.071        0.766      335.030        5.393      861.543
11/28/2013  11:05:00       20.246      -26.311       28.682       28.902       44.123       28.802      835.301     1946.841      829.567        0.277        0.181       33.199       19.025        0.328      335.070        5.461      861.532
11/28/2013  11:06:00        5.999      -23.740       36.279       21.967       48.873       26.817      482.550     2388.597      719.163        0.275        0.180       24.486       28.558        1.360      335.061        5.446      861.526
11/28/2013  11:07:00       60.906       71.367       72.645       53.839       29.221       20.982     2898.649      853.853      440.253        0.914        0.210       93.824       22.395        0.057      334.839        5.076      861.518
11/28/2013  11:08:00       39.984       53.417       56.529       41.607       35.347       25.419     1731.110     1249.416      646.123        0.564        0.181       66.724       16.599        0.062      334.898        5.174      861.525
11/28/2013  11:09:00       31.507       -4.768       34.230       47.325       41.165       41.661     2239.680     1694.552     1735.626        0.393        0.283       31.866       35.198        1.220      335.104        5.515      861.524
11/28/2013  11:10:00       90.192       78.749       73.343       41.729       36.679       29.680     1741.283     1345.343      880.902        1.184        0.198      119.733       23.082        0.037      334.934        5.235      861.523
11/28/2013  11:11:00       20.451       10.461       45.527       32.155       54.022       28.434     1033.936     2918.356      808.472        0.368        0.238       22.972       32.349        1.983      335.116        5.537      861.515
11/28/2013  11:12:00       43.902        1.069       35.448       44.806       57.034       36.591     2007.544     3252.836     1338.870        0.489        0.330       43.915       31.161        0.503      335.034        5.401      861.501
11/28/2013  11:13:00       43.670       18.100       38.007       40.778       48.357       36.645     1662.848     2338.438     1342.830        0.451        0.267       47.272       33.439        0.500      335.176        5.638      861.483
11/28/2013  11:14:00       11.226      -19.605       44.010       29.450       64.650       39.034      867.279     4179.662     1523.690        0.451        0.329       22.592       34.381        2.316      335.258        5.773      861.477
11/28/2013  11:15:00       50.877     -103.966       12.246       44.575       54.266       32.157     1986.952     2944.798     1034.042        0.976        0.298      115.747       36.751        0.101      335.031        5.396      861.475
11/28/2013  11:16:00       35.969       49.768       53.073       52.836       56.891       38.303     2791.646     3236.578     1467.131        0.704        0.375       61.405       30.136        0.241      335.101        5.512      861.472
11/28/2013  11:17:00       60.680       76.157       65.191       51.404       41.930       41.128     2642.412     1758.150     1691.549        0.991        0.305       97.375       32.126        0.109      334.981        5.314      861.467
11/28/2013  11:18:00      102.396       58.153       22.839       30.243       15.612       16.499      914.615      243.724      272.223        0.791        0.072      117.757       10.181        0.007      334.781        4.980      861.457
11/28/2013  11:19:00       66.371       47.495       19.766       23.601       20.371       20.800      557.000      414.976      432.650        0.423        0.070       81.614        9.368        0.013      334.885        5.153      861.447
11/28/2013  11:20:00       53.586       31.691       10.023       49.048       28.405       22.914     2405.718      806.860      525.048        0.386        0.187       62.256       10.317        0.027      335.157        5.605      861.432
11/28/2013  11:21:00       26.049       18.269       38.838       38.757       43.134       30.485     1502.110     1860.544      929.362        0.341        0.215       31.816       27.508        0.747      335.340        5.909      861.427
11/28/2013  11:22:00      -22.177       -6.634       26.668       26.255       59.423       27.149      689.317     3531.120      737.056        0.310        0.248       23.148       28.657        1.533      335.571        6.293      861.410
11/28/2013  11:23:00       22.246       43.502       49.366       56.213       32.170       35.780     3159.946     1034.916     1280.211        0.515        0.274       48.860       33.644        0.474      335.549        6.258      861.394
11/28/2013  11:24:00       89.522       77.546        2.550       20.069       14.653       26.387      402.771      214.714      696.293        0.767        0.066      118.438        9.090        0.006      334.988        5.324      861.373
11/28/2013  11:25:00       22.865       41.649      -18.353       35.364       16.349       16.062     1250.589      267.306      257.995        0.218        0.089       47.513       13.807        0.084      335.034        5.400      861.350
11/28/2013  11:26:00      -20.170       41.639        4.000       15.005       20.813       21.136      225.143      433.168      446.723        0.163        0.055       46.267       14.763        0.102      335.406        6.018      861.349
11/28/2013  11:27:00        5.094        5.983       21.012       23.691       10.615       18.315      561.281      112.674      335.429        0.076        0.050        7.858       17.293        4.843      335.955        6.933      861.340
11/28/2013  11:28:00       49.359       38.494       25.803       21.345       25.547       23.766      455.593      652.667      564.838        0.313        0.084       62.595       13.693        0.048      335.492        6.161      861.341
11/28/2013  11:29:00       52.677       60.266       39.241       35.493       25.776       30.091     1259.758      664.398      905.462        0.539        0.141       80.043       25.206        0.099      335.589        6.324      861.343
11/28/2013  11:30:00       74.789       44.893       54.082       48.498       54.968       39.072     2352.097     3021.507     1526.638        0.872        0.345       87.228       37.126        0.181      335.432        6.062      861.349
11/28/2013  11:31:00      103.158       77.318       45.689       34.928       27.305       37.841     1219.936      745.537     1431.927        1.105        0.170      128.917       27.727        0.046      335.308        5.855      861.344
11/28/2013  11:32:00      106.275       64.507       19.901       37.347       34.422       27.424     1394.781     1184.888      752.069        0.959        0.167      124.320       17.293        0.019      335.346        5.918      861.346
11/28/2013  11:33:00      145.430       96.867       13.982       35.371       23.628       26.549     1251.140      558.301      704.852        1.662        0.126      174.737       16.313        0.009      335.354        5.933      861.350
11/28/2013  11:34:00       65.263       18.319      -13.756       33.159       32.576       13.295     1099.488     1061.212      176.756        0.356        0.117       67.785       15.164        0.050      335.220        5.709      861.352
11/28/2013  11:35:00       -1.814       -0.307       19.548       16.181       31.723       17.998      261.826     1006.350      323.942        0.099        0.080        1.840       14.906       65.620      335.952        6.929      861.350
11/28/2013  11:36:00       -8.281       36.016      -11.761       21.382       24.633       16.784      457.194      606.773      281.717        0.142        0.067       36.956       13.839        0.140      335.758        6.605      861.338
11/28/2013  11:37:00        4.701       63.101      -10.799       29.344       21.420       17.134      861.067      458.825      293.563        0.287        0.081       63.276       12.040        0.036      335.700        6.507      861.325
11/28/2013  11:38:00       14.722       15.771        9.530       25.943       36.687       32.713      673.023     1345.957     1070.146        0.182        0.154       21.575       10.080        0.218      336.086        7.153      861.323
11/28/2013  11:39:00       82.110       89.555       58.209       66.971       43.149       48.202     4485.175     1861.814     2323.409        1.341        0.434      121.499       37.789        0.097      335.736        6.569      861.300
11/28/2013  11:40:00       96.307       69.340       47.992       49.740       33.623       39.801     2474.100     1130.498     1584.110        1.079        0.259      118.672       26.088        0.048      335.616        6.367      861.296
11/28/2013  11:41:00       87.354       73.033       70.469       60.027       42.588       38.192     3603.184     1813.730     1458.612        1.240        0.344      113.862       29.830        0.069      335.715        6.534      861.292
11/28/2013  11:42:00      119.016      102.880       10.336       65.957       33.659       35.664     4350.323     1132.909     1271.947        1.580        0.338      157.318       21.595        0.019      335.556        6.268      861.281
11/28/2013  11:43:00       60.432       63.320       40.912       63.271       34.035       64.748     4003.230     1158.356     4192.332        0.934        0.468       87.530       48.765        0.310      335.755        6.600      861.278
11/28/2013  11:44:00       29.647       78.946       79.154       45.671       46.500       36.366     2085.810     2162.262     1322.465        0.947        0.279       84.329       29.210        0.120      336.019        7.039      861.279
11/28/2013  11:45:00       24.504        7.606       14.020       24.252       30.960       27.696      588.141      958.501      767.050        0.158        0.116       25.657       16.752        0.426      335.890        6.826      861.286
11/28/2013  11:46:00       75.780       31.100       30.708       44.662       36.247       29.408     1994.701     1313.878      864.842        0.591        0.209       81.913       15.184        0.034      335.724        6.548      861.274
11/28/2013  11:47:00       72.848        6.811       10.834       17.360       22.538       22.260      301.373      507.943      495.492        0.339        0.065       73.166       11.544        0.025      335.600        6.341      861.274
11/28/2013  11:48:00       40.768       38.830        5.046       24.895       21.788       18.844      619.744      474.698      355.112        0.232        0.072       56.301       13.165        0.055      335.720        6.540      861.260
11/28/2013  11:49:00        9.503       22.716       41.851       28.982       35.294       30.863      839.956     1245.659      952.551        0.270        0.152       24.624       26.305        1.141      336.408        7.689      861.249
11/28/2013  11:50:00       44.854     -110.861        2.300       64.603       57.603       32.782     4173.585     3318.158     1074.661        1.144        0.428      119.591       15.971        0.018      336.184        7.315      861.254
11/28/2013  11:51:00       64.591     -102.421      -11.917       37.097       32.692       27.521     1376.177     1068.771      757.398        0.900        0.160      121.087       20.069        0.027      335.961        6.944      861.271
11/28/2013  11:52:00       15.311       81.158      101.946       39.522       57.803       44.132     1561.990     3341.243     1947.628        1.203        0.343       82.590       45.482        0.303      336.205        7.349      861.274
11/28/2013  11:53:00       79.322       79.574       68.332       50.862       37.789       30.478     2586.905     1428.011      928.929        1.112        0.247      112.357       25.333        0.051      335.933        6.897      861.276
11/28/2013  11:54:00       24.955       45.498       63.916       39.942       42.111       26.963     1595.343     1773.352      727.028        0.544        0.205       51.893       16.819        0.105      336.268        7.457      861.272
11/28/2013  11:55:00       53.994       33.203       26.605       46.151       47.989       41.810     2129.892     2302.926     1748.062        0.545        0.309       63.385       17.648        0.078      336.337        7.570      861.253
11/28/2013  11:56:00       80.289       92.567        3.648       55.236       47.170       36.041     3051.042     2224.994     1298.927        1.080        0.329      122.535       25.833        0.044      335.937        6.903      861.237
11/28/2013  11:57:00       79.748       42.974       15.315       30.134       39.440       20.258      908.052     1555.501      410.389        0.566        0.144       90.590       11.310        0.016      335.805        6.684      861.225
11/28/2013  11:58:00       61.800       39.849       26.048       38.367       31.026       24.847     1472.019      962.614      617.358        0.457        0.153       73.534       16.415        0.050      336.038        7.072      861.217
11/28/2013  11:59:00       10.104       68.586       -4.057       34.891       47.427       31.761     1217.414     2249.344     1008.769        0.465        0.224       69.326       19.901        0.082      336.236        7.403      861.211
11/28/2013  12:00:00      -60.364       30.886      -27.025       23.187       24.019       16.533      537.639      576.893      273.351        0.336        0.069       67.807       12.898        0.036      335.946        6.918      861.211
11/28/2013  12:01:00      -55.131       -1.911      -15.409       22.612       14.247       23.618      511.297      202.981      557.810        0.228        0.064       55.164        6.526        0.014      336.141        7.243      861.191
11/28/2013  12:02:00      -30.729       -8.106       18.109       46.440       33.345       22.132     2156.673     1111.889      489.808        0.255        0.188       31.780       22.544        0.503      336.376        7.637      861.181
11/28/2013  12:03:00       31.890       -4.331       12.931       38.096       67.512       29.679     1451.273     4557.902      880.854        0.405        0.345       32.183       13.799        0.184      336.568        7.959      861.165
11/28/2013  12:04:00       86.954       84.190        2.703       75.847       58.061       41.144     5752.839     3371.096     1692.862        1.273        0.541      121.033       26.225        0.047      336.605        8.018      861.146
11/28/2013  12:05:00      111.529       71.842        7.865       49.492       45.212       23.759     2449.416     2044.094      564.483        1.136        0.253      132.665       13.242        0.010      335.988        6.988      861.153
11/28/2013  12:06:00       77.326       74.821       12.970       52.334       50.779       47.992     2738.876     2578.473     2303.276        0.968        0.381      107.599       16.398        0.023      336.245        7.417      861.138
11/28/2013  12:07:00      172.395      102.772       19.865       60.826       59.644       48.512     3699.785     3557.407     2353.377        2.514        0.481      200.704       33.837        0.028      336.265        7.448      861.112
11/28/2013  12:08:00      108.372       41.383       13.293       45.456       53.094       41.987     2066.281     2819.003     1762.890        1.014        0.332      116.004       35.104        0.092      336.088        7.155      861.112
11/28/2013  12:09:00      128.307       73.040        8.732       52.876       45.192       34.678     2795.839     2042.276     1202.531        1.396        0.302      147.640       20.581        0.019      336.301        7.509      861.091
11/28/2013  12:10:00      108.887       96.367       16.103       63.309       44.838       50.967     4007.983     2010.480     2597.627        1.501        0.431      145.406       26.232        0.033      336.224        7.381      861.074
11/28/2013  12:11:00       56.152       44.063       25.597       64.157       51.260       46.049     4116.171     2627.577     2120.535        0.731        0.443       71.377       38.515        0.291      336.460        7.777      861.051
11/28/2013  12:12:00       39.278      -35.402       26.272       42.805       50.901       36.828     1832.303     2590.876     1356.283        0.463        0.289       52.878       26.759        0.256      336.610        8.029      861.032
11/28/2013  12:13:00       39.873       28.215       30.549       52.127       36.035       43.441     2717.185     1298.550     1887.095        0.461        0.295       48.846       32.364        0.439      336.566        7.953      861.015
11/28/2013  12:14:00      160.961       80.379       16.571       62.659       55.215       34.752     3926.158     3048.704     1207.711        2.041        0.409      179.915       16.437        0.008      336.339        7.571      860.999
11/28/2013  12:15:00      146.541      103.538       16.221       35.822       31.095       31.719     1283.227      966.903     1006.076        1.786        0.163      179.428       12.471        0.005      336.190        7.324      860.988
11/28/2013  12:16:00      138.028       85.007        0.207       34.620       34.870       29.825     1198.547     1215.896      889.558        1.479        0.165      162.105       15.411        0.009      336.264        7.447      860.985
11/28/2013  12:17:00       52.289       58.360       35.733       41.562       39.913       31.525     1727.433     1593.026      993.801        0.586        0.216       78.358        9.837        0.016      336.760        8.278      860.982
11/28/2013  12:18:00       64.941       58.431       57.386       77.336       46.898       46.948     5980.791     2199.428     2204.158        1.065        0.519       87.359       47.067        0.290      336.796        8.339      860.989
11/28/2013  12:19:00      117.342       74.640       28.767       67.485       50.739       43.101     4554.158     2574.496     1857.739        1.458        0.449      139.069       23.959        0.030      336.500        7.842      860.998
11/28/2013  12:20:00       83.800       82.919       85.300       87.949       79.053       62.824     7735.062     6249.416     3946.898        1.955        0.897      117.890       60.747        0.266      336.644        8.083      860.987
11/28/2013  12:21:00       63.572       71.451       66.616       76.677       58.309       54.046     5879.345     3399.894     2920.918        1.289        0.610       95.638       44.821        0.220      336.799        8.343      860.978
11/28/2013  12:22:00       56.997      -61.565       21.266       60.702       85.889       51.345     3684.705     7376.873     2636.312        1.059        0.685       83.898       54.149        0.417      336.897        8.506      860.966
11/28/2013  12:23:00       39.968       11.917       67.277       43.734       63.279       33.468     1912.658     4004.235     1120.135        0.665        0.352       41.706       25.451        0.372      337.047        8.758      860.952
11/28/2013  12:24:00       54.231       62.062       62.124       59.201       59.787       40.945     3504.799     3574.538     1676.475        0.970        0.438       82.418       32.943        0.160      336.927        8.557      860.947
11/28/2013  12:25:00       45.461       75.683       66.013       59.287       55.654       56.326     3514.979     3097.323     3172.594        1.097        0.489       88.287       46.467        0.277      336.738        8.241      860.928
11/28/2013  12:26:00       10.762       51.577       68.937       36.970       46.587       39.838     1366.801     2170.325     1587.059        0.633        0.256       52.688       38.121        0.524      337.039        8.744      860.918
11/28/2013  12:27:00      127.043      140.836      104.092       75.645       65.462       70.872     5722.202     4285.285     5022.799        3.092        0.752      189.670       60.731        0.103      336.638        8.070      860.896
11/28/2013  12:28:00       70.553       65.046       73.748       62.111       49.586       51.957     3857.823     2458.811     2699.573        1.183        0.451       95.962       41.232        0.185      336.607        8.022      860.910
11/28/2013  12:29:00       62.381       14.950       37.446       56.667       50.864       42.312     3211.194     2587.099     1790.303        0.655        0.379       64.148       36.071        0.316      336.646        8.088      860.886
11/28/2013  12:30:00       89.232      111.775       38.448       97.119       59.888       56.795     9432.169     3586.561     3225.620        1.909        0.812      143.025       28.618        0.040      336.761        8.278      860.881
11/28/2013  12:31:00       82.482      124.986      129.244       81.308       73.325       55.250     6610.974     5376.603     3052.522        2.708        0.752      149.749       58.881        0.155      336.658        8.105      860.883
11/28/2013  12:32:00       72.615       84.394       87.537       89.551       80.442       55.215     8019.362     6470.905     3048.667        1.879        0.877      111.334       55.803        0.251      336.773        8.299      860.881
11/28/2013  12:33:00       26.977       68.963       72.945       34.051       39.847       34.383     1159.451     1587.764     1182.208        0.737        0.196       74.052       27.794        0.141      336.846        8.423      860.896
11/28/2013  12:34:00       87.619       92.390       70.397       57.214       37.559       39.938     3273.472     1410.688     1595.077        1.372        0.314      127.331       34.691        0.074      336.658        8.108      860.901
11/28/2013  12:35:00       78.837       37.283       16.522       41.375       56.497       30.622     1711.876     3191.881      937.694        0.686        0.292       87.209       21.111        0.059      336.536        7.904      860.894
11/28/2013  12:36:00       44.143       52.894       -7.340       31.674       31.065       21.121     1003.271      965.004      446.115        0.361        0.121       68.894       14.961        0.047      336.752        8.265      860.887
11/28/2013  12:37:00       53.619       55.374       20.416       38.458       40.188       49.156     1478.993     1615.084     2416.327        0.593        0.276       77.080       23.464        0.093      336.955        8.603      860.883
11/28/2013  12:38:00       20.095      106.347      133.588       59.596       74.207       55.277     3551.663     5506.605     3055.499        2.083        0.606      108.229       60.848        0.316      336.871        8.463      860.864
11/28/2013  12:39:00       39.467       37.789       67.648       51.448       64.650       52.910     2646.891     4179.560     2799.467        0.859        0.481       54.641       46.799        0.734      336.886        8.489      860.876
11/28/2013  12:40:00       82.963       83.956       57.012       62.967       48.648       51.399     3964.791     2366.587     2641.869        1.308        0.449      118.032       39.621        0.113      336.753        8.266      860.874
11/28/2013  12:41:00       77.540       20.585       19.972       53.106       33.052       35.743     2820.204     1092.457     1277.579        0.601        0.260       80.226       29.280        0.133      336.790        8.329      860.873
11/28/2013  12:42:00       26.368       27.587       70.751       35.214       48.482       32.836     1239.997     2350.543     1078.170        0.556        0.233       38.161       11.454        0.090      337.050        8.761      860.866
11/28/2013  12:43:00       37.062       43.897       58.921       44.525       36.215       36.550     1982.487     1311.550     1335.912        0.570        0.231       57.450       31.959        0.309      337.044        8.753      860.875
11/28/2013  12:44:00       13.501       66.608       71.320       61.189       43.162       63.799     3744.141     1862.974     4070.366        0.969        0.484       67.962       56.151        0.683      336.959        8.611      860.865
11/28/2013  12:45:00       55.827       27.840       12.367       29.553       30.074       23.170      873.361      904.428      536.864        0.318        0.116       62.384       14.215        0.052      336.851        8.429      860.879
11/28/2013  12:46:00       68.317       47.403       27.872       40.420       34.519       34.625     1633.786     1191.555     1198.866        0.586        0.201       83.153       10.915        0.017      337.058        8.777      860.870
11/28/2013  12:47:00       25.192       61.333       49.056       50.964       32.375       42.939     2597.302     1048.121     1843.729        0.614        0.274       66.305       26.522        0.160      337.143        8.918      860.876
11/28/2013  12:48:00       20.342      101.621      108.463       51.563       53.356       44.442     2658.714     2846.891     1975.080        1.499        0.374      103.637       38.193        0.136      336.934        8.568      860.875
11/28/2013  12:49:00      120.459      116.458       41.988       61.682       48.120       70.371     3804.677     2315.560     4952.064        2.045        0.554      167.550       39.288        0.055      336.782        8.313      860.882
11/28/2013  12:50:00       63.152       70.452       -4.669       39.490       37.588       34.790     1559.471     1412.862     1210.336        0.658        0.209       94.613       29.485        0.097      336.871        8.463      860.869
11/28/2013  12:51:00       16.249       63.060       -8.313       26.047       32.691       21.856      678.466     1068.685      477.696        0.327        0.111       65.119       20.324        0.097      336.934        8.570      860.848
11/28/2013  12:52:00       32.832       62.833        7.170       30.953       59.854       29.948      958.067     3582.504      896.874        0.526        0.272       70.894       29.551        0.174      336.962        8.616      860.834
11/28/2013  12:53:00       18.599       59.985      -12.397       25.040       26.213       14.914      626.991      687.136      222.414        0.282        0.077       62.803       14.045        0.050      336.800        8.346      860.824
11/28/2013  12:54:00       88.249       58.260       22.947       44.449       34.517       21.269     1975.741     1191.447      452.371        0.766        0.181      105.745       12.245        0.013      336.865        8.452      860.819
11/28/2013  12:55:00       94.511       46.273       24.009       63.152       37.098       33.329     3988.146     1376.227     1110.797        0.906        0.324      105.231       29.074        0.076      337.052        8.765      860.805
11/28/2013  12:56:00       56.203       50.858       48.791       43.872       25.980       34.680     1924.712      674.981     1202.715        0.596        0.190       75.797       28.563        0.142      337.092        8.832      860.807
11/28/2013  12:57:00       39.957       85.349      102.976       52.328       57.293       40.005     2738.237     3282.521     1600.393        1.355        0.381       94.240       43.224        0.210      337.075        8.804      860.808
11/28/2013  12:58:00       91.231       30.849       19.013       56.469       41.964       38.073     3188.789     1760.963     1449.564        0.802        0.320       96.306       20.599        0.046      336.927        8.557      860.807
11/28/2013  12:59:00       92.053        6.699       35.518       41.643       43.019       30.407     1734.172     1850.650      924.596        0.714        0.225       92.296       29.073        0.099      337.150        8.930      860.790
11/28/2013  13:00:00       12.015       29.523       54.733       47.418       44.462       33.586     2248.469     1976.854     1127.994        0.468        0.268       31.874       37.326        1.371      337.334        9.237      860.773
11/28/2013  13:01:00       19.477       52.140       72.252       41.263       38.560       30.620     1702.635     1486.866      937.608        0.622        0.206       55.659       16.690        0.090      337.203        9.018      860.763
11/28/2013  13:02:00      103.072       99.962       59.798       47.296       38.416       34.680     2236.915     1475.772     1202.678        1.455        0.246      143.584       27.434        0.037      336.967        8.623      860.757
11/28/2013  13:03:00       60.794       40.536       35.510       48.370       54.692       40.501     2339.676     2991.213     1640.321        0.678        0.349       73.068       42.165        0.333      337.073        8.800      860.752
11/28/2013  13:04:00       23.660       56.452       58.021       35.673       24.120       31.171     1272.549      581.782      971.603        0.497        0.141       61.210       26.496        0.187      337.148        8.926      860.746
11/28/2013  13:05:00       13.813       46.527       53.163       39.185       42.466       29.705     1535.493     1803.347      882.409        0.470        0.211       48.534       27.836        0.329      337.241        9.083      860.745
11/28/2013  13:06:00       27.046       34.055        3.083       25.913       31.004       20.485      671.478      961.258      419.620        0.198        0.103       43.489       10.511        0.058      337.151        8.931      860.743
11/28/2013  13:07:00       26.951       78.685       -9.623       29.142       32.821       19.517      849.263     1077.213      380.894        0.466        0.115       83.173       18.912        0.052      337.113        8.868      860.733
11/28/2013  13:08:00       38.006       60.572        0.828       31.345       31.712       26.218      982.521     1005.679      687.365        0.389        0.134       71.508       21.673        0.092      337.087        8.824      860.726
11/28/2013  13:09:00       47.557       10.984        8.185       20.461       42.682       26.450      418.655     1821.763      699.597        0.269        0.147       48.809       24.184        0.246      337.210        9.030      860.731
11/28/2013  13:10:00       -5.019       38.816       55.332       17.400       38.756       34.142      302.750     1502.029     1165.645        0.378        0.149       39.139       26.100        0.445      337.432        9.401      860.726
11/28/2013  13:11:00       19.545        5.664       36.250       34.039       38.067       26.765     1158.670     1449.115      716.384        0.253        0.166       20.349       20.749        1.040      337.396        9.340      860.740
11/28/2013  13:12:00       45.544      -65.540       12.847       36.289       46.177       32.611     1316.860     2132.356     1063.508        0.552        0.226       79.810       25.778        0.104      337.251        9.099      860.737
11/28/2013  13:13:00       29.689      -33.555       12.940       40.557       46.113       41.309     1644.839     2126.448     1706.465        0.383        0.274       44.804       29.137        0.423      337.291        9.166      860.738
11/28/2013  13:14:00       44.798       78.188       61.598       62.403       36.996       39.418     3894.133     1368.674     1553.802        0.936        0.341       90.112       37.322        0.172      337.227        9.059      860.745
11/28/2013  13:15:00       44.105       55.470       42.714       31.272       37.211       28.385      977.925     1384.639      805.720        0.501        0.158       70.867       17.034        0.058      337.297        9.176      860.749
11/28/2013  13:16:00       60.112     -109.734      -13.740       30.957       37.367       21.600      958.308     1396.298      466.540        0.933        0.141      125.120        9.505        0.006      337.219        9.044      860.747
11/28/2013  13:17:00       35.638       27.199       20.335       23.890       41.716       30.538      570.739     1740.199      932.559        0.283        0.162       44.831       30.476        0.462      337.364        9.289      860.750
11/28/2013  13:18:00       72.773       46.002       43.733       61.659       45.430       35.144     3801.772     2063.847     1235.092        0.821        0.355       86.093       30.174        0.123      337.336        9.242      860.760
11/28/2013  13:19:00       71.734       95.233       71.902       59.417       41.189       46.510     3530.424     1696.518     2163.138        1.339        0.370      119.227       40.215        0.114      337.241        9.082      860.763
11/28/2013  13:20:00       48.884       14.716       44.983       50.983       99.584       40.712     2599.280     9917.002     1657.467        0.940        0.709       51.051       47.263        0.857      337.244        9.087      860.775
11/28/2013  13:21:00       61.056     -117.028       -1.742       43.328       70.404       34.841     1877.285     4956.759     1213.871        1.274        0.402      131.997       26.407        0.040      337.270        9.130      860.776
11/28/2013  13:22:00        9.092        2.607       22.396       29.952       58.084       42.280      897.148     3373.741     1787.639        0.332        0.303        9.459       33.472       12.523      337.359        9.279      860.781
11/28/2013  13:23:00       20.300       49.460       72.882       45.453       58.723       52.869     2065.992     3448.432     2795.141        0.824        0.415       53.464       50.860        0.905      337.280        9.147      860.786
11/28/2013  13:24:00       27.856       36.505       31.097       23.437       16.397       24.230      549.310      268.852      587.090        0.224        0.070       45.919       16.024        0.122      337.159        8.945      860.770
11/28/2013  13:25:00       30.302       37.080       24.760       26.480       17.889       20.596      701.206      320.020      424.178        0.218        0.072       47.887       12.880        0.072      337.185        8.988      860.745
11/28/2013  13:26:00       40.771        8.415       20.924       37.682       31.671       26.341     1419.939     1003.031      693.837        0.264        0.156       41.630       23.571        0.321      337.334        9.239      860.739
11/28/2013  13:27:00       10.466      -22.232       23.299       35.754       50.600       31.741     1278.346     2560.310     1007.523        0.300        0.242       24.572       32.260        1.724      337.503        9.520      860.742
11/28/2013  13:28:00       53.026       34.032       39.265       45.893       44.680       35.444     2106.192     1996.283     1256.288        0.543        0.268       63.007       30.795        0.239      337.369        9.297      860.743
11/28/2013  13:29:00       65.437       30.549       53.864       62.698       56.743       35.847     3930.991     3219.793     1284.987        0.827        0.422       72.217       48.313        0.448      337.358        9.278      860.738
11/28/2013  13:30:00       28.971       38.206       80.310       53.171       57.189       42.308     2827.151     3270.533     1790.007        0.832        0.394       47.948       41.818        0.761      337.399        9.348      860.740
11/28/2013  13:31:00       40.247       78.567       77.403       42.192       30.807       24.933     1780.207      949.094      621.677        0.857        0.168       88.276       21.148        0.057      337.302        9.184      860.742
11/28/2013  13:32:00       67.144       92.906       88.138       71.211       43.785       53.254     5071.024     1917.129     2835.960        1.536        0.491      114.629       47.837        0.174      337.315        9.207      860.733
11/28/2013  13:33:00       27.145       32.489       26.182       37.538       31.608       26.347     1409.089      999.076      694.164        0.279        0.155       42.336       22.841        0.291      337.344        9.255      860.738
11/28/2013  13:34:00       44.337       58.767       62.713       48.403       32.504       33.641     2342.833     1056.524     1131.735        0.694        0.227       73.616       22.705        0.095      337.431        9.400      860.722
11/28/2013  13:35:00       78.770       70.377       83.468       70.253       54.449       38.002     4935.484     2964.670     1444.185        1.373        0.467      105.629       40.788        0.149      337.303        9.187      860.720
11/28/2013  13:36:00       82.443       50.691       33.593       59.666       45.543       42.032     3560.038     2074.160     1766.707        0.895        0.370       96.780       29.320        0.092      337.313        9.203      860.709
11/28/2013  13:37:00       59.432       36.679       28.579       42.282       28.465       29.220     1787.733      810.243      853.826        0.457        0.173       69.839       16.275        0.054      337.364        9.288      860.705
11/28/2013  13:38:00       58.264       12.122       29.348       55.660       41.110       43.332     3098.079     1690.013     1877.676        0.553        0.333       59.512       34.690        0.340      337.408        9.362      860.698
11/28/2013  13:39:00       49.234      -23.834       21.637       48.761       59.569       46.891     2377.603     3548.421     2198.733        0.579        0.406       54.700       45.507        0.692      337.529        9.564      860.684
11/28/2013  13:40:00       48.981        7.407       40.226       41.273       30.640       42.565     1703.479      938.833     1811.737        0.426        0.223       49.538       28.145        0.323      337.652        9.771      860.674
11/28/2013  13:41:00       73.663      -18.180       -1.104       45.353       56.330       37.333     2056.852     3173.017     1393.771        0.619        0.331       75.874       25.764        0.115      337.510        9.532      860.661
11/28/2013  13:42:00       38.679       50.390       49.284       52.036       42.649       44.385     2707.745     1818.977     1970.000        0.648        0.325       63.523       37.851        0.355      337.689        9.833      860.661
11/28/2013  13:43:00       77.578       93.958       91.423       65.224       52.088       45.902     4254.107     2713.204     2107.004        1.614        0.454      121.846       43.599        0.128      337.378        9.311      860.655
11/28/2013  13:44:00       81.067       89.192       82.478       51.687       43.928       30.626     2671.520     1929.703      937.964        1.343        0.277      120.528       24.131        0.040      337.429        9.396      860.656
11/28/2013  13:45:00       95.491      110.994      115.244       70.246       61.391       51.683     4934.527     3768.898     2671.178        2.304        0.569      146.418       46.219        0.100      337.445        9.421      860.649
11/28/2013  13:46:00       98.410       37.976       56.939       68.668       50.485       45.185     4715.243     2548.697     2041.694        1.184        0.465      105.483       36.623        0.121      337.382        9.319      860.650
11/28/2013  13:47:00       87.697       70.661       98.689       59.464       64.583       46.155     3536.019     4170.903     2130.238        1.613        0.492      112.622       46.657        0.172      337.508        9.528      860.647
11/28/2013  13:48:00      117.637      100.291      114.636       96.721       75.795       63.590     9354.990     5744.816     4043.744        2.809        0.957      154.586       67.228        0.189      337.446        9.423      860.645
11/28/2013  13:49:00      130.177       83.340       88.444       85.582       82.092       59.857     7324.213     6739.159     3582.905        2.468        0.882      154.569       58.434        0.143      337.350        9.262      860.655
11/28/2013  13:50:00       84.958       63.443       87.635       65.316       64.169       44.829     4266.216     4117.621     2009.666        1.466        0.520      106.032       44.311        0.175      337.440        9.416      860.663
11/28/2013  13:51:00       96.556       63.886       44.886       67.961       54.508       44.284     4618.631     2971.105     1961.088        1.248        0.478      115.777       39.042        0.114      337.400        9.347      860.664
11/28/2013  13:52:00       55.886       95.312      103.742       70.194       60.945       49.957     4927.213     3714.273     2495.750        1.705        0.557      110.488       37.029        0.112      337.415        9.373      860.664
11/28/2013  13:53:00       85.270       50.470       78.483       64.463       75.071       41.775     4155.485     5635.585     1745.140        1.375        0.577       99.087       39.550        0.159      337.414        9.371      860.650
11/28/2013  13:54:00       30.715       57.603       72.070       70.312       64.193       60.369     4943.710     4120.683     3644.424        1.108        0.635       65.280       54.190        0.689      337.581        9.653      860.630
11/28/2013  13:55:00       36.032       74.667      101.634       55.179       54.247       42.672     3044.776     2942.758     1820.885        1.250        0.390       82.907       43.489        0.275      337.552        9.604      860.637
11/28/2013  13:56:00       38.789       29.014       77.420       58.369       98.453       57.217     3406.951     9692.941     3273.767        1.235        0.819       48.439       61.157        1.594      337.658        9.782      860.639
11/28/2013  13:57:00       26.589       60.426       91.106       57.826       91.036       52.678     3343.795     8287.570     2774.955        1.353        0.720       66.018       60.443        0.838      337.549        9.598      860.648
11/28/2013  13:58:00       50.883       51.512       35.613       51.078       46.705       40.577     2608.925     2181.350     1646.496        0.647        0.322       72.406       31.280        0.187      337.454        9.439      860.663
11/28/2013  13:59:00       63.646       57.096       61.352       40.525       35.108       24.684     1642.264     1232.582      609.286        0.728        0.174       85.503       12.573        0.022      337.468        9.462      860.661
11/28/2013  14:00:00       -1.265        4.222       20.903       30.981       35.897       17.055      959.804     1288.565      290.882        0.150        0.127        4.408        9.633        4.776      337.662        9.788      860.658
11/28/2013  14:01:00       31.302      -43.333       18.247       31.410       59.083       29.862      986.611     3490.812      891.764        0.428        0.268       53.456       30.299        0.321      337.726        9.895      860.653
11/28/2013  14:02:00       25.731        1.324       28.117       26.239       63.484       28.329      688.498     4030.272      802.553        0.349        0.276       25.765       21.619        0.704      337.690        9.835      860.650
11/28/2013  14:03:00       -7.884      -31.272        4.536       28.278       33.839       17.293      799.640     1145.099      299.055        0.165        0.112       32.250       11.863        0.135      337.789       10.000      860.652
11/28/2013  14:04:00        5.573        0.836       26.249       34.234       44.051       30.616     1171.963     1940.463      937.351        0.238        0.202        5.635       32.917       34.125      337.816       10.046      860.649
11/28/2013  14:05:00       38.565       31.617       38.016       53.877       35.192       34.673     2902.758     1238.447     1202.220        0.464        0.267       49.869       26.205        0.276      337.581        9.652      860.658
11/28/2013  14:06:00       79.541       68.857       44.840       55.396       39.572       46.516     3068.713     1565.929     2163.741        0.994        0.340      105.205       41.935        0.159      337.398        9.345      860.660
11/28/2013  14:07:00       65.743        1.498       36.592       47.023       73.627       49.891     2211.189     5420.971     2489.127        0.789        0.506       65.760       59.899        0.830      337.410        9.365      860.663
11/28/2013  14:08:00       68.555       41.938       26.292       33.097       27.865       31.400     1095.418      776.468      985.944        0.500        0.143       80.366       23.147        0.083      337.462        9.450      860.661
11/28/2013  14:09:00       30.790       73.566       69.038       51.466       37.502       25.829     2648.698     1406.392      667.121        0.792        0.236       79.749       19.113        0.057      337.593        9.672      860.660
11/28/2013  14:10:00      124.717       81.185       30.631       37.546       33.821       29.423     1409.689     1143.886      865.696        1.325        0.171      148.813       21.453        0.021      337.420        9.383      860.663
11/28/2013  14:11:00       53.332       45.011       40.344       26.165       38.737       29.948      684.590     1500.547      896.901        0.479        0.154       69.787       23.364        0.112      337.499        9.514      860.673
11/28/2013  14:12:00       39.409       43.024       27.421       27.027       22.224       23.901      730.449      493.907      571.237        0.298        0.090       58.345       13.596        0.054      337.507        9.527      860.681
11/28/2013  14:13:00       50.209       69.067       -0.414       32.358       22.288       16.954     1047.036      496.737      287.434        0.456        0.092       85.389        7.571        0.008      337.524        9.557      860.675
11/28/2013  14:14:00       33.887       22.566       16.150       28.024       26.077       24.305      785.362      680.019      590.725        0.199        0.103       40.713       15.950        0.153      337.519        9.547      860.674
11/28/2013  14:15:00       57.277       35.503       29.878       44.565       23.843       26.277     1986.013      568.473      690.473        0.434        0.162       67.388       15.446        0.053      337.528        9.564      860.679
11/28/2013  14:16:00       24.641       21.630       27.062       32.845       22.925       28.386     1078.796      525.539      805.747        0.211        0.121       32.788       18.256        0.310      337.595        9.676      860.682
11/28/2013  14:17:00       38.247        4.018       31.217       34.150       29.973       28.667     1166.238      898.356      821.792        0.267        0.144       38.457       27.514        0.512      337.515        9.541      860.692
11/28/2013  14:18:00       35.147       32.678       47.360       42.980       27.972       28.556     1847.241      782.433      815.424        0.399        0.172       47.991       31.447        0.429      337.517        9.543      860.690
11/28/2013  14:19:00       57.962       32.074       43.232       36.407       47.117       29.985     1325.477     2219.988      899.070        0.535        0.222       66.244       33.000        0.248      337.468        9.463      860.692
11/28/2013  14:20:00       34.038       26.188       38.503       32.433       60.727       44.259     1051.918     3687.757     1958.864        0.501        0.335       42.946       50.148        1.363      337.473        9.470      860.691
11/28/2013  14:21:00       32.551       56.033       53.437       34.012       34.683       27.321     1156.843     1202.887      746.420        0.508        0.155       64.802       20.911        0.104      337.521        9.550      860.699
11/28/2013  14:22:00        0.968       40.257       61.385       29.877       36.399       40.296      892.663     1324.913     1623.787        0.461        0.192       40.269       35.618        0.782      337.583        9.655      860.700
11/28/2013  14:23:00       40.903       88.514       74.778       27.815       22.388       23.003      773.691      501.217      529.144        0.845        0.090       97.508       16.605        0.029      337.504        9.522      860.707
11/28/2013  14:24:00       74.256       49.984       29.201       23.748       22.471       24.043      563.961      504.928      578.052        0.526        0.082       89.512       14.125        0.025      337.508        9.529      860.722
11/28/2013  14:25:00       44.131       38.465       32.974       26.469       21.703       18.392      700.601      471.002      338.251        0.301        0.075       58.541       14.132        0.058      337.629        9.733      860.728
11/28/2013  14:26:00        7.715       -0.519       16.868       17.256       24.085       16.773      297.758      580.073      281.341        0.075        0.058        7.733        9.108        1.388      337.782        9.987      860.740
11/28/2013  14:27:00        7.453       12.949       24.222       20.986       23.589       20.053      440.433      556.419      402.134        0.110        0.070       14.941       18.405        1.517      337.761        9.953      860.749
11/28/2013  14:28:00       60.404       36.648       25.865       25.615       21.721       20.347      656.130      471.813      414.006        0.360        0.077       70.652       12.002        0.029      337.596        9.677      860.765
11/28/2013  14:29:00       85.928       62.179       18.873       45.485       26.703       29.507     2068.845      713.025      870.688        0.763        0.183      106.066       22.831        0.046      337.582        9.655      860.767
11/28/2013  14:30:00       96.281       56.098       11.008       39.771       31.556       20.011     1581.730      995.791      400.434        0.776        0.149      111.432       14.557        0.017      337.504        9.523      860.772
11/28/2013  14:31:00       95.764       46.544       17.293       32.655       31.282       24.239     1066.360      978.564      587.533        0.713        0.132      106.475       20.133        0.036      337.496        9.510      860.779
11/28/2013  14:32:00       66.569       45.548       21.057       17.770       20.741       20.409      315.765      430.193      416.543        0.406        0.058       80.660       10.699        0.018      337.488        9.496      860.779
11/28/2013  14:33:00       23.400       10.646       10.686       27.931       22.037       14.545      780.121      485.616      211.562        0.113        0.074       25.708        8.119        0.100      337.637        9.744      860.782
11/28/2013  14:34:00       25.335       13.662       13.399       27.146       31.509       12.644      736.906      992.841      159.859        0.145        0.094       28.783        7.124        0.061      337.641        9.753      860.787
11/28/2013  14:35:00       31.716      -30.536        1.562       36.115       39.028       27.154     1304.306     1523.193      737.328        0.275        0.178       44.027       23.575        0.287      337.720        9.884      860.798
11/28/2013  14:36:00       39.165      -27.261       16.346       34.084       72.330       29.169     1161.692     5231.674      850.827        0.489        0.362       47.718       40.909        0.735      337.667        9.795      860.804
11/28/2013  14:37:00       16.108       32.954       39.074       15.558       23.726       19.108      242.041      562.940      365.134        0.202        0.059       36.680       16.622        0.205      337.684        9.824      860.815
11/28/2013  14:38:00       22.423       14.990       41.546       26.438       22.783       16.553      698.990      519.074      273.990        0.197        0.075       26.972       13.233        0.241      337.842       10.089      860.821
11/28/2013  14:39:00       20.478       17.782       19.635       16.573       17.882       17.054      274.674      319.767      290.854        0.100        0.044       27.121       13.242        0.238      337.812       10.038      860.831
11/28/2013  14:40:00        7.059        5.460        2.180        7.629        7.774       10.964       58.209       60.439      120.202        0.016        0.012        8.924        6.194        0.482      337.856       10.112      860.840
11/28/2013  14:41:00       11.823       44.290       -1.501       15.206       20.349       10.953      231.218      414.089      119.974        0.143        0.038       45.840        8.383        0.033      337.625        9.725      860.846
11/28/2013  14:42:00       -7.570       10.434        2.826        8.893       19.478        7.352       79.082      379.392       54.047        0.034        0.026       12.891        3.180        0.061      337.701        9.853      860.853
11/28/2013  14:43:00      -10.183      -20.601        7.312       19.454       22.600       14.698      378.457      510.745      216.019        0.084        0.055       22.980       12.723        0.307      337.860       10.118      860.859
11/28/2013  14:44:00      -18.522      -24.015        2.779       13.771       19.385       15.872      189.636      375.783      251.927        0.087        0.041       30.328       10.038        0.110      337.848       10.100      860.865
11/28/2013  14:45:00       -8.988      -20.879        9.191       16.423       12.686       12.806      269.706      160.938      163.986        0.060        0.030       22.731        6.427        0.080      337.875       10.145      860.874
11/28/2013  14:46:00       15.924        5.749        3.372       22.687       36.839       23.808      514.695     1357.129      566.833        0.137        0.122       16.930       27.086        2.560      337.794       10.010      860.882
11/28/2013  14:47:00       22.256       43.903       52.671       31.469       27.116       16.158      990.313      735.285      261.090        0.359        0.099       49.222       15.028        0.093      337.742        9.922      860.893
11/28/2013  14:48:00       41.014       39.758       19.565       29.656       27.762       21.322      879.453      770.702      454.626        0.287        0.105       57.121       13.122        0.053      337.682        9.822      860.899
11/28/2013  14:49:00       37.093       30.870      -18.679       15.260       33.679       11.596      232.863     1134.273      134.468        0.209        0.075       48.258       16.260        0.114      337.584        9.657      860.907
11/28/2013  14:50:00       27.251       25.409        9.926       16.401       17.649       15.299      268.981      311.473      234.045        0.115        0.041       37.259        9.181        0.061      337.623        9.720      860.907
11/28/2013  14:51:00       38.575       45.090        1.197       33.517       25.128       16.705     1123.388      631.401      279.042        0.278        0.102       59.339       14.350        0.058      337.633        9.737      860.907
11/28/2013  14:52:00       25.433       54.419        4.774       42.092       28.866       19.720     1771.747      833.218      388.859        0.331        0.150       60.068       19.749        0.108      337.600        9.683      860.905
11/28/2013  14:53:00      -10.853       16.165       -8.341       19.520       27.374       15.882      381.029      749.337      252.239        0.092        0.069       19.471        7.670        0.155      337.647        9.761      860.906
11/28/2013  14:54:00        8.985       21.455        7.024       21.723       18.717       15.150      471.876      350.340      229.515        0.082        0.053       23.260       15.955        0.471      337.695        9.843      860.909
11/28/2013  14:55:00       29.637       37.234       20.848       14.684       11.633       13.932      215.613      135.316      194.092        0.162        0.027       47.589        5.394        0.013      337.636        9.743      860.912
11/28/2013  14:56:00       17.249       10.774        5.897       16.499       21.552       16.299      272.209      464.486      265.643        0.073        0.050       20.338        5.134        0.064      337.753        9.940      860.916
11/28/2013  14:57:00       26.592       15.326       13.388       29.455       32.381       19.170      867.585     1048.512      367.505        0.170        0.114       30.692       18.986        0.383      337.757        9.947      860.924
11/28/2013  14:58:00       51.761       43.199       26.049       26.239       18.227       14.378      688.493      332.208      206.723        0.323        0.061       67.420       12.722        0.036      337.745        9.927      860.926
11/28/2013  14:59:00       26.050       28.009       23.788       20.979       16.435       15.697      440.138      270.125      246.395        0.149        0.048       38.250        9.778        0.065      337.830       10.068      860.928
11/28/2013  15:00:00       55.842       29.254       17.759       29.017       16.844       18.304      841.964      283.722      335.044        0.287        0.073       63.040        6.807        0.012      337.716        9.879      860.933
11/28/2013  15:01:00       77.175       10.500        6.312       44.265       35.048       27.297     1959.372     1228.354      745.145        0.502        0.197       77.886       21.131        0.074      337.741        9.920      860.939
11/28/2013  15:02:00       44.591       32.016        5.396       21.782       22.080       19.367      474.434      487.505      375.079        0.219        0.067       54.894       14.568        0.070      337.766        9.962      860.940
11/28/2013  15:03:00       34.931       39.904       10.745       22.009       18.243       20.261      484.407      332.795      410.518        0.208        0.061       53.033        9.040        0.029      337.858       10.115      860.937
11/28/2013  15:04:00       42.002       25.385       25.425       34.844       26.303       21.676     1214.135      691.843      469.858        0.271        0.119       49.077        7.135        0.021      337.946       10.264      860.931
11/28/2013  15:05:00       86.653       46.761       15.000       32.787       23.969       28.732     1074.977      574.524      825.533        0.620        0.124       98.465       18.401        0.035      337.752        9.938      860.930
11/28/2013  15:06:00       34.576       19.147       36.212       30.643       27.384       20.150      938.975      749.907      406.005        0.248        0.105       39.523       14.607        0.137      337.908       10.202      860.928
11/28/2013  15:07:00       43.802       30.626       -1.810       21.728       16.697       16.308      472.123      278.805      265.967        0.194        0.051       53.446        7.888        0.022      337.753        9.939      860.935
11/28/2013  15:08:00       51.078       33.025        8.646       17.963       20.015       19.953      322.687      400.585      398.108        0.245        0.056       60.825       13.874        0.052      337.792       10.006      860.944
11/28/2013  15:09:00       56.578       52.719       70.709       50.400       41.427       27.076     2540.175     1716.174      733.084        0.798        0.249       77.333       29.148        0.142      337.890       10.170      860.957
11/28/2013  15:10:00       46.785       31.694       34.065       32.455       26.831       22.097     1053.345      719.928      488.299        0.331        0.113       56.510       15.997        0.080      337.898       10.183      860.973
11/28/2013  15:11:00       52.136       48.541       35.894       36.487       29.096       23.940     1331.337      846.553      573.132        0.456        0.138       71.235       15.097        0.045      337.922       10.223      860.981
11/28/2013  15:12:00       22.959       40.961       59.119       29.746       35.498       20.082      884.814     1260.096      403.305        0.412        0.127       46.956       17.591        0.140      337.957       10.283      860.986
11/28/2013  15:13:00       78.720       49.588       29.501       64.451       32.752       25.893     4153.974     1072.697      670.473        0.771        0.295       93.036       29.745        0.102      337.851       10.105      860.984
11/28/2013  15:14:00        6.746       70.313       68.068       38.128       42.899       37.491     1453.721     1840.301     1405.568        0.716        0.235       70.636       28.251        0.160      337.927       10.232      860.980
11/28/2013  15:15:00        7.039       47.701       10.797       32.064       42.990       21.721     1028.078     1848.100      471.803        0.289        0.167       48.218       15.020        0.097      337.900       10.185      860.988
11/28/2013  15:16:00       24.501       15.370       24.654       29.835       36.030       20.046      890.107     1298.196      401.833        0.202        0.130       28.923       15.595        0.291      337.982       10.323      860.988
11/28/2013  15:17:00       63.859       44.777       23.940       32.914       32.607       28.743     1083.362     1063.219      826.150        0.481        0.149       77.993       16.869        0.047      337.890       10.170      860.992
11/28/2013  15:18:00       13.858       24.285       41.126       23.662       40.570       27.635      559.868     1645.939      763.690        0.272        0.148       27.961       29.697        1.128      338.061       10.457      860.991
11/28/2013  15:19:00       32.856       57.522       15.418       23.987       17.922       30.333      575.369      321.214      920.118        0.322        0.091       66.244       21.443        0.105      337.930       10.237      860.994
11/28/2013  15:20:00       27.458       56.354       -5.605       14.393       28.513       13.924      207.172      813.008      193.872        0.259        0.061       62.687       11.713        0.035      337.891       10.171      860.994
11/28/2013  15:21:00       26.559       46.283      -10.773       12.185       28.506       12.911      148.469      812.596      166.687        0.205        0.056       53.362       15.579        0.085      337.902       10.191      861.001
11/28/2013  15:22:00       21.386       17.965       -0.247       13.874        9.801       11.321      192.478       96.051      128.173        0.060        0.021       27.930        5.312        0.036      337.952       10.274      861.011
11/28/2013  15:23:00       69.488       38.886        5.388       39.926       19.103       23.344     1594.080      364.907      544.934        0.444        0.125       79.629        4.904        0.004      337.909       10.202      861.026
11/28/2013  15:24:00       53.260       45.204        2.211       34.304       27.643       20.068     1176.785      764.152      402.707        0.361        0.117       69.857        4.825        0.005      337.900       10.186      861.038
11/28/2013  15:25:00       95.486       66.585       13.890       35.131       31.016       34.019     1234.158      962.005     1157.278        0.855        0.168      116.410       22.332        0.037      337.860       10.118      861.052
11/28/2013  15:26:00       88.475       42.080       12.263       37.400       32.049       22.885     1398.760     1027.166      523.727        0.635        0.147       97.973       13.659        0.019      337.850       10.102      861.058
11/28/2013  15:27:00       88.833       58.527       14.409       28.035       24.066       27.930      785.986      579.152      780.075        0.683        0.107      106.380       14.692        0.019      337.833       10.073      861.053
11/28/2013  15:28:00       61.671       25.788       18.662       56.912       42.362       37.492     3238.929     1794.579     1405.668        0.563        0.322       66.846       27.999        0.175      337.892       10.174      861.049
11/28/2013  15:29:00       87.012       48.081       19.292       56.727       37.610       30.701     3217.945     1414.513      942.555        0.791        0.279       99.412       25.119        0.064      337.884       10.160      861.050
11/28/2013  15:30:00       84.431       56.163       33.786       42.461       22.603       25.507     1802.908      510.896      650.613        0.719        0.148      101.405       21.967        0.047      337.872       10.140      861.050
11/28/2013  15:31:00        6.508       20.997       24.195       27.691       16.471       13.879      766.804      271.279      192.614        0.115        0.062       21.983       15.531        0.499      337.959       10.286      861.057
11/28/2013  15:32:00        9.490       29.569       39.703       18.057       15.462       11.755      326.047      239.071      138.173        0.162        0.035       31.054       11.165        0.129      337.971       10.307      861.050
11/28/2013  15:33:00       14.352       17.794        2.611        9.935       12.819       10.191       98.702      164.315      103.861        0.045        0.018       22.861        5.817        0.065      337.924       10.228      861.057
11/28/2013  15:34:00       48.274       29.744        2.994       18.854       17.576       14.755      355.456      308.906      217.702        0.205        0.044       56.701       10.711        0.036      337.926       10.231      861.059
11/28/2013  15:35:00       20.866       46.037       -5.429       12.654       12.612        6.243      160.120      159.064       38.970        0.147        0.018       50.545        6.177        0.015      337.933       10.242      861.063
11/28/2013  15:36:00       24.461       87.867      -12.889       26.871       30.670       19.905      722.038      940.649      396.214        0.527        0.103       91.209       17.722        0.038      337.950       10.272      861.073
11/28/2013  15:37:00       13.593       46.884        2.085       26.476       38.164       19.901      700.970     1456.457      396.050        0.247        0.128       48.814       17.512        0.129      337.993       10.343      861.068
11/28/2013  15:38:00       31.943       68.861      -14.037       32.980       30.652       22.710     1087.704      939.546      515.731        0.425        0.127       75.909       18.656        0.060      337.939       10.254      861.075
11/28/2013  15:39:00       52.242       66.771      -11.361       31.124       29.722       18.691      968.673      883.388      349.361        0.476        0.110       84.779       15.284        0.033      337.964       10.293      861.066
11/28/2013  15:40:00       86.119       55.639        0.992       29.056       21.770       20.557      844.229      473.916      422.598        0.613        0.087      102.529       11.809        0.013      337.953       10.275      861.059
11/28/2013  15:41:00       61.155       30.150        6.286       36.113       27.004       16.492     1304.159      729.232      271.987        0.350        0.115       68.183       12.569        0.034      337.992       10.342      861.050
11/28/2013  15:42:00       60.695       34.849       42.150       35.860       32.745       32.348     1285.957     1072.203     1046.372        0.504        0.170       69.988       19.146        0.075      338.036       10.414      861.050
11/28/2013  15:43:00       52.331       68.293       65.781       56.392       38.917       40.587     3180.056     1514.550     1647.280        0.903        0.317       86.038       33.499        0.152      337.982       10.324      861.054
11/28/2013  15:44:00       68.090       35.998       60.739       31.174       28.428       24.874      971.814      808.175      618.722        0.601        0.120       77.020       23.238        0.091      337.994       10.344      861.066
11/28/2013  15:45:00       59.544       62.821       44.964       37.577       27.591       22.953     1412.017      761.237      526.849        0.611        0.135       86.556       14.301        0.027      337.979       10.319      861.075
11/28/2013  15:46:00       56.652       33.675       58.001       43.838       39.935       24.686     1921.809     1594.793      609.419        0.592        0.206       65.905       23.858        0.131      337.978       10.318      861.089
11/28/2013  15:47:00       65.340       43.224       53.145       45.521       46.899       35.053     2072.187     2199.541     1228.733        0.723        0.275       78.343       37.106        0.224      337.969       10.303      861.098
11/28/2013  15:48:00       39.579       64.019       68.393       49.258       38.391       31.179     2426.368     1473.897      972.158        0.761        0.244       75.265       34.989        0.216      337.963       10.292      861.112
11/28/2013  15:49:00       47.294       63.059       41.676       26.866       15.174       21.375      721.775      230.243      456.892        0.468        0.070       78.824       14.317        0.033      337.981       10.321      861.126
11/28/2013  15:50:00       86.475       45.426       22.553       40.884       23.043       31.765     1671.463      530.959     1008.985        0.663        0.161       97.681       11.611        0.014      337.937       10.248      861.140
11/28/2013  15:51:00      107.764       68.838       19.245       43.348       31.166       30.505     1879.050      971.300      930.552        1.025        0.189      127.874       25.626        0.040      337.863       10.126      861.148
11/28/2013  15:52:00       87.070       34.869       17.653       29.410       32.696       28.170      864.928     1069.057      793.561        0.592        0.136       93.792       12.533        0.018      337.842       10.090      861.159
11/28/2013  15:53:00       46.865       23.679       30.193       29.939       27.854       25.639      896.342      775.859      657.378        0.300        0.116       52.508       20.215        0.148      337.882       10.156      861.159
11/28/2013  15:54:00       55.927       43.087       15.297       28.919       26.803       22.154      836.325      718.407      490.783        0.363        0.102       70.599       17.970        0.065      337.837       10.081      861.175
11/28/2013  15:55:00       12.128       39.118       53.421       36.924       28.961       20.578     1363.393      838.718      423.448        0.358        0.131       40.955       19.914        0.236      337.879       10.151      861.183
11/28/2013  15:56:00       79.014       56.087       35.112       28.295       23.448       26.091      800.601      549.787      680.728        0.633        0.102       96.896       14.208        0.022      337.797       10.014      861.186
11/28/2013  15:57:00       90.821       45.016       31.250       31.527       28.070       20.491      993.924      787.920      419.892        0.673        0.110      101.365        4.842        0.002      337.808       10.033      861.188
11/28/2013  15:58:00       75.285       35.802       31.334       44.803       33.934       31.049     2007.333     1151.519      964.014        0.603        0.206       83.365       25.015        0.090      337.800       10.019      861.183
11/28/2013  15:59:00       92.611       46.867        3.278       41.105       38.447       27.689     1689.630     1478.155      766.693        0.736        0.197      103.795       19.986        0.037      337.802       10.022      861.185
11/28/2013  16:00:00      108.102       39.057       10.491       32.623       26.487       26.363     1064.229      701.562      694.984        0.789        0.123      114.941       17.209        0.022      337.805       10.026      861.185
11/28/2013  16:01:00       89.915       51.705        2.315       34.866       27.139       18.358     1215.640      736.538      337.030        0.653        0.114      103.721        7.957        0.006      337.816       10.045      861.187
11/28/2013  16:02:00      123.085       56.916       16.250       53.622       34.825       27.995     2875.285     1212.805      783.727        1.176        0.244      135.607       19.736        0.021      337.768        9.965      861.185
11/28/2013  16:03:00      120.145       48.656       19.608       43.760       32.300       31.490     1914.937     1043.308      991.646        1.057        0.197      129.624       27.176        0.044      337.761        9.952      861.189
11/28/2013  16:04:00       76.322       34.513       15.882       26.669       26.946       21.587      711.260      726.099      466.008        0.459        0.095       83.763       12.564        0.022      337.726        9.895      861.195
11/28/2013  16:05:00       61.580       34.753       38.691       34.147       24.881       21.279     1166.046      619.080      452.775        0.437        0.112       70.710       14.345        0.041      337.680        9.817      861.200
11/28/2013  16:06:00       55.886       31.319       37.377       27.365       21.118       25.631      748.857      445.986      656.961        0.368        0.093       64.063       19.795        0.095      337.729        9.900      861.217
11/28/2013  16:07:00       60.949       11.022       31.478       44.283       26.853       22.132     1960.999      721.096      489.834        0.400        0.159       61.938       15.181        0.060      337.756        9.945      861.224
11/28/2013  16:08:00       42.040       11.538       24.465       37.167       22.999       20.020     1381.417      528.971      400.818        0.240        0.116       43.594       19.695        0.204      337.743        9.922      861.231
11/28/2013  16:09:00       27.502       40.612       44.438       38.450       34.898       30.510     1478.372     1217.855      930.890        0.400        0.181       49.048       25.206        0.264      337.766        9.961      861.250
11/28/2013  16:10:00       30.710       32.117       43.211       32.622       30.627       23.778     1064.201      938.031      565.416        0.320        0.128       44.436       26.128        0.346      337.731        9.903      861.257
11/28/2013  16:11:00       49.345       24.509       32.493       20.181       17.580       18.201      407.261      309.046      331.261        0.257        0.052       55.097        5.066        0.008      337.713        9.872      861.277
11/28/2013  16:12:00       42.836       40.348       37.396       22.579       15.446       21.519      509.825      238.579      463.062        0.304        0.061       58.846       12.401        0.044      337.728        9.897      861.286
11/28/2013  16:13:00       39.838       41.935       28.190       26.062       22.595       23.734      679.225      510.540      563.283        0.295        0.088       57.841       20.219        0.122      337.756        9.943      861.305
11/28/2013  16:14:00       56.971       49.977       33.135       18.078       18.189       17.694      326.816      330.828      313.086        0.391        0.049       75.785        9.915        0.017      337.783        9.991      861.310
11/28/2013  16:15:00       15.752       29.312       46.133       18.703       19.483        8.864      349.806      379.587       78.564        0.202        0.040       33.277        9.866        0.088      337.777        9.980      861.320
11/28/2013  16:16:00       37.075       30.002       33.488       20.411       19.601       20.577      416.621      384.181      423.404        0.231        0.061       47.694       14.274        0.090      337.761        9.953      861.334
11/28/2013  16:17:00       35.864       41.715       48.302       22.191       21.970       13.875      492.442      482.702      192.523        0.326        0.058       55.012        6.497        0.014      337.756        9.944      861.334
11/28/2013  16:18:00       46.023       26.393       22.420       35.026       21.987       26.960     1226.849      483.420      726.843        0.288        0.122       53.054       22.254        0.176      337.729        9.899      861.341
11/28/2013  16:19:00       35.022       31.677       34.447       27.479       17.472       19.821      755.069      305.287      392.889        0.243        0.073       47.223       14.942        0.100      337.742        9.920      861.339
11/28/2013  16:20:00       50.497       17.643       27.222       32.393       24.391       25.145     1049.275      594.919      632.252        0.294        0.114       53.490       19.044        0.127      337.720        9.885      861.346
11/28/2013  16:21:00       22.456       30.661       25.915       21.509       22.793       17.442      462.650      519.510      304.238        0.170        0.064       38.005       15.207        0.160      337.677        9.813      861.333
11/28/2013  16:22:00       48.098       17.657       17.722       21.980       15.616       14.836      483.099      243.855      220.117        0.194        0.047       51.236       13.842        0.073      337.686        9.829      861.333
11/28/2013  16:23:00       40.771       11.994        7.279       22.490        9.559       10.463      505.792       91.382      109.467        0.128        0.035       42.498        5.789        0.019      337.710        9.868      861.321
11/28/2013  16:24:00       24.519       12.152        8.923       17.087       10.636       10.186      291.957      113.127      103.760        0.067        0.025       27.365        6.470        0.056      337.713        9.873      861.317
11/28/2013  16:25:00       21.097       10.779        3.341        8.339        5.394        7.703       69.539       29.093       59.329        0.037        0.008       23.691        5.925        0.063      337.724        9.892      861.315
11/28/2013  16:26:00       19.764       10.163       -0.532        4.104        2.926        2.004       16.846        8.561        4.015        0.026        0.001       22.224        2.262        0.010      337.790       10.001      861.320
11/28/2013  16:27:00       15.562        9.736        1.227        3.641        3.104        3.254       13.258        9.633       10.586        0.019        0.002       18.357        1.534        0.007      337.785        9.991      861.321
11/28/2013  16:28:00       17.570       11.148       -0.485        3.566        4.077        1.648       12.720       16.623        2.715        0.023        0.002       20.809        1.822        0.008      337.772        9.968      861.333
11/28/2013  16:29:00       20.389        3.095        0.469        1.872        4.184        1.390        3.503       17.505        1.933        0.022        0.001       20.622        1.500        0.005      337.770        9.962      861.341
11/28/2013  16:30:00       22.152        5.553       -0.534        3.576        3.574        2.245       12.787       12.776        5.041        0.028        0.002       22.837        1.823        0.006      337.794       10.013      861.349
11/28/2013  16:31:00       20.654        4.433        0.286        2.460        2.969        2.252        6.050        8.814        5.072        0.023        0.001       21.125        1.551        0.005      337.768        9.962      861.342
11/28/2013  16:32:00       16.379        7.076        0.175        4.225        2.785        0.971       17.853        7.754        0.942        0.017        0.001       17.842        0.612        0.001      337.785        9.989      861.342
11/28/2013  16:33:00        9.120        2.645        1.794        2.638        2.183        1.928        6.962        4.765        3.717        0.005        0.001        9.496        1.209        0.016      337.772        9.964      861.340
11/28/2013  16:34:00        5.920        1.415       -0.376        4.292        3.007        2.143       18.422        9.042        4.594        0.003        0.002        6.086        1.344        0.049      337.737        9.911      861.358
11/28/2013  16:35:00       -1.745       -2.069       -2.374        2.557        2.275        2.593        6.538        5.175        6.726        0.002        0.001        2.707        1.710        0.399      337.608        9.695      861.359
11/28/2013  16:36:00      -11.747        2.060        0.668        5.133        3.292        3.827       26.350       10.839       14.643        0.010        0.003       11.927        2.599        0.047      337.653        9.772      861.366
11/28/2013  16:37:00      -27.986       -3.189       -6.698        7.052        8.839        4.844       49.729       78.128       23.469        0.049        0.008       28.167        3.799        0.018      337.505        9.527      861.367
11/28/2013  16:38:00      -45.206        0.415       -8.533        9.009       10.582        7.430       81.157      111.987       55.200        0.118        0.012       45.208        7.258        0.026      337.467        9.460      861.378
11/28/2013  16:39:00      -44.383       -7.334       -8.305        9.585        4.898        3.781       91.868       23.989       14.296        0.111        0.007       44.985        2.396        0.003      337.509        9.531      861.377
11/28/2013  16:40:00       -7.082        6.174       -2.273       12.210       11.653        6.190      149.084      135.784       38.317        0.021        0.016        9.395        4.980        0.281      337.528        9.563      861.387
11/28/2013  16:41:00       15.833       12.337        4.084       10.544       10.490        9.164      111.179      110.033       83.986        0.036        0.015       20.072        5.562        0.077      337.562        9.620      861.380
11/28/2013  16:42:00       21.451       11.090        2.103        8.387        6.737        4.956       70.335       45.392       24.559        0.036        0.007       24.149        3.376        0.020      337.642        9.755      861.391
11/28/2013  16:43:00        8.835        7.816        0.263        8.570       10.793        5.392       73.444      116.496       29.078        0.018        0.011       11.796        6.066        0.264      337.635        9.742      861.390
11/28/2013  16:44:00       -6.519       39.542       -7.860       22.398       17.669       12.321      501.650      312.204      151.809        0.132        0.048       40.076        9.590        0.057      337.655        9.776      861.397
11/28/2013  16:45:00      -11.800       36.975      -10.820       24.458       21.867        8.989      598.193      478.164       80.799        0.139        0.058       38.813       10.398        0.072      337.545        9.591      861.404
11/28/2013  16:46:00       18.267       77.402      -15.533       17.945       22.929       12.004      322.010      525.753      144.094        0.378        0.050       79.529       11.099        0.019      337.650        9.767      861.416
11/28/2013  16:47:00       19.363       75.098       -9.012       18.860       31.559       18.436      355.707      995.988      339.897        0.389        0.085       77.554       11.207        0.021      337.446        9.425      861.430
11/28/2013  16:48:00       30.898       76.946      -14.621       24.719       33.171       15.277      611.030     1100.335      233.400        0.452        0.097       82.918       15.412        0.035      337.428        9.396      861.454
11/28/2013  16:49:00       22.410       89.699      -17.420       14.031       19.287       12.452      196.857      371.997      155.063        0.479        0.036       92.456        8.282        0.008      337.419        9.380      861.469
11/28/2013  16:50:00       24.452       67.597       -9.412       16.624       32.374       16.601      276.369     1048.098      275.594        0.343        0.080       71.883       17.257        0.058      337.341        9.249      861.497
11/28/2013  16:51:00       23.359       56.603       -9.026       22.396       23.759       18.563      501.564      564.497      344.573        0.262        0.071       61.233       15.342        0.063      337.283        9.152      861.511
11/28/2013  16:52:00       17.721       57.656       -8.813       19.184       30.262       12.182      368.043      915.786      148.394        0.257        0.072       60.317       13.954        0.054      337.271        9.132      861.539
11/28/2013  16:53:00       31.761       61.691      -12.971       28.368       26.914       15.762      804.753      724.351      248.444        0.338        0.089       69.387       15.118        0.047      337.256        9.108      861.556
11/28/2013  16:54:00       20.964       34.604        3.516       24.527       25.107       16.917      601.591      630.339      286.172        0.158        0.076       40.459       16.324        0.163      337.195        9.006      861.575
11/28/2013  16:55:00       43.632       21.131        4.520       20.376       18.154       15.072      415.187      329.574      227.171        0.167        0.049       48.480        4.802        0.010      337.222        9.053      861.582
11/28/2013  16:56:00       10.315       13.552        2.353       19.644       20.476       12.447      385.893      419.259      154.916        0.063        0.048       17.031        5.595        0.108      337.187        8.994      861.588
11/28/2013  16:57:00        3.607        6.207        2.972       14.013       10.589       10.033      196.377      112.136      100.665        0.023        0.020        7.179        7.040        0.962      337.109        8.859      861.595
11/28/2013  16:58:00       18.791       16.559       -3.117       11.559       12.522        5.487      133.603      156.802       30.110        0.048        0.016       25.046        3.787        0.023      337.146        8.924      861.598
11/28/2013  16:59:00       15.476       17.749       -6.519        9.051       10.004        5.632       81.916      100.079       31.718        0.041        0.011       23.548        2.330        0.010      337.144        8.920      861.604
11/28/2013  17:00:00        8.096        8.015        2.152       10.756       10.616        8.480      115.688      112.702       71.915        0.022        0.015       11.393        7.295        0.410      337.125        8.888      861.603
11/28/2013  17:01:00       27.580       25.195       -1.312       23.704       19.611       14.819      561.891      384.596      219.616        0.128        0.058       37.356       13.435        0.129      337.095        8.836      861.615
11/28/2013  17:02:00       34.789       18.903        5.019       20.504       14.514       15.141      420.431      210.657      229.255        0.123        0.043       39.593       12.155        0.094      337.072        8.798      861.622
11/28/2013  17:03:00       39.160       36.941       -4.273       17.658       13.821       15.096      311.802      191.011      227.893        0.182        0.037       53.834        9.488        0.031      337.117        8.875      861.633
11/28/2013  17:04:00       67.022       37.239       10.008       16.153       19.662       15.125      260.935      386.611      228.756        0.343        0.044       76.673       11.855        0.024      337.097        8.841      861.638
11/28/2013  17:05:00       48.550       38.332        4.591       20.580       15.783       13.135      423.531      249.097      172.521        0.235        0.042       61.859        7.009        0.013      337.054        8.767      861.658
11/28/2013  17:06:00       19.313       27.888       -2.883       14.913       14.027        9.659      222.392      196.748       93.305        0.084        0.026       33.923        7.157        0.045      336.979        8.642      861.667
11/28/2013  17:07:00       46.680       32.367       -0.035       18.995       21.032       11.632      360.824      442.359      135.310        0.208        0.047       56.804        7.311        0.017      336.979        8.644      861.689
11/28/2013  17:08:00       25.939       34.137        1.302       20.237       19.175       14.704      409.520      367.675      216.216        0.142        0.050       42.874        7.548        0.031      336.961        8.612      861.705
11/28/2013  17:09:00       20.091       51.930       -7.485       28.867       18.069       13.289      833.322      326.505      176.607        0.225        0.067       55.681        9.918        0.032      336.931        8.563      861.717
11/28/2013  17:10:00       33.478       41.335       -0.591       21.948       25.197       20.472      481.717      634.877      419.083        0.218        0.077       53.192       13.990        0.069      336.840        8.412      861.725
11/28/2013  17:11:00       53.404       45.495        3.555       32.246       24.508       18.086     1039.792      600.644      327.117        0.345        0.098       70.155       14.968        0.046      336.824        8.385      861.734
11/28/2013  17:12:00       37.843       25.328        6.384       22.921       16.918       12.728      525.356      286.209      161.997        0.154        0.049       45.536        6.544        0.021      336.719        8.211      861.740
11/28/2013  17:13:00       52.862       20.155       10.513       17.750       15.435       10.469      315.073      238.248      109.610        0.199        0.033       56.574        5.359        0.009      336.774        8.303      861.742
11/28/2013  17:14:00       20.495       11.976        3.685       12.408       12.093        9.622      153.954      146.251       92.577        0.048        0.020       23.737        8.416        0.126      336.716        8.207      861.742
11/28/2013  17:15:00       16.642       35.486       -3.491       13.607       13.391       12.374      185.148      179.310      153.128        0.103        0.026       39.194        8.278        0.045      336.719        8.211      861.739
11/28/2013  17:16:00       18.644       24.041       -3.273       12.353       19.298       12.730      152.609      372.422      162.063        0.081        0.034       30.423       10.399        0.117      336.695        8.172      861.733
11/28/2013  17:17:00       35.851       29.128       -0.994       26.351       24.085       15.995      694.350      580.109      255.828        0.183        0.077       46.193       14.067        0.093      336.729        8.226      861.730
11/28/2013  17:18:00       52.646       31.039        7.528       19.144       13.394       12.046      366.476      179.386      145.109        0.224        0.035       61.115        8.049        0.017      336.756        8.273      861.740
11/28/2013  17:19:00       45.165       34.250       -6.686       24.418       19.268       12.031      596.260      371.260      144.738        0.218        0.056       56.683       13.493        0.057      336.712        8.200      861.742
11/28/2013  17:20:00       34.836       16.749       -1.667       19.054       24.415       11.971      363.068      596.114      143.295        0.130        0.055       38.653        5.253        0.018      336.663        8.119      861.749
11/28/2013  17:21:00       30.459       28.751       -6.454       12.519       15.432       10.421      156.731      238.161      108.591        0.115        0.025       41.885       10.380        0.061      336.659        8.110      861.751
11/28/2013  17:22:00       24.168       34.840       -5.622       12.358       17.838       11.342      152.716      318.211      128.633        0.121        0.030       42.402       10.435        0.061      336.653        8.100      861.759
11/28/2013  17:23:00       22.673       32.617       -8.951       13.427       11.619        6.803      180.291      134.992       46.283        0.101        0.018       39.723        7.140        0.032      336.674        8.134      861.767
11/28/2013  17:24:00       21.518       30.375       -3.145       14.522       10.529        8.152      210.886      110.866       66.454        0.089        0.019       37.224        5.883        0.025      336.661        8.113      861.780
11/28/2013  17:25:00       20.997       28.737       -5.761       11.460       14.782        9.276      131.324      218.505       86.044        0.087        0.022       35.590        5.185        0.021      336.622        8.048      861.792
11/28/2013  17:26:00       29.028       35.267       -5.242       17.620       16.285       12.074      310.482      265.194      145.778        0.142        0.036       45.676        8.293        0.033      336.671        8.130      861.806
11/28/2013  17:27:00       43.552       28.858       -4.098       21.760       16.730       14.480      473.488      279.887      209.681        0.185        0.048       52.245       11.552        0.049      336.757        8.274      861.811
11/28/2013  17:28:00       34.674       35.761        2.397       21.582       24.638       19.140      465.770      607.031      366.326        0.196        0.072       49.811       17.518        0.124      336.718        8.211      861.828
11/28/2013  17:29:00       47.250       34.568       -1.616       24.478       20.612       17.385      599.153      424.873      302.243        0.238        0.066       58.545       13.425        0.053      336.706        8.189      861.840
11/28/2013  17:30:00       48.671       35.831        0.292       21.988       18.257       16.364      483.482      333.305      267.771        0.237        0.054       60.437        9.156        0.023      336.730        8.229      861.850
11/28/2013  17:31:00       41.839       37.154        0.804       22.452       21.355       17.085      504.100      456.039      291.889        0.219        0.063       55.955       11.417        0.042      336.735        8.238      861.859
11/28/2013  17:32:00       15.089       57.608       -6.270       13.944       19.744        8.721      194.447      389.825       76.054        0.212        0.033       59.551        8.585        0.021      336.711        8.196      861.859
11/28/2013  17:33:00       13.160       51.126       -3.272       12.819       22.700       10.376      164.324      515.268      107.656        0.179        0.039       52.792       12.243        0.054      336.655        8.103      861.885
11/28/2013  17:34:00        4.132       78.398      -10.383       17.560       12.937        7.810      308.367      167.375       60.994        0.340        0.027       78.506        5.730        0.005      336.737        8.240      861.890
11/28/2013  17:35:00        2.665       78.254      -13.024       21.502       15.000        8.808      462.331      225.010       77.579        0.353        0.038       78.300        6.877        0.008      336.786        8.323      861.904
11/28/2013  17:36:00       -7.511       77.698      -11.612       22.740       24.176       12.815      517.095      584.456      164.218        0.375        0.063       78.061       11.720        0.023      336.821        8.381      861.929
11/28/2013  17:37:00       -3.250       51.647       -4.681       24.468       29.953       13.358      598.697      897.177      178.429        0.219        0.084       51.750       11.135        0.046      336.621        8.048      861.945
11/28/2013  17:38:00      -25.833       -0.402       -3.696       22.941       16.321       13.394      526.285      266.366      179.402        0.083        0.049       25.836       10.394        0.162      336.290        7.493      861.973
11/28/2013  17:39:00      -18.708       -9.881        0.743       17.092       15.439       13.974      292.130      238.349      195.285        0.059        0.036       21.157        8.613        0.166      336.221        7.377      861.983
11/28/2013  17:40:00      -27.399       -0.751       -0.943       16.998       30.049       13.054      288.937      902.949      170.410        0.106        0.068       27.410       16.252        0.352      336.137        7.236      862.000
11/28/2013  17:41:00      -36.791        0.329       -7.280       23.494       23.949       15.741      551.965      573.566      247.767        0.139        0.069       36.792       12.868        0.122      336.184        7.316      862.014
11/28/2013  17:42:00      -35.739        2.261       -8.664       16.751       27.059       11.004      280.608      732.174      121.092        0.125        0.057       35.810        4.724        0.017      335.997        7.003      862.013
11/28/2013  17:43:00      -41.435       61.222      -17.431       27.123       32.885       13.520      735.634     1081.398      182.796        0.388        0.100       73.925       11.716        0.025      336.527        7.888      862.020
11/28/2013  17:44:00      -31.892       48.669      -13.786       23.467       44.067       13.817      550.678     1941.858      190.908        0.313        0.134       58.187       19.384        0.111      336.446        7.754      862.019
11/28/2013  17:45:00      -35.638       79.518       -8.990       24.737       31.518       17.654      611.909      993.375      311.650        0.480        0.096       87.139       17.324        0.040      336.541        7.911      862.024
11/28/2013  17:46:00      -27.225       56.100       -3.887       28.167       24.496       15.516      793.380      600.056      240.741        0.277        0.082       62.357       12.943        0.043      336.583        7.982      862.041
11/28/2013  17:47:00      -23.294       15.583        1.275       16.372       32.028       16.756      268.041     1025.809      280.777        0.118        0.079       28.025       18.053        0.415      336.380        7.644      862.045
11/28/2013  17:48:00      -33.570       35.434      -10.723       23.648       32.447       12.221      559.250     1052.791      149.359        0.213        0.088       48.811       11.034        0.051      336.352        7.596      862.048
11/28/2013  17:49:00      -26.611       -0.671       -3.765       24.596       16.119       12.412      604.965      259.813      154.052        0.087        0.051       26.620        6.642        0.062      336.309        7.524      862.059
11/28/2013  17:50:00      -46.625       -9.172      -12.334       17.572        7.576        9.325      308.772       57.397       86.950        0.143        0.023       47.519        9.052        0.036      335.880        6.810      862.050
11/28/2013  17:51:00      -49.745       -6.027       -7.325       12.235        9.292        9.271      149.698       86.336       85.947        0.144        0.016       50.109        6.926        0.019      335.937        6.904      862.055
11/28/2013  17:52:00      -12.431       38.262       -7.313       37.318       34.255       16.543     1392.670     1173.437      273.673        0.226        0.142       40.231       18.366        0.208      336.418        7.707      862.067
11/28/2013  17:53:00      -20.508        4.196        5.286       17.062       21.866        9.377      291.112      478.116       87.925        0.066        0.043       20.933        9.863        0.222      336.210        7.358      862.066
11/28/2013  17:54:00       -6.568        4.882       -6.354       20.871       18.186       19.816      435.611      330.734      392.658        0.063        0.058        8.183       14.221        3.020      336.440        7.743      862.066
11/28/2013  17:55:00      -16.253      -15.742        5.265       18.131        9.619       12.388      328.749       92.519      153.462        0.056        0.029       22.627        7.227        0.102      336.282        7.480      862.076
11/28/2013  17:56:00       11.254       27.268       -8.213       17.739       23.614       10.839      314.670      557.632      117.479        0.096        0.049       29.499       14.348        0.237      336.557        7.940      862.086
11/28/2013  17:57:00       -0.066        2.124        1.785       15.366       19.949        7.727      236.118      397.954       59.711        0.035        0.035        2.125        4.579        4.644      336.524        7.884      862.090
11/28/2013  17:58:00      -32.714      -15.402       -5.779       10.447       14.226        7.979      109.137      202.372       63.671        0.086        0.019       36.158        5.186        0.021      336.072        7.129      862.091
11/28/2013  17:59:00      -42.262       -5.181       -7.333       15.257       12.906        7.148      232.766      166.565       51.088        0.116        0.023       42.579        4.326        0.010      335.983        6.981      862.111
11/28/2013  18:00:00      -41.468        8.389       -7.830       14.035       19.311        9.935      196.971      372.917       98.695        0.126        0.033       42.308        8.517        0.041      335.942        6.916      862.120
11/28/2013  18:01:00      -33.280        3.870       -5.239       26.190       20.646        8.943      685.918      426.267       79.975        0.117        0.060       33.504        7.814        0.054      336.016        7.036      862.131
11/28/2013  18:02:00       -6.950       37.118       -2.041       31.291       24.925       15.339      979.146      621.260      235.274        0.163        0.092       37.763        9.504        0.063      336.530        7.894      862.152
11/28/2013  18:03:00      -26.701       26.377       -7.114       24.302       34.382       11.849      590.563     1182.131      140.395        0.169        0.096       37.533       11.844        0.100      336.492        7.829      862.169
11/28/2013  18:04:00      -45.156       19.495       -7.515       20.891       29.227       11.609      436.419      854.207      134.777        0.195        0.071       49.185        7.695        0.024      336.339        7.574      862.171
11/28/2013  18:05:00      -50.536       20.196      -10.027       17.785       24.412       14.795      316.297      595.932      218.903        0.210        0.057       54.422       11.411        0.044      336.397        7.672      862.172
11/28/2013  18:06:00      -65.100       -3.395      -16.475       19.308       24.216       14.811      372.791      586.406      219.353        0.285        0.059       65.188       14.194        0.047      336.105        7.183      862.178
11/28/2013  18:07:00      -53.103        1.058      -13.065       20.339       20.421       10.994      413.679      417.023      120.866        0.197        0.048       53.113       13.192        0.062      336.037        7.069      862.180
11/28/2013  18:08:00      -53.349        0.693      -10.617       16.475       19.266       11.129      271.410      371.163      123.845        0.186        0.038       53.353        8.959        0.028      335.898        6.839      862.186
11/28/2013  18:09:00      -55.775       24.553       -8.533       15.367       24.283       13.758      236.146      589.676      189.291        0.240        0.051       60.940       10.056        0.027      336.086        7.151      862.195
11/28/2013  18:10:00      -48.452       -6.746       -7.268       18.325       17.134       14.665      335.819      293.566      215.053        0.165        0.042       48.920        9.604        0.039      335.934        6.900      862.209
11/28/2013  18:11:00      -49.815       -0.509      -11.605       14.126       20.996        8.943      199.541      440.827       79.969        0.167        0.036       49.818        8.748        0.031      335.888        6.823      862.232
11/28/2013  18:12:00      -63.795       21.418       -5.736       21.258       25.214       12.757      451.888      635.767      162.731        0.291        0.063       67.294       12.428        0.034      336.014        7.033      862.240
11/28/2013  18:13:00      -62.177       21.073      -13.356       24.020       30.683       12.984      576.941      941.426      168.584        0.309        0.084       65.651       10.206        0.024      336.000        7.008      862.241
11/28/2013  18:14:00      -61.821       24.442      -11.629       18.994       29.384       12.525      360.764      863.407      156.876        0.297        0.069       66.478        6.501        0.010      335.823        6.714      862.249
11/28/2013  18:15:00      -63.577       17.714      -12.898       22.159       33.893       14.090      491.014     1148.769      198.515        0.318        0.092       65.998       15.898        0.058      335.950        6.926      862.264
11/28/2013  18:16:00      -55.717       -6.983       -9.513       19.403       20.017       13.328      376.475      400.697      177.633        0.210        0.048       56.153       11.918        0.045      335.562        6.279      862.261
11/28/2013  18:17:00      -65.149       -3.969      -10.908       21.845       21.461       12.480      477.185      460.569      155.741        0.274        0.055       65.269        6.408        0.010      335.627        6.387      862.266
11/28/2013  18:18:00      -69.974      -16.539      -10.191       17.926       20.364       11.923      321.334      414.698      142.167        0.308        0.044       71.902       11.560        0.026      335.680        6.474      862.271
11/28/2013  18:19:00      -63.238       -3.008      -13.132       14.982       19.161       11.519      224.461      367.155      132.676        0.245        0.036       63.309        8.036        0.016      335.828        6.721      862.279
11/28/2013  18:20:00      -60.886       -5.408      -10.229       28.740       24.693       12.710      825.990      609.735      161.538        0.272        0.080       61.126        7.632        0.016      335.730        6.559      862.282
11/28/2013  18:21:00      -74.829        3.677      -14.370       19.897       25.927       11.658      395.893      672.213      135.904        0.351        0.060       74.920       11.314        0.023      335.670        6.459      862.280
11/28/2013  18:22:00      -89.793        9.548      -17.351       22.406       21.662       16.023      502.027      469.227      256.745        0.484        0.061       90.300       10.048        0.012      335.995        7.001      862.284
11/28/2013  18:23:00      -74.452        1.874      -16.379       16.099       20.065        8.611      259.172      402.617       74.148        0.328        0.037       74.476        7.393        0.010      335.847        6.754      862.296
11/28/2013  18:24:00      -88.678        6.853      -12.596       16.153       14.060        8.428      260.926      197.678       71.029        0.430        0.026       88.943        6.225        0.005      335.747        6.587      862.304
11/28/2013  18:25:00      -86.600        3.563      -12.992       19.263       18.134       12.381      371.079      328.849      153.279        0.427        0.043       86.674        7.031        0.007      335.839        6.739      862.307
11/28/2013  18:26:00      -77.158        3.092      -16.077       18.384       20.356       15.263      337.958      414.383      232.951        0.360        0.049       77.220        9.975        0.017      336.007        7.022      862.325
11/28/2013  18:27:00      -55.898        1.694      -11.176       15.215       12.562        9.933      231.500      157.807       98.660        0.187        0.024       55.924        7.849        0.020      335.809        6.691      862.330
11/28/2013  18:28:00      -73.590       -0.627      -15.580       22.073       11.720       14.905      487.224      137.350      222.159        0.325        0.042       73.593        8.335        0.013      335.861        6.776      862.330
11/28/2013  18:29:00      -88.774        2.586      -17.331       20.933       14.490       10.365      438.206      209.956      107.431        0.447        0.038       88.811        7.363        0.007      335.874        6.798      862.331
11/28/2013  18:30:00      -87.614        0.956      -14.485       24.917       19.984       12.752      620.878      399.356      162.624        0.453        0.059       87.620       12.086        0.019      335.821        6.710      862.338
11/28/2013  18:31:00      -92.207       -2.574      -20.152       13.684       14.253       12.146      187.240      203.159      147.520        0.473        0.027       92.243        4.583        0.002      335.816        6.701      862.350
11/28/2013  18:32:00      -83.951        0.354      -20.713       24.943       15.011       14.767      622.129      225.334      218.061        0.427        0.053       83.952        6.690        0.006      335.764        6.614      862.357
11/28/2013  18:33:00      -71.943      -10.982      -18.398       16.178       16.363       11.124      261.730      267.746      123.744        0.314        0.033       72.777        9.276        0.016      335.713        6.529      862.363
11/28/2013  18:34:00      -75.363        0.163      -11.369       15.576       16.777       15.847      242.597      281.463      251.139        0.329        0.039       75.363        9.008        0.014      335.729        6.558      862.383
11/28/2013  18:35:00      -78.723       -6.508      -13.849       19.365       22.037       11.547      375.000      485.647      133.332        0.371        0.050       78.991       12.953        0.027      335.748        6.589      862.383
11/28/2013  18:36:00      -66.610       -8.381       -9.361       14.856       22.605       11.871      220.713      510.995      140.917        0.273        0.044       67.135       13.407        0.040      335.795        6.668      862.384
11/28/2013  18:37:00      -63.313       -4.421       -9.326       19.688       18.147       13.449      387.611      329.310      180.888        0.251        0.045       63.467        9.131        0.021      335.866        6.786      862.386
11/28/2013  18:38:00      -68.391        1.673      -12.990       20.216       15.049        9.375      408.679      226.471       87.893        0.279        0.036       68.411        4.585        0.004      335.845        6.752      862.400
11/28/2013  18:39:00      -65.584        2.839      -14.616       18.782       24.675       13.934      352.775      608.855      194.166        0.284        0.058       65.646       10.672        0.026      335.751        6.594      862.404
11/28/2013  18:40:00      -94.189      -10.844      -11.481       22.942       20.237       11.809      526.318      409.554      139.458        0.510        0.054       94.811        6.705        0.005      335.802        6.680      862.409
11/28/2013  18:41:00      -70.227      -10.035       -6.476       35.722       20.854       17.128     1276.067      434.872      293.380        0.354        0.100       70.940       17.867        0.063      335.775        6.634      862.412
11/28/2013  18:42:00      -87.925        3.057      -11.075       34.026       23.448       19.735     1157.784      549.815      389.468        0.498        0.105       87.978       11.047        0.016      335.804        6.682      862.425
11/28/2013  18:43:00      -72.345       -0.115       -9.230       30.211       25.010       17.020      912.701      625.510      289.688        0.357        0.091       72.345       18.182        0.063      335.797        6.669      862.441
11/28/2013  18:44:00      -79.494       -4.006       -8.369       26.697       22.575       18.770      712.733      509.616      352.331        0.399        0.079       79.595       12.589        0.025      335.856        6.768      862.445
11/28/2013  18:45:00      -84.668       -9.102      -15.279       33.534       24.023       18.850     1124.500      577.118      355.329        0.477        0.103       85.156       20.502        0.058      335.778        6.640      862.448
11/28/2013  18:46:00      -60.228       -5.258       -7.390       36.992       25.998       16.736     1368.421      675.905      280.106        0.302        0.116       60.457       14.707        0.059      335.858        6.770      862.452
11/28/2013  18:47:00      -82.575       -8.300      -15.358       29.954       26.292       15.879      897.271      691.294      252.127        0.448        0.092       82.991       11.386        0.019      335.848        6.757      862.465
11/28/2013  18:48:00      -87.874        8.574       -9.407       30.646       20.734       15.200      939.178      429.890      231.036        0.474        0.080       88.291       13.069        0.022      335.846        6.752      862.470
11/28/2013  18:49:00      -93.097       -5.302      -12.333       26.891       15.952       15.559      723.139      254.468      242.087        0.503        0.061       93.248       12.151        0.017      335.855        6.766      862.471
11/28/2013  18:50:00      -57.587       -0.665       -1.910       27.230       18.115       16.403      741.465      328.161      269.069        0.233        0.067       57.591       14.509        0.063      335.871        6.794      862.473
11/28/2013  18:51:00      -74.437       -2.659      -13.791       16.933       13.427       12.976      286.740      180.290      168.384        0.319        0.032       74.484       11.511        0.024      335.939        6.908      862.484
11/28/2013  18:52:00      -76.005       -5.239      -15.313       29.203       14.668       11.381      852.789      215.143      129.517        0.362        0.060       76.185       12.018        0.025      335.859        6.773      862.490
11/28/2013  18:53:00      -39.173      -14.809      -11.241       13.459       12.670       10.496      181.132      160.524      110.176        0.117        0.023       41.879        7.551        0.033      335.830        6.727      862.495
11/28/2013  18:54:00      -33.941       -6.401       -5.978       12.301       16.008       10.854      151.311      256.256      117.805        0.088        0.026       34.539       11.045        0.102      335.850        6.759      862.493
11/28/2013  18:55:00      -18.260       16.272       -4.916       19.167       18.305       11.061      367.375      335.067      122.343        0.072        0.041       24.458       11.100        0.206      336.091        7.161      862.497
11/28/2013  18:56:00      -14.986       -2.132        2.041       16.899       12.897       13.135      285.588      166.342      172.536        0.043        0.031       15.137        8.162        0.291      336.110        7.192      862.504
11/28/2013  18:57:00      -26.119       -2.635       -2.775       16.275        9.565       11.028      264.876       91.498      121.615        0.059        0.024       26.251        7.983        0.092      336.059        7.106      862.511
11/28/2013  18:58:00      -23.097       -8.727       -2.478        9.388        7.888        6.614       88.142       62.217       43.750        0.040        0.010       24.691        3.306        0.018      335.906        6.852      862.509
11/28/2013  18:59:00      -10.581       34.226       -8.363       22.092       33.705       12.284      488.041     1136.026      150.895        0.156        0.089       35.824       12.068        0.113      336.200        7.344      862.510
11/28/2013  19:00:00       -0.483       85.980      -11.580       16.617       12.211        8.911      276.112      149.097       79.400        0.402        0.025       85.981        6.676        0.006      336.477        7.806      862.516
11/28/2013  19:01:00       10.038       72.867      -19.313       25.359       20.075       11.988      643.073      403.015      143.704        0.349        0.059       73.555       13.414        0.033      336.302        7.511      862.526
11/28/2013  19:02:00      -10.258       23.098       -1.591       28.317       19.448       16.650      801.825      378.207      277.236        0.105        0.073       25.274       10.358        0.168      336.195        7.335      862.533
11/28/2013  19:03:00      -24.252       -8.172        0.095       25.459       24.624       16.199      648.138      606.329      262.422        0.109        0.076       25.592       14.135        0.305      336.006        7.017      862.532
11/28/2013  19:04:00      -11.968        3.344        5.199       25.852       20.824       13.900      668.323      433.620      193.218        0.074        0.065       12.426        9.466        0.580      336.127        7.221      862.529
11/28/2013  19:05:00      -28.746        4.140       -1.311       21.258       19.003       15.315      451.906      361.132      234.542        0.095        0.052       29.043        9.841        0.115      336.042        7.077      862.522
11/28/2013  19:06:00      -19.104        4.956      -10.165       18.681       12.822        9.352      348.988      164.408       87.463        0.055        0.030       19.736        5.806        0.087      336.050        7.089      862.523
11/28/2013  19:07:00      -20.590        3.137       -1.241       19.206       17.151       11.558      368.854      294.173      133.584        0.062        0.040       20.828        7.859        0.142      336.049        7.089      862.540
11/28/2013  19:08:00        4.038       23.930       -2.610       18.181       23.422       12.754      330.542      548.602      162.665        0.082        0.052       24.268       13.727        0.320      336.173        7.298      862.553
11/28/2013  19:09:00      -25.920      -13.400        3.023       13.062       11.920        8.277      170.619      142.088       68.511        0.062        0.019       29.179        5.078        0.030      335.794        6.665      862.570
11/28/2013  19:10:00      -10.303       -6.861        2.335       12.613        9.433        5.930      159.082       88.989       35.169        0.022        0.014       12.379        3.515        0.081      335.995        7.000      862.582
11/28/2013  19:11:00       -6.231      -23.942        0.445        8.360        9.842        5.942       69.882       96.864       35.302        0.041        0.010       24.740        5.421        0.048      336.020        7.042      862.597
11/28/2013  19:12:00      -23.712      -17.828       -3.609       15.915        9.034        5.490      253.275       81.604       30.135        0.063        0.018       29.667        4.992        0.028      335.965        6.949      862.606
11/28/2013  19:13:00      -10.866       -2.076        5.143        7.396        4.606        4.482       54.700       21.220       20.089        0.012        0.005       11.063        3.676        0.110      335.992        6.994      862.616
11/28/2013  19:14:00      -12.867        0.062       -2.190       10.364        5.274        2.619      107.406       27.811        6.857        0.016        0.007       12.867        1.792        0.019      335.886        6.818      862.633
11/28/2013  19:15:00       15.465       26.346       -5.347       17.937       18.640       11.306      321.752      347.445      127.819        0.088        0.040       30.550       12.177        0.159      336.260        7.443      862.650
11/28/2013  19:16:00       31.871       16.586        2.969       19.486       11.079       15.748      379.685      122.746      248.013        0.102        0.038       35.929        8.901        0.061      336.175        7.301      862.650
11/28/2013  19:17:00       16.886       11.977       -1.314       13.116       12.816        8.322      172.017      164.246       69.256        0.042        0.020       20.702        7.710        0.139      336.236        7.401      862.657
11/28/2013  19:18:00       -4.889       14.435        2.980       12.145       13.763       10.937      147.496      189.414      119.626        0.035        0.023       15.241        8.057        0.279      336.060        7.109      862.663
11/28/2013  19:19:00        1.909       27.580       -3.032       17.845       28.956       12.983      318.440      838.446      168.546        0.105        0.066       27.646       13.694        0.245      336.110        7.194      862.667
11/28/2013  19:20:00       13.051       49.708       -5.619       18.362       16.601        9.798      337.176      275.581       96.002        0.169        0.035       51.392       10.481        0.042      336.233        7.398      862.680
11/28/2013  19:21:00       -6.776       41.595       -4.338       19.169       18.994       12.120      367.458      360.753      146.894        0.133        0.044       42.143       10.571        0.063      336.148        7.254      862.689
11/28/2013  19:22:00        4.898       74.183      -10.221       23.391       21.371       10.440      547.138      456.724      108.995        0.337        0.056       74.345        5.431        0.005      336.221        7.376      862.704
11/28/2013  19:23:00      -17.473       83.776       -9.889       27.314       24.305       13.435      746.042      590.756      180.496        0.447        0.076       85.579        9.195        0.012      336.246        7.418      862.716
11/28/2013  19:24:00      -31.007       39.337       -8.630       38.706       56.965       20.170     1498.165     3245.008      406.846        0.387        0.258       50.088       22.198        0.196      335.919        6.873      862.728
11/28/2013  19:25:00      -44.305        0.039       -7.327       27.915       15.066       15.215      779.234      226.974      231.486        0.163        0.062       44.305       19.279        0.189      335.749        6.590      862.737
11/28/2013  19:26:00      -44.121       -6.422       -7.919       21.247       14.113       14.295      451.453      199.177      204.345        0.145        0.043       44.586       11.690        0.069      335.688        6.489      862.748
11/28/2013  19:27:00      -57.988       -7.415      -11.121       12.959       12.668        9.942      167.924      160.471       98.851        0.198        0.021       58.460        7.354        0.016      335.581        6.311      862.746
11/28/2013  19:28:00      -47.009       -1.277      -13.466       20.949       23.465       15.528      438.853      550.620      241.134        0.181        0.062       47.027       13.324        0.080      335.839        6.741      862.751
11/28/2013  19:29:00      -62.281       -8.190      -15.380        8.932       12.018        6.461       79.777      144.430       41.740        0.222        0.013       62.817        4.000        0.004      335.607        6.353      862.757
11/28/2013  19:30:00      -55.387      -16.315      -12.208       12.642       10.875        7.747      159.815      118.263       60.016        0.191        0.017       57.740        5.288        0.008      335.544        6.248      862.750
11/28/2013  19:31:00      -47.760      -22.809      -14.927       14.923       11.750        8.604      222.683      138.052       74.033        0.173        0.022       52.927        5.705        0.012      335.468        6.121      862.759
11/28/2013  19:32:00      -65.520       -1.453       -5.929       20.051       20.554       12.081      402.061      422.459      145.956        0.265        0.049       65.536        8.959        0.019      335.521        6.209      862.766
11/28/2013  19:33:00      -50.565       -3.479       -7.816       18.969       16.541       12.867      359.824      273.599      165.564        0.171        0.040       50.684        8.469        0.028      335.487        6.154      862.783
11/28/2013  19:34:00      -47.774      -11.823       -3.850       12.870       17.083       11.410      165.645      291.830      130.194        0.151        0.029       49.216        9.611        0.038      335.476        6.134      862.806
11/28/2013  19:35:00      -52.751      -16.506       -5.738       13.865       10.914        9.366      192.231      119.114       87.730        0.174        0.020       55.273        7.545        0.019      335.591        6.327      862.826
11/28/2013  19:36:00      -44.882      -17.957       -5.800       12.748       13.155        8.381      162.515      173.043       70.247        0.139        0.020       48.341        6.496        0.018      335.595        6.333      862.839
11/28/2013  19:37:00      -33.228      -24.050       -7.150       12.721       12.829        8.562      161.835      164.590       73.315        0.107        0.020       41.019        6.532        0.025      335.628        6.391      862.860
11/28/2013  19:38:00      -51.508      -14.884       -9.518       10.520       10.739        7.482      110.669      115.321       55.975        0.162        0.014       53.616        6.181        0.013      335.526        6.219      862.877
11/28/2013  19:39:00      -47.495       -9.406      -15.071       11.157       10.541        6.928      124.469      111.116       48.001        0.143        0.014       48.418        5.624        0.013      335.571        6.293      862.894
11/28/2013  19:40:00      -68.707      -16.908       -7.992       11.161       12.148        7.638      124.559      147.563       58.338        0.270        0.017       70.756        3.885        0.003      335.375        5.967      862.907
11/28/2013  19:41:00      -61.492      -18.493       -8.244       13.055       14.087       11.161      170.443      198.452      124.574        0.234        0.025       64.212        8.188        0.016      335.366        5.951      862.927
11/28/2013  19:42:00      -56.057      -22.376      -13.682       16.820       15.573       10.153      282.896      242.506      103.074        0.223        0.031       60.358        9.205        0.023      335.431        6.059      862.936
11/28/2013  19:43:00      -59.470       -9.205      -10.760       14.057       13.661        9.162      197.609      186.630       83.943        0.210        0.023       60.178        6.353        0.011      335.414        6.032      862.943
11/28/2013  19:44:00      -63.550      -16.179      -10.117       14.618       16.622        8.692      213.688      276.275       75.554        0.248        0.028       65.577        4.321        0.004      335.408        6.021      862.949
11/28/2013  19:45:00      -51.273      -28.715      -14.153       17.502       17.581       10.803      306.337      309.076      116.714        0.219        0.037       58.766        5.733        0.010      335.331        5.890      862.955
11/28/2013  19:46:00      -73.347       -2.255      -14.288       21.321       15.889       12.406      454.571      252.451      153.900        0.322        0.043       73.381       10.234        0.019      335.317        5.870      862.963
11/28/2013  19:47:00      -52.396        3.923      -12.111       27.125       20.018       19.382      735.756      400.720      375.657        0.221        0.076       52.543       10.877        0.043      335.330        5.892      862.981
11/28/2013  19:48:00      -72.094        3.057      -10.715       28.932       20.197       16.794      837.082      407.914      282.049        0.342        0.076       72.159       14.609        0.041      335.091        5.494      862.984
11/28/2013  19:49:00      -69.562      -10.734       -7.042       44.071       26.475       17.103     1942.227      700.938      292.525        0.397        0.147       70.385       12.274        0.030      335.027        5.388      862.989
11/28/2013  19:50:00      -49.556      -14.892       -9.912       35.446       23.971       17.213     1256.394      574.612      296.279        0.245        0.106       51.745       13.570        0.069      334.944        5.251      862.997
11/28/2013  19:51:00      -55.624      -14.127       -6.231       15.814       15.336       14.448      250.098      235.191      208.751        0.201        0.035       57.390        6.845        0.014      334.988        5.324      863.003
11/28/2013  19:52:00      -60.173      -17.147      -19.783       12.218       12.793       10.409      149.273      163.665      108.348        0.236        0.021       62.568        5.970        0.009      335.079        5.476      863.022
11/28/2013  19:53:00      -48.536      -13.385      -13.184       12.220       16.490        8.347      149.321      271.935       69.679        0.160        0.025       50.348        4.674        0.009      335.045        5.420      863.032
11/28/2013  19:54:00      -56.273       27.373      -11.887       27.903       45.421       18.663      778.555     2063.030      348.301        0.362        0.159       62.577       20.679        0.109      335.395        6.000      863.041
11/28/2013  19:55:00      -56.191       66.908      -16.868       16.836       24.729       12.429      283.457      611.502      154.484        0.448        0.052       87.373       10.754        0.015      335.788        6.654      863.064
11/28/2013  19:56:00      -48.211      -12.651       -5.934       18.307       14.160       10.284      335.151      200.519      105.760        0.158        0.032       49.843        7.432        0.022      335.387        5.984      863.080
11/28/2013  19:57:00      -38.824      -22.117       -4.751       18.087       22.172       13.313      327.131      491.613      177.236        0.151        0.050       44.682       10.782        0.058      335.376        5.968      863.090
11/28/2013  19:58:00      -50.156      -30.419       -6.691       12.015       11.061        8.679      144.367      122.344       75.328        0.191        0.017       58.659        4.191        0.005      335.042        5.414      863.093
11/28/2013  19:59:00      -60.276      -40.017      -12.588       14.301       16.877        8.810      204.518      284.849       77.624        0.298        0.028       72.350        3.724        0.003      335.005        5.353      863.101
11/28/2013  20:00:00      -55.116      -42.921      -10.211       15.630       13.048       12.027      244.292      170.247      144.640        0.277        0.028       69.857       11.112        0.025      334.988        5.324      863.121
11/28/2013  20:01:00      -75.693      -33.307      -11.756       17.081       13.674        9.309      291.761      186.988       86.655        0.377        0.028       82.697        6.728        0.007      334.980        5.311      863.134
11/28/2013  20:02:00      -55.487      -40.955      -14.743       12.165        9.518        8.082      147.982       90.597       65.320        0.264        0.015       68.965        6.004        0.008      334.959        5.275      863.148
11/28/2013  20:03:00      -70.065      -42.122      -11.790       10.210       10.332        6.380      104.236      106.757       40.706        0.354        0.013       81.752        3.076        0.001      334.945        5.253      863.163
11/28/2013  20:04:00      -87.989      -36.634      -11.605        8.562        9.811        6.997       73.301       96.252       48.956        0.472        0.011       95.311        5.077        0.003      334.993        5.333      863.187
11/28/2013  20:05:00      -63.000      -35.334       -1.405       16.669       11.094        9.537      277.868      123.066       90.948        0.286        0.025       72.232        6.704        0.009      335.007        5.357      863.189
11/28/2013  20:06:00      -41.966      -49.133       -6.492       14.025       13.291        8.481      196.695      176.647       71.925        0.233        0.022       64.616        7.215        0.012      335.126        5.551      863.193
11/28/2013  20:07:00      -55.897      -54.163       -1.897       16.889       13.993        8.058      285.243      195.816       64.928        0.330        0.027       77.834        8.856        0.013      335.207        5.689      863.203
11/28/2013  20:08:00      -30.032      -31.744        2.846       16.897       22.638       11.564      285.505      512.487      133.718        0.142        0.047       43.699       11.941        0.075      335.219        5.706      863.213
11/28/2013  20:09:00       -4.570      -11.539        3.627       10.880        8.290        9.216      118.381       68.730       84.926        0.022        0.014       12.412        4.521        0.133      335.178        5.639      863.214
11/28/2013  20:10:00      -39.022       -9.404       -1.476       12.445       10.838        5.404      154.867      117.471       29.207        0.096        0.015       40.139        4.088        0.010      334.962        5.281      863.223
11/28/2013  20:11:00      -63.147      -30.788       -0.647       19.935       13.175       10.266      397.406      173.579      105.398        0.281        0.034       70.252        8.687        0.015      334.782        4.982      863.239
11/28/2013  20:12:00      -71.234      -46.702       -5.370       19.336       15.288       12.383      373.880      233.716      153.328        0.402        0.038       85.178       10.210        0.014      334.826        5.056      863.237
11/28/2013  20:13:00      -90.170      -38.345       -3.228       16.744       18.180       15.145      280.356      330.518      229.356        0.523        0.042       97.985       12.014        0.015      334.781        4.980      863.242
11/28/2013  20:14:00      -99.700      -31.030      -12.729       18.341       14.570       10.137      336.393      212.272      102.755        0.586        0.033      104.417        8.797        0.007      334.848        5.091      863.243
11/28/2013  20:15:00     -115.372      -18.428      -16.812       13.976       11.192       11.412      195.333      125.253      130.243        0.719        0.023      116.835        7.253        0.004      334.844        5.086      863.245
11/28/2013  20:16:00     -130.479      -16.170      -20.550       14.147       10.818        7.901      200.130      117.023       62.433        0.904        0.019      131.477        3.813        0.001      334.778        4.976      863.249
11/28/2013  20:17:00     -102.635      -25.321      -13.735       24.821       15.509       14.838      616.066      240.544      220.169        0.622        0.054      105.712       11.554        0.012      334.625        4.722      863.249
11/28/2013  20:18:00     -104.767      -18.371       -9.140       32.097       21.970       16.551     1030.245      482.702      273.933        0.659        0.089      106.366       15.462        0.021      334.527        4.558      863.259
11/28/2013  20:19:00     -101.538      -24.035       -6.369       29.988       32.863       18.242      899.308     1079.991      332.759        0.662        0.116      104.344       15.187        0.021      334.471        4.465      863.263
11/28/2013  20:20:00      -78.878      -19.644       -8.084       27.322       23.220       15.426      746.469      539.184      237.971        0.410        0.076       81.287       12.954        0.025      334.510        4.531      863.278
11/28/2013  20:21:00      -67.709        2.354       -8.741       38.171       21.553       17.069     1457.042      464.517      291.365        0.344        0.111       67.750       11.774        0.030      334.615        4.704      863.289
11/28/2013  20:22:00      -76.612      -13.753       -7.571       30.909       28.107       18.928      955.354      789.994      358.286        0.411        0.105       77.837       15.026        0.037      334.559        4.611      863.304
11/28/2013  20:23:00      -65.688      -26.665       -4.977       30.392       27.623       17.853      923.648      763.050      318.718        0.353        0.100       70.894       14.984        0.045      334.545        4.587      863.311
11/28/2013  20:24:00      -68.481      -14.561       -6.052       37.571       32.813       17.249     1411.576     1076.701      297.534        0.386        0.139       70.012       13.406        0.037      334.506        4.524      863.325
11/28/2013  20:25:00      -82.359      -26.774       -8.370       18.273       17.344       16.199      333.890      300.828      262.392        0.423        0.045       86.602       13.561        0.025      334.457        4.444      863.338
11/28/2013  20:26:00      -76.558      -20.262        4.297       36.674       21.512       21.475     1344.977      462.772      461.155        0.428        0.113       79.194       22.824        0.083      334.449        4.428      863.358
11/28/2013  20:27:00      -65.729      -24.091       -3.208       24.609       25.634       16.045      605.580      657.108      257.442        0.322        0.076       70.005       12.927        0.034      334.454        4.438      863.370
11/28/2013  20:28:00      -43.314      -34.834       -6.334       23.937       19.371       15.460      572.991      375.240      239.025        0.216        0.059       55.584       12.281        0.049      334.469        4.463      863.384
11/28/2013  20:29:00      -21.212      -24.550        0.413       14.311       15.282       12.024      204.815      233.550      144.577        0.082        0.029       32.444        7.732        0.057      334.465        4.455      863.387
11/28/2013  20:30:00      -49.227      -32.380       -5.283       17.248       19.549       11.344      297.506      382.167      128.681        0.215        0.040       58.921        7.840        0.018      334.512        4.535      863.398
11/28/2013  20:31:00      -59.423      -38.493       -7.183       17.650       15.860        9.506      311.528      251.526       90.371        0.286        0.033       70.801        5.924        0.007      334.536        4.573      863.409
11/28/2013  20:32:00      -22.106      -21.533       -2.743       17.492       12.526       10.207      305.981      156.892      104.188        0.076        0.028       30.860        9.064        0.086      334.570        4.627      863.416
11/28/2013  20:33:00      -45.339      -25.046       -2.171       13.308       10.362        7.741      177.102      107.368       59.924        0.152        0.017       51.797        5.021        0.009      334.584        4.651      863.408
11/28/2013  20:34:00      -71.091      -28.869      -11.641        8.438        7.605        5.600       71.200       57.829       31.360        0.309        0.008       76.730        3.650        0.002      334.586        4.655      863.411
11/28/2013  20:35:00      -69.814      -23.277      -15.312        6.834        7.704        4.846       46.697       59.348       23.481        0.289        0.006       73.592        4.296        0.003      334.601        4.681      863.403
11/28/2013  20:36:00      -74.297      -22.783      -13.085       11.248        7.359        6.640      126.519       54.160       44.088        0.322        0.011       77.712        5.834        0.006      334.630        4.729      863.391
11/28/2013  20:37:00      -75.848      -27.321       -9.262       10.117        8.308        5.770      102.347       69.030       33.293        0.339        0.010       80.618        3.107        0.001      334.629        4.729      863.389
11/28/2013  20:38:00      -82.176      -26.865       -8.256        6.741        6.881        4.493       45.443       47.350       20.188        0.383        0.006       86.456        2.319        0.001      334.650        4.763      863.392
11/28/2013  20:39:00      -82.073      -29.712      -12.403        9.155        8.028        5.323       83.822       64.452       28.336        0.397        0.009       87.285        2.433        0.001      334.632        4.731      863.389
11/28/2013  20:40:00      -66.074      -37.364       -4.406       15.253        6.856        7.596      232.649       47.004       57.705        0.306        0.017       75.907        7.500        0.010      334.574        4.635      863.399
11/28/2013  20:41:00      -27.067      -24.485       -2.050       16.511       13.621       12.282      272.605      185.545      150.853        0.097        0.030       36.498        7.277        0.040      334.520        4.548      863.407
11/28/2013  20:42:00      -65.871      -54.909       -6.219       22.947       28.799       12.678      526.544      829.384      160.743        0.445        0.076       85.755        8.834        0.011      334.517        4.543      863.427
11/28/2013  20:43:00      -55.611      -59.685        0.125       19.033       25.530       13.979      362.251      651.795      195.407        0.393        0.060       81.578        9.201        0.013      334.712        4.866      863.427
11/28/2013  20:44:00      -66.779      -38.455       -8.371       24.720       22.889       12.835      611.073      523.910      164.741        0.365        0.065       77.060        6.572        0.007      334.694        4.835      863.431
11/28/2013  20:45:00      -99.488      -51.259       -4.671       27.919       19.297       14.552      779.497      372.382      211.769        0.696        0.068      111.917       12.987        0.013      334.539        4.578      863.425
11/28/2013  20:46:00      -98.351      -26.296       -3.028       11.980       15.898        9.529      143.515      252.742       90.798        0.543        0.024      101.806        5.973        0.003      334.358        4.278      863.427
11/28/2013  20:47:00      -86.860      -24.374       -7.500       15.772       14.358        9.473      248.772      206.145       89.742        0.437        0.027       90.215        8.407        0.009      334.340        4.249      863.429
11/28/2013  20:48:00      -78.597      -42.488       -3.871       21.044       16.159       10.872      442.858      261.107      118.202        0.441        0.041       89.346        9.817        0.012      334.358        4.278      863.427
11/28/2013  20:49:00      -75.381      -39.625       -1.531       22.954       15.242       12.725      526.870      232.330      161.924        0.409        0.046       85.161       10.862        0.016      334.354        4.273      863.427
11/28/2013  20:50:00      -35.096      -35.728        2.898       30.967       26.670       16.349      958.949      711.282      267.274        0.223        0.097       50.082       17.241        0.119      334.245        4.090      863.426
11/28/2013  20:51:00     -113.217      -79.035       -6.826       25.558       24.023       15.851      653.199      577.109      251.265        1.030        0.074      138.075        6.599        0.002      334.505        4.521      863.444
11/28/2013  20:52:00     -107.149      -63.532       -7.377       33.501       19.314       20.144     1122.337      373.037      405.768        0.874        0.095      124.568       10.777        0.007      334.490        4.497      863.448
11/28/2013  20:53:00      -78.691      -49.813       -1.176       53.192       27.377       21.538     2829.368      749.522      463.874        0.636        0.202       93.132       23.780        0.065      334.397        4.344      863.451
11/28/2013  20:54:00      -91.683      -52.032        2.721       38.383       23.200       17.063     1473.252      538.246      291.158        0.671        0.115      105.418       17.293        0.027      334.335        4.241      863.467
11/28/2013  20:55:00     -110.642      -52.263       -0.290       25.979       18.765       15.508      674.925      352.119      240.508        0.812        0.063      122.365       11.899        0.009      334.304        4.189      863.467
11/28/2013  20:56:00      -85.799      -43.780        3.665       40.572       22.192       19.377     1646.069      492.478      375.473        0.590        0.126       96.323       21.601        0.050      334.260        4.116      863.482
11/28/2013  20:57:00      -73.289      -54.375        6.009       46.434       28.966       26.531     2156.113      839.023      703.918        0.603        0.185       91.257       26.366        0.083      334.224        4.056      863.493
11/28/2013  20:58:00      -72.076      -43.276        6.203       41.853       30.045       21.021     1751.698      902.728      441.880        0.510        0.155       84.070       23.194        0.076      334.186        3.992      863.505
11/28/2013  20:59:00     -109.269      -46.455      -10.040       17.293       18.338        9.869      299.048      336.297       97.391        0.747        0.037      118.734        5.024        0.002      334.191        3.999      863.530
11/28/2013  21:00:00      -96.864      -24.917       -0.288       27.225       21.032       21.528      741.211      442.337      463.437        0.582        0.082      100.018       16.844        0.028      334.092        3.838      863.546
11/28/2013  21:01:00     -109.686      -33.614       -3.073       30.576       21.565       19.802      934.921      465.032      392.110        0.748        0.090      114.721       18.232        0.025      334.081        3.818      863.557
11/28/2013  21:02:00     -134.762      -47.402       -6.402       17.758       17.321       12.257      315.333      300.001      150.226        1.061        0.038      142.856       10.169        0.005      334.075        3.807      863.559
11/28/2013  21:03:00     -142.458      -39.033      -12.824       15.583       16.524       13.335      242.823      273.046      177.810        1.134        0.035      147.709        7.491        0.003      334.016        3.710      863.581
11/28/2013  21:04:00     -132.204      -38.576      -14.499       17.239       19.064       11.043      297.198      363.451      121.944        0.998        0.039      137.717        7.318        0.003      333.942        3.587      863.582
11/28/2013  21:05:00     -101.103      -42.248        2.040       28.559       27.048       18.629      815.614      731.568      347.025        0.695        0.095      109.575       19.560        0.032      333.880        3.485      863.596
11/28/2013  21:06:00      -98.598      -15.047       -6.890       35.816       26.445       19.101     1282.756      699.321      364.843        0.617        0.117       99.740       15.769        0.025      333.831        3.404      863.615
11/28/2013  21:07:00     -128.675      -15.600       -7.685       36.571       27.434       22.303     1337.422      752.650      497.414        0.972        0.129      129.617       20.659        0.025      333.911        3.536      863.623
11/28/2013  21:08:00      -95.862      -26.986       -2.898       36.981       36.749       22.044     1367.560     1350.513      485.938        0.656        0.160       99.588       18.714        0.035      333.875        3.477      863.643
11/28/2013  21:09:00     -122.230       -8.666       -7.998       50.117       28.763       21.784     2511.735      827.325      474.553        0.945        0.191      122.537       26.246        0.046      333.864        3.458      863.648
11/28/2013  21:10:00      -91.892      -34.754       -0.713       30.942       28.862       21.495      957.386      833.037      462.043        0.595        0.113       98.245       18.384        0.035      333.867        3.463      863.674
11/28/2013  21:11:00      -93.110      -27.089       -8.918       13.972       16.983       14.270      195.222      288.406      203.647        0.508        0.034       96.971        6.385        0.004      333.908        3.532      863.685
11/28/2013  21:12:00      -97.603      -34.053      -13.465       21.976       17.277       12.886      482.962      298.478      166.061        0.591        0.047      103.373       12.138        0.014      333.953        3.607      863.709
11/28/2013  21:13:00      -93.611      -27.225       -6.043       15.214       19.489       15.269      231.471      379.829      233.153        0.519        0.042       97.490        9.732        0.010      333.876        3.479      863.718
11/28/2013  21:14:00      -95.768      -43.089       -6.032       15.902       16.346       11.366      252.877      267.180      129.186        0.586        0.032      105.016        3.857        0.001      333.880        3.485      863.722
11/28/2013  21:15:00     -106.293      -38.164      -14.166       21.994       18.095       11.942      483.719      327.414      142.609        0.695        0.048      112.937        8.282        0.005      333.797        3.347      863.721
11/28/2013  21:16:00      -98.282      -23.462       -0.347       24.932       28.455       17.004      621.583      809.669      289.130        0.596        0.086      101.044       11.946        0.014      333.848        3.433      863.722
11/28/2013  21:17:00      -80.267      -26.910       -2.222       33.855       32.744       18.395     1146.182     1072.181      338.378        0.486        0.128       84.658       19.581        0.053      333.839        3.418      863.733
11/28/2013  21:18:00      -27.446       -3.848        2.757       46.182       32.549       21.773     2132.817     1059.432      474.043        0.222        0.183       27.714       24.573        0.786      333.821        3.387      863.738
11/28/2013  21:19:00      -56.740       -3.332       -8.966       45.109       34.100       22.078     2034.832     1162.808      487.455        0.350        0.184       56.838       19.356        0.116      333.894        3.508      863.741
11/28/2013  21:20:00      -36.156       -2.609       -0.772       43.038       32.378       20.109     1852.287     1048.363      404.375        0.231        0.165       36.250       16.565        0.209      333.841        3.422      863.750
11/28/2013  21:21:00      -85.124      -28.517      -12.169       31.619       28.456       18.049      999.759      809.720      325.753        0.517        0.107       89.774       14.490        0.026      333.815        3.378      863.750
11/28/2013  21:22:00      -86.258      -18.657       -0.404       36.047       35.578       21.340     1299.379     1265.789      455.414        0.540        0.151       88.252       18.749        0.045      333.745        3.260      863.757
11/28/2013  21:23:00      -94.601      -35.370       -7.142       36.688       39.593       20.469     1346.015     1567.588      418.989        0.679        0.167      100.997       17.829        0.031      333.811        3.371      863.757
11/28/2013  21:24:00      -71.329      -47.376      -12.318       45.054       26.542       20.623     2029.872      704.478      425.319        0.532        0.158       85.629       13.249        0.024      333.787        3.331      863.774
11/28/2013  21:25:00      -63.484      -29.364       -1.911       29.719       27.589       17.771      883.238      761.149      315.807        0.343        0.098       69.946       12.103        0.030      333.785        3.327      863.777
11/28/2013  21:26:00      -97.425      -28.193      -10.842       36.745       27.332       20.091     1350.171      747.060      403.666        0.645        0.125      101.422       22.117        0.048      333.780        3.319      863.798
11/28/2013  21:27:00      -84.723      -30.558       -5.934       23.263       30.538       19.500      541.183      932.543      380.232        0.500        0.093       90.065       14.728        0.027      333.861        3.455      863.819
11/28/2013  21:28:00      -80.949      -38.937      -14.995       24.423       21.441       15.641      596.467      459.731      244.632        0.480        0.065       89.827       14.650        0.027      333.906        3.529      863.834
11/28/2013  21:29:00      -75.832      -29.948      -12.531       15.783       17.010       14.986      249.115      289.324      224.585        0.378        0.038       81.531        8.008        0.010      333.827        3.397      863.855
11/28/2013  21:30:00      -88.081      -23.292      -15.088       19.055       22.444        9.049      363.088      503.712       81.889        0.474        0.047       91.109        8.608        0.009      333.817        3.380      863.861
11/28/2013  21:31:00      -90.135      -22.863      -13.113       33.404       21.517       13.182     1115.816      462.988      173.768        0.529        0.088       92.989       10.343        0.012      333.813        3.375      863.865
11/28/2013  21:32:00      -93.089      -12.891      -10.673       20.793       23.159       16.974      432.345      536.350      288.124        0.510        0.063       93.977       12.356        0.017      333.795        3.345      863.868
11/28/2013  21:33:00      -90.401      -22.510      -14.703       31.109       21.595       17.186      967.769      466.365      295.354        0.531        0.086       93.162       16.964        0.033      333.787        3.330      863.887
11/28/2013  21:34:00      -89.887      -29.347      -16.596       29.024       23.951       16.277      842.368      573.634      264.938        0.545        0.084       94.556       14.494        0.023      333.840        3.419      863.895
11/28/2013  21:35:00      -98.832      -27.679      -15.947       24.757       23.303       14.457      612.888      543.050      208.990        0.608        0.068      102.635       10.650        0.011      333.826        3.396      863.905
11/28/2013  21:36:00      -87.064      -26.524      -11.428       23.433       25.025       14.925      549.114      626.260      222.743        0.491        0.070       91.015       12.145        0.018      333.812        3.371      863.929
11/28/2013  21:37:00      -90.045      -30.820      -12.419       18.865       24.499       12.967      355.900      600.177      168.155        0.517        0.056       95.173        6.598        0.005      333.855        3.444      863.947
11/28/2013  21:38:00      -45.209      -45.133       -0.215       22.168       19.431       15.357      491.404      377.581      235.831        0.259        0.055       63.882       11.952        0.035      333.772        3.305      863.964
11/28/2013  21:39:00      -75.498      -28.340       -5.663       42.880       29.375       19.634     1838.722      862.919      385.501        0.481        0.154       80.642       21.559        0.071      333.830        3.404      863.971
11/28/2013  21:40:00      -99.699      -44.309      -16.558       27.500       22.659       15.247      756.236      513.448      232.467        0.684        0.075      109.102       15.192        0.019      333.815        3.377      863.999
11/28/2013  21:41:00      -88.852      -58.246      -14.650       26.800       23.536       15.785      718.248      553.926      249.182        0.651        0.076      106.242       10.094        0.009      333.864        3.459      864.017
11/28/2013  21:42:00     -128.863      -59.972       -4.648       29.519       19.605       15.105      871.391      384.363      228.157        1.085        0.074      142.135       10.762        0.006      333.781        3.321      864.029
11/28/2013  21:43:00     -126.225      -52.386       -9.271       15.034       18.853       11.993      226.012      355.424      143.822        0.974        0.036      136.664        9.130        0.004      333.974        3.641      864.054
11/28/2013  21:44:00     -120.520      -46.329      -13.909       11.171       15.703        8.060      124.795      246.595       64.956        0.865        0.022      129.118        4.067        0.001      333.946        3.594      864.075
11/28/2013  21:45:00     -118.627      -55.584      -10.713       16.021       13.699       10.040      256.682      187.676      100.810        0.891        0.027      131.004        6.120        0.002      333.870        3.468      864.083
11/28/2013  21:46:00     -115.694      -41.905      -10.986       18.570       14.378       16.915      344.831      206.731      286.121        0.805        0.042      123.049       10.451        0.007      333.748        3.267      864.098
11/28/2013  21:47:00     -109.982      -38.651       -6.909       27.343       29.858       15.134      747.657      891.490      229.038        0.775        0.093      116.576       12.787        0.012      333.661        3.121      864.106
11/28/2013  21:48:00     -121.405      -15.353       -7.442       31.796       32.875       20.370     1010.998     1080.733      414.945        0.877        0.125      122.372       14.644        0.014      333.670        3.136      864.122
11/28/2013  21:49:00      -95.531       -8.644       -2.046       29.259       24.294       18.466      856.090      590.188      340.983        0.550        0.089       95.921       15.671        0.027      333.597        3.015      864.140
11/28/2013  21:50:00      -79.602       -0.854       -5.877       34.254       31.055       16.997     1173.358      964.386      288.902        0.440        0.121       79.607       14.636        0.034      333.539        2.920      864.167
11/28/2013  21:51:00      -60.232       -8.571       -3.277       24.417       19.017       13.922      596.193      361.654      193.829        0.243        0.058       60.838        7.429        0.015      333.543        2.928      864.182
11/28/2013  21:52:00     -106.175      -17.361       -5.592       30.270       19.085       14.480      916.283      364.228      209.661        0.655        0.075      107.585       11.222        0.011      333.577        2.982      864.180
11/28/2013  21:53:00      -69.539      -26.069       -1.863       23.027       17.475       10.801      530.232      305.360      116.670        0.324        0.048       74.265        7.208        0.009      333.595        3.011      864.183
11/28/2013  21:54:00      -55.452      -41.567       -8.108       39.030       19.654       17.805     1523.305      386.290      317.025        0.355        0.111       69.301       14.302        0.043      333.642        3.091      864.198
11/28/2013  21:55:00      -93.608      -29.033       -8.443       13.704        8.743        7.919      187.790       76.442       62.715        0.500        0.016       98.007        4.916        0.003      333.630        3.072      864.213
11/28/2013  21:56:00      -87.860      -34.054       -9.903        9.883       13.329        6.974       97.679      177.650       48.630        0.465        0.016       94.228        3.642        0.001      333.733        3.240      864.213
11/28/2013  21:57:00      -94.626      -50.075       -5.644       15.675       14.183       10.075      245.709      201.165      101.510        0.602        0.027      107.059        2.048        0.000      333.719        3.219      864.215
11/28/2013  21:58:00      -55.860      -42.321       -0.871       39.548       22.092       15.517     1564.083      488.074      240.784        0.360        0.115       70.081       12.812        0.033      333.710        3.203      864.230
11/28/2013  21:59:00      -77.116      -49.013        5.869       25.642       23.307       17.781      657.499      543.197      316.179        0.495        0.076       91.374       16.008        0.031      333.654        3.110      864.229
11/28/2013  22:00:00      -92.598      -61.431       -1.164       24.922       16.885       15.539      621.105      285.088      241.461        0.675        0.057      111.122       15.531        0.020      333.654        3.111      864.224
11/28/2013  22:01:00      -73.891      -60.794       -1.063       29.011       21.425       15.859      841.634      459.012      251.523        0.535        0.078       95.686       14.013        0.021      333.609        3.035      864.228
11/28/2013  22:02:00      -60.927      -57.208       -0.567       34.008       21.044       19.600     1156.554      442.848      384.143        0.448        0.099       83.575       17.722        0.045      333.628        3.067      864.238
11/28/2013  22:03:00      -88.813      -55.947        1.404       28.744       19.490       19.673      826.221      379.852      387.010        0.631        0.080      104.966       19.147        0.033      333.555        2.946      864.238
11/28/2013  22:04:00      -96.041      -48.864        0.938       24.064       24.331       17.802      579.098      591.989      316.902        0.655        0.074      107.757       14.127        0.017      333.520        2.888      864.240
11/28/2013  22:05:00     -104.219      -60.053       -3.827       23.311       18.622       16.102      543.399      346.795      259.262        0.782        0.057      120.283       12.178        0.010      333.524        2.894      864.260
11/28/2013  22:06:00      -71.564      -51.560       -4.391       34.607       19.158       18.687     1197.665      367.035      349.222        0.486        0.096       88.204       14.378        0.027      333.457        2.784      864.281
11/28/2013  22:07:00     -109.491      -36.775      -10.512       28.157       18.928       13.866      792.802      358.278      192.265        0.740        0.067      115.501       10.269        0.008      333.411        2.707      864.296
11/28/2013  22:08:00      -89.134      -29.747        4.997       24.783       20.788       13.513      614.201      432.129      182.599        0.504        0.061       93.967       12.553        0.018      333.377        2.651      864.309
11/28/2013  22:09:00      -87.451      -48.524        2.553       33.257       18.929       14.041     1106.011      358.299      197.159        0.583        0.083      100.011       11.995        0.014      333.419        2.720      864.318
11/28/2013  22:10:00      -51.082      -29.991        6.384       37.993       23.658       21.296     1443.486      559.693      453.508        0.300        0.123       59.236       25.393        0.184      333.428        2.735      864.318
11/28/2013  22:11:00      -77.574      -44.289       -0.043       21.009       19.027       13.349      441.377      362.040      178.199        0.448        0.049       89.326        9.809        0.012      333.426        2.732      864.324
11/28/2013  22:12:00      -76.347      -36.730        0.813       26.360       20.729       14.771      694.874      429.686      218.186        0.426        0.067       84.723       14.099        0.028      333.394        2.680      864.341
11/28/2013  22:13:00      -97.688      -46.904       -3.349       20.074       17.321       13.351      402.985      300.031      178.240        0.632        0.044      108.364       11.318        0.011      333.381        2.658      864.347
11/28/2013  22:14:00     -103.840      -31.403       -2.508       16.011       23.208       10.597      256.357      538.625      112.298        0.634        0.045      108.484        6.448        0.004      333.400        2.689      864.344
11/28/2013  22:15:00      -87.814      -32.144       -0.256       28.436       15.978       15.360      808.613      255.302      235.944        0.502        0.065       93.512       16.047        0.029      333.345        2.600      864.347
11/28/2013  22:16:00      -92.495      -28.312       -4.233       18.995       13.657        9.462      360.806      186.500       89.532        0.501        0.032       96.731        6.324        0.004      333.379        2.655      864.351
11/28/2013  22:17:00      -76.093      -25.350       -1.622       28.022       13.753       11.391      785.238      189.144      129.756        0.377        0.055       80.204       13.671        0.029      333.343        2.595      864.353
11/28/2013  22:18:00      -73.086      -26.929       -8.605       16.342       10.649       13.196      267.069      113.403      174.131        0.335        0.028       77.889       11.309        0.021      333.381        2.658      864.349
11/28/2013  22:19:00      -75.536      -20.442       -7.591       20.949       16.301       10.323      438.880      265.731      106.559        0.350        0.041       78.254       10.328        0.017      333.338        2.586      864.348
11/28/2013  22:20:00      -97.937      -20.930       -9.731       24.452       19.748       15.337      597.925      389.980      235.239        0.567        0.061      100.148       14.883        0.022      333.352        2.610      864.345
11/28/2013  22:21:00     -105.051       -6.450      -17.327       24.773       21.000       16.176      613.701      440.989      261.662        0.635        0.066      105.249       14.594        0.019      333.347        2.603      864.355
11/28/2013  22:22:00      -75.612      -17.156      -10.551       20.026       17.671       11.548      401.032      312.249      133.354        0.348        0.042       77.534        6.000        0.006      333.329        2.573      864.351
11/28/2013  22:23:00      -84.566      -10.955       -9.024       31.157       22.328       14.690      970.776      498.540      215.785        0.452        0.084       85.273       14.909        0.031      333.315        2.550      864.350
11/28/2013  22:24:00      -83.438       -8.268       -9.447       27.770       18.707       15.974      771.194      349.964      255.178        0.425        0.069       83.847       11.659        0.019      333.329        2.571      864.347
11/28/2013  22:25:00      -80.121       -2.672       -8.871       22.307       19.374       13.355      497.610      375.351      178.352        0.378        0.053       80.166        9.430        0.014      333.370        2.641      864.361
11/28/2013  22:26:00      -92.969       -5.798      -11.352       27.775       22.617       14.390      771.445      511.549      207.077        0.515        0.075       93.149        9.650        0.011      333.334        2.581      864.374
11/28/2013  22:27:00      -83.302      -11.413      -12.135       24.650       23.533       17.721      607.628      553.809      314.018        0.435        0.074       84.081       11.801        0.020      333.364        2.630      864.378
11/28/2013  22:28:00     -107.706      -24.839      -11.634       33.199       21.677       16.661     1102.144      469.897      277.578        0.710        0.092      110.533       14.583        0.017      333.323        2.563      864.384
11/28/2013  22:29:00     -109.930      -40.420      -13.030       35.220       26.836       16.821     1240.424      720.174      282.953        0.807        0.112      117.126       18.487        0.025      333.339        2.590      864.388
11/28/2013  22:30:00      -82.212      -42.713       -6.339       28.111       19.684       16.356      790.202      387.446      267.523        0.503        0.072       92.646       13.520        0.021      333.305        2.531      864.399
11/28/2013  22:31:00      -83.514      -37.664       -6.428       26.510       17.078       11.134      702.802      291.654      123.974        0.478        0.056       91.615       10.585        0.013      333.251        2.443      864.411
11/28/2013  22:32:00      -86.025      -39.751       -9.679       16.226       17.045       12.466      263.281      290.540      155.413        0.489        0.035       94.765        7.151        0.006      333.288        2.504      864.411
11/28/2013  22:33:00      -97.107      -31.483      -11.863       18.739       22.780       12.142      351.156      518.924      147.419        0.579        0.051      102.083        9.358        0.008      333.262        2.462      864.403
11/28/2013  22:34:00     -108.026      -29.838      -11.317       24.013       20.114       17.007      576.629      404.555      289.247        0.698        0.064      112.071       13.616        0.015      333.224        2.399      864.392
11/28/2013  22:35:00      -78.759      -48.432       -6.668       40.822       25.991       15.404     1666.414      675.514      237.295        0.559        0.129       92.459       15.755        0.029      333.220        2.392      864.394
11/28/2013  22:36:00     -121.213      -63.716       -3.486       24.437       34.261       17.899      597.160     1173.841      320.358        1.043        0.105      136.939        7.166        0.003      333.253        2.445      864.394
11/28/2013  22:37:00     -103.570      -43.805        1.443       40.685       32.632       18.188     1655.273     1064.825      330.820        0.785        0.153      112.453       15.207        0.018      333.246        2.434      864.390
11/28/2013  22:38:00     -118.066      -42.900       -7.206       38.786       33.386       14.376     1504.382     1114.643      206.662        0.933        0.141      125.619       11.199        0.008      333.183        2.329      864.380
11/28/2013  22:39:00      -93.112      -26.706       -2.979       22.547       35.553       21.621      508.376     1263.985      467.452        0.582        0.112       96.866       12.836        0.018      333.189        2.339      864.373
11/28/2013  22:40:00     -124.801      -26.024       -0.452       37.331       31.298       20.161     1393.587      979.557      406.465        0.952        0.139      127.486       20.229        0.025      333.188        2.339      864.378
11/28/2013  22:41:00     -106.047      -31.748       -1.291       43.868       31.456       22.376     1924.394      989.510      500.702        0.783        0.171      110.697       22.805        0.042      333.150        2.276      864.382
11/28/2013  22:42:00     -140.115      -66.878       -2.118       38.099       28.420       19.185     1451.534      807.707      368.073        1.337        0.131      155.258       22.027        0.020      333.157        2.287      864.387
11/28/2013  22:43:00     -131.686      -54.291       -0.893       31.777       21.439       21.682     1009.791      459.642      470.109        1.111        0.097      142.438       18.575        0.017      333.128        2.238      864.388
11/28/2013  22:44:00     -116.968      -35.864      -13.569       28.763       20.083       17.458      827.324      403.346      304.799        0.834        0.077      122.343        9.717        0.006      333.204        2.367      864.392
11/28/2013  22:45:00      -92.707      -58.161       -7.184       17.421       16.983       15.631      303.479      288.423      244.316        0.643        0.042      109.441       10.805        0.010      333.206        2.368      864.398
11/28/2013  22:46:00      -79.485      -39.640      -11.145       17.797       15.532       10.917      316.749      241.257      119.177        0.435        0.034       88.822        3.605        0.002      333.259        2.457      864.418
11/28/2013  22:47:00      -63.564      -47.674      -10.072       18.122       14.945       10.309      328.420      223.364      106.279        0.354        0.033       79.456        6.786        0.007      333.316        2.551      864.423
11/28/2013  22:48:00      -76.069      -50.197      -11.943       19.312       12.458        9.528      372.936      155.192       90.780        0.453        0.031       91.138        4.958        0.003      333.311        2.543      864.428
11/28/2013  22:49:00      -91.126      -53.089      -13.389       12.683       13.385        9.335      160.862      179.147       87.142        0.586        0.021      105.463        6.143        0.003      333.314        2.547      864.433
11/28/2013  22:50:00      -83.961      -46.044       -0.982       18.839       15.580       13.893      354.907      242.752      193.010        0.498        0.040       95.758       11.547        0.015      333.284        2.499      864.447
11/28/2013  22:51:00      -42.921      -33.972        2.970       31.854       18.213       12.992     1014.700      331.719      168.787        0.226        0.076       54.738       13.173        0.058      333.266        2.469      864.456
11/28/2013  22:52:00      -88.264      -60.117       -0.529       33.724       20.585       13.426     1137.331      423.730      180.260        0.657        0.087      106.793        4.676        0.002      333.303        2.529      864.459
11/28/2013  22:53:00      -77.154      -48.933       -2.067       34.844       23.538       19.558     1214.072      554.052      382.514        0.525        0.108       91.363       15.985        0.031      333.237        2.419      864.462
11/28/2013  22:54:00     -105.284      -51.281       -0.487       27.107       18.077       14.718      734.803      326.766      216.605        0.750        0.064      117.109       14.477        0.015      333.228        2.404      864.465
11/28/2013  22:55:00     -109.450      -57.285        4.698       30.019       27.520       17.899      901.160      757.375      320.372        0.863        0.099      123.535       17.914        0.021      333.186        2.335      864.479
11/28/2013  22:56:00      -77.284      -48.519        9.855       34.171       31.743       23.221     1167.685     1007.647      539.234        0.557        0.136       91.252       22.037        0.058      333.192        2.343      864.484
11/28/2013  22:57:00      -86.613      -53.800        4.899       39.579       27.984       19.985     1566.515      783.129      399.394        0.658        0.137      101.962       20.694        0.041      333.180        2.326      864.495
11/28/2013  22:58:00     -112.490      -73.911       -6.249       33.065       26.304       18.323     1093.264      691.917      335.726        1.014        0.106      134.599       13.103        0.009      333.193        2.347      864.505
11/28/2013  22:59:00     -115.096      -66.313       -3.088       21.854       18.599       16.345      477.594      345.912      267.174        0.937        0.055      132.832       12.747        0.009      333.196        2.353      864.514
11/28/2013  23:00:00     -129.273      -55.496       -2.411       23.114       22.188       15.777      534.278      492.319      248.907        1.054        0.064      140.682       11.311        0.006      333.193        2.347      864.519
11/28/2013  23:01:00     -132.707      -46.177       -1.833       26.534       19.427       14.112      704.050      377.425      199.148        1.051        0.064      140.511       12.905        0.008      333.158        2.291      864.530
11/28/2013  23:02:00     -125.520      -47.215       -1.372       25.328       22.179       14.268      641.484      491.908      203.584        0.966        0.067      134.107       13.506        0.010      333.191        2.344      864.552
11/28/2013  23:03:00     -113.480      -51.846        4.766       29.829       27.391       16.751      889.766      750.265      280.599        0.875        0.096      124.763       16.677        0.018      333.233        2.414      864.565
11/28/2013  23:04:00     -137.099      -50.503        0.254       20.413       30.218       14.895      416.701      913.147      221.851        1.145        0.078      146.105       13.944        0.009      333.321        2.560      864.572
11/28/2013  23:05:00     -134.268      -57.261        1.183       25.087       19.432       13.236      629.343      377.588      175.205        1.124        0.059      145.968       11.789        0.007      333.239        2.422      864.582
11/28/2013  23:06:00     -132.676      -34.447       -0.413       30.267       32.249       23.134      916.076     1039.986      535.205        1.064        0.125      137.075       19.521        0.020      333.113        2.215      864.598
11/28/2013  23:07:00     -144.243      -57.701       -8.709       26.371       19.338       14.781      695.421      373.974      218.479        1.275        0.064      155.356       12.177        0.006      333.128        2.241      864.605
11/28/2013  23:08:00     -113.301      -30.161       -8.857       24.287       30.802       17.232      589.874      948.791      296.953        0.783        0.092      117.247       12.133        0.011      333.051        2.113      864.605
11/28/2013  23:09:00     -102.901       -0.146       -7.749       48.028       35.968       24.430     2306.701     1293.666      596.844        0.742        0.210      102.901       22.462        0.048      332.949        1.944      864.612
11/28/2013  23:10:00     -128.871       13.358      -14.368       43.312       35.753       24.703     1875.950     1278.242      610.222        1.038        0.188      129.562       19.046        0.022      332.935        1.921      864.628
11/28/2013  23:11:00      -93.889        5.091       -5.400       41.323       34.565       19.528     1707.609     1194.731      381.360        0.608        0.164       94.027       20.099        0.046      332.894        1.854      864.649
11/28/2013  23:12:00      -86.010        1.622      -14.201       38.640       30.115       16.019     1493.043      906.892      256.614        0.513        0.133       86.025       14.601        0.029      332.853        1.788      864.655
11/28/2013  23:13:00      -80.723        1.919      -10.082       27.258       27.734       18.517      742.971      769.167      342.868        0.424        0.093       80.746       13.487        0.028      332.871        1.817      864.672
11/28/2013  23:14:00     -101.602       -6.899      -11.055       25.609       23.792       13.984      655.824      566.045      195.557        0.595        0.071      101.836       11.054        0.012      332.824        1.739      864.691
11/28/2013  23:15:00      -71.581      -13.470       -2.658       27.852       19.495       16.731      775.733      380.055      279.932        0.337        0.072       72.837       14.032        0.037      332.895        1.856      864.707
11/28/2013  23:16:00      -47.378      -27.945       -8.272       15.007       16.272       10.205      225.217      264.764      104.145        0.184        0.030       55.005        8.409        0.023      332.960        1.962      864.710
11/28/2013  23:17:00      -56.112      -20.536       -8.007       22.808       14.198       10.770      520.213      201.572      115.998        0.224        0.042       59.752        2.198        0.001      332.984        2.003      864.704
11/28/2013  23:18:00     -101.035      -27.916       -9.867       16.813       15.467        9.181      282.676      239.241       84.282        0.585        0.030      104.821        8.324        0.006      332.928        1.910      864.695
11/28/2013  23:19:00      -90.780      -26.856      -16.797       12.450       14.548        8.874      155.001      211.636       78.752        0.484        0.022       94.670        5.062        0.003      332.841        1.766      864.683
11/28/2013  23:20:00      -68.983      -32.762      -15.114       10.734       16.298        9.703      115.228      265.639       94.149        0.327        0.024       76.368        7.782        0.010      332.834        1.756      864.686
11/28/2013  23:21:00      -66.906      -27.249      -10.245       20.145       21.589       16.560      405.819      466.084      274.250        0.323        0.057       72.242       14.382        0.040      332.838        1.761      864.679
11/28/2013  23:22:00      -92.879       -3.742      -18.555       14.973       13.180       11.347      224.189      173.714      128.759        0.476        0.026       92.954        2.278        0.001      332.815        1.726      864.683
11/28/2013  23:23:00      -83.969      -19.515      -15.242       13.281       16.277       12.000      176.393      264.931      143.996        0.412        0.029       86.207        8.157        0.009      332.782        1.669      864.685
11/28/2013  23:24:00     -100.386      -21.107      -16.293        9.545       10.883        7.776       91.115      118.443       60.462        0.553        0.014      102.581        5.023        0.002      332.739        1.599      864.691
11/28/2013  23:25:00      -71.938      -30.909      -14.308       11.524        9.550        9.101      132.795       91.210       82.824        0.332        0.015       78.297        4.192        0.003      332.752        1.621      864.696
11/28/2013  23:26:00      -72.895      -22.609      -12.537       12.859       11.507        9.876      165.356      132.410       97.532        0.319        0.020       76.321        8.024        0.011      332.781        1.667      864.700
11/28/2013  23:27:00      -80.112      -14.117      -16.430       11.075        9.600        8.356      122.659       92.151       69.830        0.359        0.014       81.346        6.039        0.006      332.831        1.751      864.698
11/28/2013  23:28:00      -76.422      -18.690      -13.195       10.924        8.087        6.457      119.343       65.396       41.698        0.330        0.011       78.674        4.040        0.003      332.824        1.739      864.704
11/28/2013  23:29:00      -61.588      -15.831       -6.755       23.654       13.995       14.101      559.513      195.857      198.851        0.252        0.048       63.590       13.946        0.048      332.795        1.692      864.702
11/28/2013  23:30:00      -89.279      -14.012      -15.608       12.102       12.600        8.585      146.456      158.761       73.694        0.439        0.019       90.372        5.389        0.004      332.766        1.644      864.712
11/28/2013  23:31:00      -92.664      -15.710      -14.296       17.002       11.748       11.485      289.082      138.012      131.899        0.480        0.028       93.986        7.188        0.006      332.748        1.614      864.722
11/28/2013  23:32:00      -95.829       -8.470      -18.086       11.238       11.660        7.997      126.284      135.945       63.945        0.495        0.016       96.202        5.511        0.003      332.785        1.675      864.727
11/28/2013  23:33:00      -82.710        2.121      -14.008       10.570       10.769        9.699      111.717      115.973       94.066        0.368        0.016       82.738        5.840        0.005      332.774        1.656      864.731
11/28/2013  23:34:00      -65.017      -21.391       -9.735       12.900       22.051       13.458      166.417      486.253      181.131        0.281        0.042       68.445       12.862        0.035      332.772        1.653      864.726
11/28/2013  23:35:00      -91.951      -13.729      -14.725       21.436       17.890       11.841      459.514      320.036      140.210        0.489        0.046       92.970       10.285        0.012      332.717        1.562      864.720
11/28/2013  23:36:00     -111.968       -1.619      -19.670       19.672       18.576       11.605      386.972      345.062      134.665        0.690        0.043      111.980        8.024        0.005      332.630        1.419      864.712
11/28/2013  23:37:00      -90.851      -31.363      -12.952       21.111       23.346       14.643      445.676      545.013      214.431        0.530        0.060       96.112        8.476        0.008      332.585        1.342      864.694
11/28/2013  23:38:00      -99.915      -29.218      -12.355       18.925       24.387       14.090      358.138      594.750      198.531        0.607        0.058      104.099       12.911        0.015      332.600        1.366      864.676
11/28/2013  23:39:00     -106.931      -21.039      -14.577       42.246       19.223       17.597     1784.757      369.524      309.667        0.728        0.123      108.981       17.326        0.025      332.617        1.396      864.667
11/28/2013  23:40:00     -100.950      -31.991      -14.170       31.190       25.923       21.548      972.795      671.976      464.330        0.676        0.105      105.897       17.750        0.028      332.622        1.405      864.655
11/28/2013  23:41:00      -65.286      -42.009       -1.780       29.453       26.738       18.075      867.503      714.905      326.707        0.397        0.095       77.634       14.162        0.033      332.639        1.433      864.656
11/28/2013  23:42:00      -79.285      -32.644       -5.854       28.541       21.454       17.853      814.561      460.265      318.740        0.449        0.080       85.742       17.087        0.040      332.676        1.494      864.661
11/28/2013  23:43:00      -57.254      -43.707       -3.507       23.236       17.600       14.326      539.898      309.749      205.246        0.313        0.053       72.030       12.063        0.028      332.694        1.522      864.659
11/28/2013  23:44:00      -80.086      -45.706       -8.284       18.921       11.403       13.763      357.987      130.027      189.415        0.462        0.034       92.211        9.544        0.011      332.688        1.514      864.658
11/28/2013  23:45:00      -63.236      -41.538      -10.396       21.957       12.710       12.108      482.118      161.535      146.606        0.331        0.040       75.659       11.201        0.022      332.698        1.530      864.663
11/28/2013  23:46:00      -95.068      -39.756      -11.518       11.660       11.199        9.678      135.954      125.422       93.660        0.555        0.018      103.046        4.083        0.002      332.749        1.615      864.688
11/28/2013  23:47:00      -74.807      -28.450       -9.506       13.998       16.083        7.277      195.956      258.660       52.958        0.350        0.025       80.034        4.564        0.003      332.813        1.720      864.708
11/28/2013  23:48:00      -85.625      -38.139       -9.854       11.173       12.539        7.406      124.835      157.239       54.845        0.461        0.017       93.735        5.139        0.003      332.762        1.636      864.724
11/28/2013  23:49:00      -76.125      -40.032      -11.587       16.015       10.756        9.751      256.466      115.695       95.074        0.400        0.023       86.009        8.894        0.011      332.801        1.700      864.734
11/28/2013  23:50:00      -42.413      -33.899       -7.692       20.714       13.195       12.350      429.070      174.121      152.512        0.188        0.038       54.296        7.252        0.018      332.792        1.686      864.745
11/28/2013  23:51:00      -66.701      -37.273       -5.833       20.760       12.872       10.203      430.987      165.676      104.105        0.329        0.035       76.409       10.979        0.021      332.769        1.647      864.746
11/28/2013  23:52:00      -90.500      -39.523       -6.362       13.852       11.669       10.205      191.891      136.158      104.139        0.511        0.022       98.754        3.326        0.001      332.804        1.705      864.752
11/28/2013  23:53:00      -56.979      -47.171       -0.063       26.277       17.299       13.132      690.471      299.268      172.449        0.332        0.058       73.971       10.061        0.018      332.705        1.542      864.763
11/28/2013  23:54:00      -45.783      -36.699       -0.942       30.385       22.010       14.189      923.237      484.452      201.340        0.253        0.080       58.676       11.782        0.040      332.686        1.511      864.768
11/28/2013  23:55:00      -85.794      -46.834        2.738       27.492       24.530       16.569      755.799      601.737      274.531        0.560        0.082       97.745       11.032        0.013      332.734        1.588      864.765
11/28/2013  23:56:00      -48.164      -35.532        0.754       21.390       20.595       12.596      457.550      424.155      158.670        0.231        0.052       59.852        6.941        0.013      332.722        1.570      864.767
11/28/2013  23:57:00      -72.395      -29.814       -5.073       15.220       12.974        8.445      231.646      168.322       71.311        0.331        0.024       78.293        6.281        0.006      332.787        1.678      864.775
11/28/2013  23:58:00      -79.335      -27.703       -2.909       13.027       11.660        7.949      169.711      135.957       63.189        0.372        0.018       84.033        4.417        0.003      332.839        1.763      864.786
11/28/2013  23:59:00      -89.574      -45.491       -3.713       16.622       11.169       12.368      276.299      124.737      152.979        0.533        0.028      100.463        9.559        0.009      332.801        1.701      864.791
